<?xml version="1.0" encoding="UTF-8" standalone="no" ?>
<gpx xmlns="http://www.topografix.com/GPX/1/1" xmlns:xsi="http://www.w3.org/2001/XMLSchema-instance" xsi:schemaLocation="http://www.topografix.com/GPX/1/1 http://www.topografix.com/GPX/1/1/gpx.xsd" version="1.1" creator="VisuGPX - https://www.visugpx.com">
  <metadata>
    <name>20260324-menesqueville</name>
    <desc><![CDATA[Boucle A-R au départ de la Mairie]]></desc>
  </metadata>
  <trk>
    <name><![CDATA[SityTrail - 20260324-menesqueville]]></name>
    <desc><![CDATA[Boucle A-R au départ de la Mairie]]></desc>
    <trkseg>
      <trkpt lat="49.35974" lon="1.4161">
        <ele>46</ele>
        <time>2026-03-24T12:53:16.982Z</time>
      </trkpt>
      <trkpt lat="49.35967" lon="1.41614">
        <ele>46</ele>
        <time>2026-03-24T12:59:14.783Z</time>
      </trkpt>
      <trkpt lat="49.35967" lon="1.41614">
        <ele>46</ele>
        <time>2026-03-24T12:59:19.783Z</time>
      </trkpt>
      <trkpt lat="49.35967" lon="1.41615">
        <ele>46</ele>
        <time>2026-03-24T12:59:36.783Z</time>
      </trkpt>
      <trkpt lat="49.35967" lon="1.41615">
        <ele>46</ele>
        <time>2026-03-24T12:59:52.783Z</time>
      </trkpt>
      <trkpt lat="49.35963" lon="1.41617">
        <ele>46</ele>
        <time>2026-03-24T12:59:57.783Z</time>
      </trkpt>
      <trkpt lat="49.35957" lon="1.41618">
        <ele>48</ele>
        <time>2026-03-24T13:00:02.783Z</time>
      </trkpt>
      <trkpt lat="49.35951" lon="1.41619">
        <ele>48</ele>
        <time>2026-03-24T13:00:07.783Z</time>
      </trkpt>
      <trkpt lat="49.35945" lon="1.41622">
        <ele>48</ele>
        <time>2026-03-24T13:00:12.445Z</time>
      </trkpt>
      <trkpt lat="49.35944" lon="1.41621">
        <ele>48</ele>
        <time>2026-03-24T13:00:16.592Z</time>
      </trkpt>
      <trkpt lat="49.35943" lon="1.41621">
        <ele>48</ele>
        <time>2026-03-24T13:00:43.783Z</time>
      </trkpt>
      <trkpt lat="49.3594" lon="1.41621">
        <ele>48</ele>
        <time>2026-03-24T13:00:48.316Z</time>
      </trkpt>
      <trkpt lat="49.35937" lon="1.4162">
        <ele>48</ele>
        <time>2026-03-24T13:00:52.620Z</time>
      </trkpt>
      <trkpt lat="49.35938" lon="1.41614">
        <ele>48</ele>
        <time>2026-03-24T13:00:57.377Z</time>
      </trkpt>
      <trkpt lat="49.35937" lon="1.41609">
        <ele>48</ele>
        <time>2026-03-24T13:01:01.513Z</time>
      </trkpt>
      <trkpt lat="49.35936" lon="1.416">
        <ele>48</ele>
        <time>2026-03-24T13:01:05.695Z</time>
      </trkpt>
      <trkpt lat="49.35935" lon="1.41592">
        <ele>48</ele>
        <time>2026-03-24T13:01:09.775Z</time>
      </trkpt>
      <trkpt lat="49.35936" lon="1.41586">
        <ele>48</ele>
        <time>2026-03-24T13:01:13.780Z</time>
      </trkpt>
      <trkpt lat="49.35934" lon="1.41577">
        <ele>48</ele>
        <time>2026-03-24T13:01:18.292Z</time>
      </trkpt>
      <trkpt lat="49.35933" lon="1.4157">
        <ele>48</ele>
        <time>2026-03-24T13:01:22.314Z</time>
      </trkpt>
      <trkpt lat="49.35932" lon="1.41561">
        <ele>49</ele>
        <time>2026-03-24T13:01:26.782Z</time>
      </trkpt>
      <trkpt lat="49.3593" lon="1.41557">
        <ele>52</ele>
        <time>2026-03-24T13:01:31.313Z</time>
      </trkpt>
      <trkpt lat="49.35929" lon="1.41547">
        <ele>52</ele>
        <time>2026-03-24T13:01:35.782Z</time>
      </trkpt>
      <trkpt lat="49.35929" lon="1.41538">
        <ele>52</ele>
        <time>2026-03-24T13:01:40.297Z</time>
      </trkpt>
      <trkpt lat="49.35926" lon="1.4153">
        <ele>52</ele>
        <time>2026-03-24T13:01:44.783Z</time>
      </trkpt>
      <trkpt lat="49.35924" lon="1.41522">
        <ele>52</ele>
        <time>2026-03-24T13:01:49.281Z</time>
      </trkpt>
      <trkpt lat="49.35923" lon="1.41514">
        <ele>52</ele>
        <time>2026-03-24T13:01:53.774Z</time>
      </trkpt>
      <trkpt lat="49.35922" lon="1.41506">
        <ele>51</ele>
        <time>2026-03-24T13:01:58.332Z</time>
      </trkpt>
      <trkpt lat="49.35922" lon="1.41502">
        <ele>51</ele>
        <time>2026-03-24T13:02:02.792Z</time>
      </trkpt>
      <trkpt lat="49.35921" lon="1.41491">
        <ele>51</ele>
        <time>2026-03-24T13:02:07.313Z</time>
      </trkpt>
      <trkpt lat="49.3592" lon="1.41483">
        <ele>51</ele>
        <time>2026-03-24T13:02:11.783Z</time>
      </trkpt>
      <trkpt lat="49.35915" lon="1.4148">
        <ele>51</ele>
        <time>2026-03-24T13:02:15.936Z</time>
      </trkpt>
      <trkpt lat="49.35912" lon="1.41474">
        <ele>51</ele>
        <time>2026-03-24T13:02:19.993Z</time>
      </trkpt>
      <trkpt lat="49.35911" lon="1.41468">
        <ele>51</ele>
        <time>2026-03-24T13:02:24.120Z</time>
      </trkpt>
      <trkpt lat="49.35907" lon="1.41467">
        <ele>51</ele>
        <time>2026-03-24T13:02:28.159Z</time>
      </trkpt>
      <trkpt lat="49.35902" lon="1.41467">
        <ele>52</ele>
        <time>2026-03-24T13:02:32.197Z</time>
      </trkpt>
      <trkpt lat="49.35897" lon="1.41469">
        <ele>52</ele>
        <time>2026-03-24T13:02:36.412Z</time>
      </trkpt>
      <trkpt lat="49.35894" lon="1.41474">
        <ele>52</ele>
        <time>2026-03-24T13:02:40.433Z</time>
      </trkpt>
      <trkpt lat="49.35889" lon="1.41479">
        <ele>52</ele>
        <time>2026-03-24T13:02:44.973Z</time>
      </trkpt>
      <trkpt lat="49.35886" lon="1.41485">
        <ele>52</ele>
        <time>2026-03-24T13:02:49.540Z</time>
      </trkpt>
      <trkpt lat="49.35883" lon="1.41489">
        <ele>51</ele>
        <time>2026-03-24T13:02:53.656Z</time>
      </trkpt>
      <trkpt lat="49.35879" lon="1.41492">
        <ele>51</ele>
        <time>2026-03-24T13:02:57.713Z</time>
      </trkpt>
      <trkpt lat="49.35876" lon="1.41497">
        <ele>51</ele>
        <time>2026-03-24T13:03:01.782Z</time>
      </trkpt>
      <trkpt lat="49.35873" lon="1.41505">
        <ele>52</ele>
        <time>2026-03-24T13:03:06.458Z</time>
      </trkpt>
      <trkpt lat="49.3587" lon="1.41512">
        <ele>52</ele>
        <time>2026-03-24T13:03:10.496Z</time>
      </trkpt>
      <trkpt lat="49.35866" lon="1.41517">
        <ele>53</ele>
        <time>2026-03-24T13:03:14.992Z</time>
      </trkpt>
      <trkpt lat="49.35866" lon="1.41524">
        <ele>53</ele>
        <time>2026-03-24T13:03:19.592Z</time>
      </trkpt>
      <trkpt lat="49.35862" lon="1.41529">
        <ele>53</ele>
        <time>2026-03-24T13:03:24.097Z</time>
      </trkpt>
      <trkpt lat="49.35856" lon="1.41536">
        <ele>53</ele>
        <time>2026-03-24T13:03:28.136Z</time>
      </trkpt>
      <trkpt lat="49.35852" lon="1.41539">
        <ele>53</ele>
        <time>2026-03-24T13:03:32.657Z</time>
      </trkpt>
      <trkpt lat="49.35848" lon="1.41545">
        <ele>53</ele>
        <time>2026-03-24T13:03:37.119Z</time>
      </trkpt>
      <trkpt lat="49.35845" lon="1.41552">
        <ele>55</ele>
        <time>2026-03-24T13:03:41.657Z</time>
      </trkpt>
      <trkpt lat="49.35844" lon="1.41561">
        <ele>55</ele>
        <time>2026-03-24T13:03:45.978Z</time>
      </trkpt>
      <trkpt lat="49.3584" lon="1.41568">
        <ele>55</ele>
        <time>2026-03-24T13:03:50.472Z</time>
      </trkpt>
      <trkpt lat="49.35836" lon="1.41575">
        <ele>54</ele>
        <time>2026-03-24T13:03:54.995Z</time>
      </trkpt>
      <trkpt lat="49.35833" lon="1.41583">
        <ele>54</ele>
        <time>2026-03-24T13:03:59.501Z</time>
      </trkpt>
      <trkpt lat="49.3583" lon="1.4159">
        <ele>54</ele>
        <time>2026-03-24T13:04:04.041Z</time>
      </trkpt>
      <trkpt lat="49.35826" lon="1.41598">
        <ele>54</ele>
        <time>2026-03-24T13:04:08.595Z</time>
      </trkpt>
      <trkpt lat="49.35824" lon="1.41603">
        <ele>54</ele>
        <time>2026-03-24T13:04:12.602Z</time>
      </trkpt>
      <trkpt lat="49.3582" lon="1.41609">
        <ele>54</ele>
        <time>2026-03-24T13:04:17.139Z</time>
      </trkpt>
      <trkpt lat="49.35817" lon="1.41616">
        <ele>56</ele>
        <time>2026-03-24T13:04:21.677Z</time>
      </trkpt>
      <trkpt lat="49.35813" lon="1.41622">
        <ele>56</ele>
        <time>2026-03-24T13:04:26.201Z</time>
      </trkpt>
      <trkpt lat="49.35809" lon="1.41628">
        <ele>56</ele>
        <time>2026-03-24T13:04:30.661Z</time>
      </trkpt>
      <trkpt lat="49.35805" lon="1.41635">
        <ele>56</ele>
        <time>2026-03-24T13:04:35.200Z</time>
      </trkpt>
      <trkpt lat="49.35802" lon="1.41641">
        <ele>56</ele>
        <time>2026-03-24T13:04:39.713Z</time>
      </trkpt>
      <trkpt lat="49.35798" lon="1.41647">
        <ele>56</ele>
        <time>2026-03-24T13:04:44.201Z</time>
      </trkpt>
      <trkpt lat="49.35797" lon="1.4165">
        <ele>56</ele>
        <time>2026-03-24T13:04:48.773Z</time>
      </trkpt>
      <trkpt lat="49.35792" lon="1.41659">
        <ele>56</ele>
        <time>2026-03-24T13:04:52.781Z</time>
      </trkpt>
      <trkpt lat="49.35788" lon="1.41666">
        <ele>58</ele>
        <time>2026-03-24T13:04:57.474Z</time>
      </trkpt>
      <trkpt lat="49.35785" lon="1.41672">
        <ele>58</ele>
        <time>2026-03-24T13:05:01.575Z</time>
      </trkpt>
      <trkpt lat="49.35781" lon="1.41678">
        <ele>58</ele>
        <time>2026-03-24T13:05:05.581Z</time>
      </trkpt>
      <trkpt lat="49.35777" lon="1.41683">
        <ele>58</ele>
        <time>2026-03-24T13:05:09.600Z</time>
      </trkpt>
      <trkpt lat="49.35773" lon="1.41688">
        <ele>58</ele>
        <time>2026-03-24T13:05:13.642Z</time>
      </trkpt>
      <trkpt lat="49.35769" lon="1.41693">
        <ele>58</ele>
        <time>2026-03-24T13:05:17.660Z</time>
      </trkpt>
      <trkpt lat="49.35767" lon="1.41697">
        <ele>58</ele>
        <time>2026-03-24T13:05:22.203Z</time>
      </trkpt>
      <trkpt lat="49.35762" lon="1.41704">
        <ele>60</ele>
        <time>2026-03-24T13:05:26.660Z</time>
      </trkpt>
      <trkpt lat="49.35758" lon="1.41711">
        <ele>59</ele>
        <time>2026-03-24T13:05:31.075Z</time>
      </trkpt>
      <trkpt lat="49.35754" lon="1.41717">
        <ele>59</ele>
        <time>2026-03-24T13:05:35.554Z</time>
      </trkpt>
      <trkpt lat="49.35749" lon="1.41722">
        <ele>59</ele>
        <time>2026-03-24T13:05:40.075Z</time>
      </trkpt>
      <trkpt lat="49.35745" lon="1.41728">
        <ele>59</ele>
        <time>2026-03-24T13:05:44.597Z</time>
      </trkpt>
      <trkpt lat="49.35742" lon="1.41734">
        <ele>59</ele>
        <time>2026-03-24T13:05:49.074Z</time>
      </trkpt>
      <trkpt lat="49.35737" lon="1.4174">
        <ele>58</ele>
        <time>2026-03-24T13:05:53.613Z</time>
      </trkpt>
      <trkpt lat="49.35733" lon="1.41747">
        <ele>58</ele>
        <time>2026-03-24T13:05:58.102Z</time>
      </trkpt>
      <trkpt lat="49.35732" lon="1.4175">
        <ele>58</ele>
        <time>2026-03-24T13:06:02.640Z</time>
      </trkpt>
      <trkpt lat="49.35727" lon="1.41753">
        <ele>58</ele>
        <time>2026-03-24T13:06:06.740Z</time>
      </trkpt>
      <trkpt lat="49.35726" lon="1.41758">
        <ele>58</ele>
        <time>2026-03-24T13:06:11.157Z</time>
      </trkpt>
      <trkpt lat="49.35727" lon="1.41767">
        <ele>57</ele>
        <time>2026-03-24T13:06:15.572Z</time>
      </trkpt>
      <trkpt lat="49.35727" lon="1.41776">
        <ele>57</ele>
        <time>2026-03-24T13:06:20.015Z</time>
      </trkpt>
      <trkpt lat="49.35725" lon="1.41784">
        <ele>57</ele>
        <time>2026-03-24T13:06:24.475Z</time>
      </trkpt>
      <trkpt lat="49.35721" lon="1.4179">
        <ele>57</ele>
        <time>2026-03-24T13:06:28.496Z</time>
      </trkpt>
      <trkpt lat="49.35719" lon="1.41792">
        <ele>55</ele>
        <time>2026-03-24T13:06:33.018Z</time>
      </trkpt>
      <trkpt lat="49.35713" lon="1.41798">
        <ele>55</ele>
        <time>2026-03-24T13:06:37.514Z</time>
      </trkpt>
      <trkpt lat="49.35709" lon="1.41803">
        <ele>55</ele>
        <time>2026-03-24T13:06:41.552Z</time>
      </trkpt>
      <trkpt lat="49.35704" lon="1.41805">
        <ele>58</ele>
        <time>2026-03-24T13:06:45.600Z</time>
      </trkpt>
      <trkpt lat="49.35699" lon="1.41809">
        <ele>58</ele>
        <time>2026-03-24T13:06:50.175Z</time>
      </trkpt>
      <trkpt lat="49.35695" lon="1.41814">
        <ele>58</ele>
        <time>2026-03-24T13:06:54.178Z</time>
      </trkpt>
      <trkpt lat="49.3569" lon="1.41819">
        <ele>58</ele>
        <time>2026-03-24T13:06:58.594Z</time>
      </trkpt>
      <trkpt lat="49.35687" lon="1.41825">
        <ele>56</ele>
        <time>2026-03-24T13:07:03.055Z</time>
      </trkpt>
      <trkpt lat="49.35683" lon="1.41831">
        <ele>56</ele>
        <time>2026-03-24T13:07:07.480Z</time>
      </trkpt>
      <trkpt lat="49.35679" lon="1.41836">
        <ele>59</ele>
        <time>2026-03-24T13:07:11.879Z</time>
      </trkpt>
      <trkpt lat="49.35674" lon="1.41842">
        <ele>59</ele>
        <time>2026-03-24T13:07:16.294Z</time>
      </trkpt>
      <trkpt lat="49.3567" lon="1.41848">
        <ele>57</ele>
        <time>2026-03-24T13:07:20.736Z</time>
      </trkpt>
      <trkpt lat="49.35666" lon="1.41853">
        <ele>57</ele>
        <time>2026-03-24T13:07:25.260Z</time>
      </trkpt>
      <trkpt lat="49.35662" lon="1.4186">
        <ele>57</ele>
        <time>2026-03-24T13:07:29.613Z</time>
      </trkpt>
      <trkpt lat="49.35658" lon="1.41865">
        <ele>57</ele>
        <time>2026-03-24T13:07:34.074Z</time>
      </trkpt>
      <trkpt lat="49.35654" lon="1.41871">
        <ele>57</ele>
        <time>2026-03-24T13:07:38.516Z</time>
      </trkpt>
      <trkpt lat="49.3565" lon="1.41876">
        <ele>56</ele>
        <time>2026-03-24T13:07:42.959Z</time>
      </trkpt>
      <trkpt lat="49.35646" lon="1.41882">
        <ele>56</ele>
        <time>2026-03-24T13:07:47.340Z</time>
      </trkpt>
      <trkpt lat="49.35642" lon="1.41887">
        <ele>56</ele>
        <time>2026-03-24T13:07:51.782Z</time>
      </trkpt>
      <trkpt lat="49.35638" lon="1.41893">
        <ele>56</ele>
        <time>2026-03-24T13:07:56.172Z</time>
      </trkpt>
      <trkpt lat="49.35634" lon="1.419">
        <ele>56</ele>
        <time>2026-03-24T13:08:00.615Z</time>
      </trkpt>
      <trkpt lat="49.35629" lon="1.41906">
        <ele>56</ele>
        <time>2026-03-24T13:08:05.040Z</time>
      </trkpt>
      <trkpt lat="49.35625" lon="1.4191">
        <ele>56</ele>
        <time>2026-03-24T13:08:09.456Z</time>
      </trkpt>
      <trkpt lat="49.3562" lon="1.41915">
        <ele>57</ele>
        <time>2026-03-24T13:08:13.901Z</time>
      </trkpt>
      <trkpt lat="49.35615" lon="1.41921">
        <ele>57</ele>
        <time>2026-03-24T13:08:18.332Z</time>
      </trkpt>
      <trkpt lat="49.35611" lon="1.41926">
        <ele>57</ele>
        <time>2026-03-24T13:08:22.757Z</time>
      </trkpt>
      <trkpt lat="49.35607" lon="1.41931">
        <ele>57</ele>
        <time>2026-03-24T13:08:27.156Z</time>
      </trkpt>
      <trkpt lat="49.35602" lon="1.41936">
        <ele>57</ele>
        <time>2026-03-24T13:08:31.554Z</time>
      </trkpt>
      <trkpt lat="49.35598" lon="1.41941">
        <ele>57</ele>
        <time>2026-03-24T13:08:35.918Z</time>
      </trkpt>
      <trkpt lat="49.35593" lon="1.41945">
        <ele>58</ele>
        <time>2026-03-24T13:08:40.414Z</time>
      </trkpt>
      <trkpt lat="49.35589" lon="1.4195">
        <ele>58</ele>
        <time>2026-03-24T13:08:44.781Z</time>
      </trkpt>
      <trkpt lat="49.35584" lon="1.41955">
        <ele>58</ele>
        <time>2026-03-24T13:08:49.334Z</time>
      </trkpt>
      <trkpt lat="49.3558" lon="1.41961">
        <ele>57</ele>
        <time>2026-03-24T13:08:53.794Z</time>
      </trkpt>
      <trkpt lat="49.35576" lon="1.41966">
        <ele>57</ele>
        <time>2026-03-24T13:08:58.236Z</time>
      </trkpt>
      <trkpt lat="49.35573" lon="1.41972">
        <ele>57</ele>
        <time>2026-03-24T13:09:02.715Z</time>
      </trkpt>
      <trkpt lat="49.35568" lon="1.41976">
        <ele>59</ele>
        <time>2026-03-24T13:09:07.218Z</time>
      </trkpt>
      <trkpt lat="49.35564" lon="1.41982">
        <ele>59</ele>
        <time>2026-03-24T13:09:11.713Z</time>
      </trkpt>
      <trkpt lat="49.35561" lon="1.41987">
        <ele>58</ele>
        <time>2026-03-24T13:09:16.112Z</time>
      </trkpt>
      <trkpt lat="49.35558" lon="1.41991">
        <ele>58</ele>
        <time>2026-03-24T13:09:20.615Z</time>
      </trkpt>
      <trkpt lat="49.35553" lon="1.41999">
        <ele>58</ele>
        <time>2026-03-24T13:09:25.062Z</time>
      </trkpt>
      <trkpt lat="49.3555" lon="1.42006">
        <ele>58</ele>
        <time>2026-03-24T13:09:29.553Z</time>
      </trkpt>
      <trkpt lat="49.35546" lon="1.42012">
        <ele>58</ele>
        <time>2026-03-24T13:09:34.016Z</time>
      </trkpt>
      <trkpt lat="49.35542" lon="1.42018">
        <ele>58</ele>
        <time>2026-03-24T13:09:38.456Z</time>
      </trkpt>
      <trkpt lat="49.35538" lon="1.42025">
        <ele>59</ele>
        <time>2026-03-24T13:09:42.960Z</time>
      </trkpt>
      <trkpt lat="49.35535" lon="1.42034">
        <ele>59</ele>
        <time>2026-03-24T13:09:47.394Z</time>
      </trkpt>
      <trkpt lat="49.35532" lon="1.4204">
        <ele>59</ele>
        <time>2026-03-24T13:09:51.494Z</time>
      </trkpt>
      <trkpt lat="49.35529" lon="1.42045">
        <ele>58</ele>
        <time>2026-03-24T13:09:55.497Z</time>
      </trkpt>
      <trkpt lat="49.35525" lon="1.42049">
        <ele>58</ele>
        <time>2026-03-24T13:09:59.939Z</time>
      </trkpt>
      <trkpt lat="49.35522" lon="1.42056">
        <ele>58</ele>
        <time>2026-03-24T13:10:04.435Z</time>
      </trkpt>
      <trkpt lat="49.3552" lon="1.42065">
        <ele>58</ele>
        <time>2026-03-24T13:10:08.957Z</time>
      </trkpt>
      <trkpt lat="49.35518" lon="1.42072">
        <ele>56</ele>
        <time>2026-03-24T13:10:12.978Z</time>
      </trkpt>
      <trkpt lat="49.35515" lon="1.42078">
        <ele>56</ele>
        <time>2026-03-24T13:10:17.516Z</time>
      </trkpt>
      <trkpt lat="49.35512" lon="1.42084">
        <ele>58</ele>
        <time>2026-03-24T13:10:22.056Z</time>
      </trkpt>
      <trkpt lat="49.35506" lon="1.42087">
        <ele>58</ele>
        <time>2026-03-24T13:10:26.560Z</time>
      </trkpt>
      <trkpt lat="49.35499" lon="1.42088">
        <ele>58</ele>
        <time>2026-03-24T13:10:31.054Z</time>
      </trkpt>
      <trkpt lat="49.35494" lon="1.42085">
        <ele>58</ele>
        <time>2026-03-24T13:10:35.199Z</time>
      </trkpt>
      <trkpt lat="49.3549" lon="1.42079">
        <ele>58</ele>
        <time>2026-03-24T13:10:39.615Z</time>
      </trkpt>
      <trkpt lat="49.35487" lon="1.42071">
        <ele>58</ele>
        <time>2026-03-24T13:10:44.077Z</time>
      </trkpt>
      <trkpt lat="49.35484" lon="1.42064">
        <ele>60</ele>
        <time>2026-03-24T13:10:48.333Z</time>
      </trkpt>
      <trkpt lat="49.35481" lon="1.42058">
        <ele>60</ele>
        <time>2026-03-24T13:10:52.715Z</time>
      </trkpt>
      <trkpt lat="49.35479" lon="1.42052">
        <ele>60</ele>
        <time>2026-03-24T13:10:57.060Z</time>
      </trkpt>
      <trkpt lat="49.35475" lon="1.42045">
        <ele>60</ele>
        <time>2026-03-24T13:11:01.397Z</time>
      </trkpt>
      <trkpt lat="49.35471" lon="1.42041">
        <ele>61</ele>
        <time>2026-03-24T13:11:05.576Z</time>
      </trkpt>
      <trkpt lat="49.35468" lon="1.42036">
        <ele>61</ele>
        <time>2026-03-24T13:11:09.782Z</time>
      </trkpt>
      <trkpt lat="49.35463" lon="1.42033">
        <ele>61</ele>
        <time>2026-03-24T13:11:14.154Z</time>
      </trkpt>
      <trkpt lat="49.35458" lon="1.42035">
        <ele>64</ele>
        <time>2026-03-24T13:11:18.535Z</time>
      </trkpt>
      <trkpt lat="49.35453" lon="1.42041">
        <ele>64</ele>
        <time>2026-03-24T13:11:22.782Z</time>
      </trkpt>
      <trkpt lat="49.35449" lon="1.42046">
        <ele>63</ele>
        <time>2026-03-24T13:11:27.236Z</time>
      </trkpt>
      <trkpt lat="49.35446" lon="1.42052">
        <ele>63</ele>
        <time>2026-03-24T13:11:31.476Z</time>
      </trkpt>
      <trkpt lat="49.35443" lon="1.42059">
        <ele>63</ele>
        <time>2026-03-24T13:11:35.595Z</time>
      </trkpt>
      <trkpt lat="49.35439" lon="1.42063">
        <ele>63</ele>
        <time>2026-03-24T13:11:39.766Z</time>
      </trkpt>
      <trkpt lat="49.35435" lon="1.42068">
        <ele>63</ele>
        <time>2026-03-24T13:11:43.935Z</time>
      </trkpt>
      <trkpt lat="49.35432" lon="1.42074">
        <ele>62</ele>
        <time>2026-03-24T13:11:48.052Z</time>
      </trkpt>
      <trkpt lat="49.35428" lon="1.42079">
        <ele>64</ele>
        <time>2026-03-24T13:11:52.181Z</time>
      </trkpt>
      <trkpt lat="49.35424" lon="1.42084">
        <ele>64</ele>
        <time>2026-03-24T13:11:56.314Z</time>
      </trkpt>
      <trkpt lat="49.3542" lon="1.42087">
        <ele>64</ele>
        <time>2026-03-24T13:12:00.335Z</time>
      </trkpt>
      <trkpt lat="49.35416" lon="1.42093">
        <ele>64</ele>
        <time>2026-03-24T13:12:04.782Z</time>
      </trkpt>
      <trkpt lat="49.35413" lon="1.42099">
        <ele>64</ele>
        <time>2026-03-24T13:12:08.956Z</time>
      </trkpt>
      <trkpt lat="49.35409" lon="1.42104">
        <ele>64</ele>
        <time>2026-03-24T13:12:12.978Z</time>
      </trkpt>
      <trkpt lat="49.35406" lon="1.4211">
        <ele>64</ele>
        <time>2026-03-24T13:12:17.016Z</time>
      </trkpt>
      <trkpt lat="49.35403" lon="1.42116">
        <ele>66</ele>
        <time>2026-03-24T13:12:21.519Z</time>
      </trkpt>
      <trkpt lat="49.35397" lon="1.42121">
        <ele>66</ele>
        <time>2026-03-24T13:12:25.920Z</time>
      </trkpt>
      <trkpt lat="49.35393" lon="1.42126">
        <ele>64</ele>
        <time>2026-03-24T13:12:30.300Z</time>
      </trkpt>
      <trkpt lat="49.35389" lon="1.42131">
        <ele>64</ele>
        <time>2026-03-24T13:12:34.340Z</time>
      </trkpt>
      <trkpt lat="49.35388" lon="1.42135">
        <ele>64</ele>
        <time>2026-03-24T13:12:38.781Z</time>
      </trkpt>
      <trkpt lat="49.35391" lon="1.4213">
        <ele>64</ele>
        <time>2026-03-24T13:12:43.780Z</time>
      </trkpt>
      <trkpt lat="49.3539" lon="1.42136">
        <ele>64</ele>
        <time>2026-03-24T13:12:48.175Z</time>
      </trkpt>
      <trkpt lat="49.35386" lon="1.42143">
        <ele>64</ele>
        <time>2026-03-24T13:12:52.557Z</time>
      </trkpt>
      <trkpt lat="49.3538" lon="1.42147">
        <ele>64</ele>
        <time>2026-03-24T13:12:56.921Z</time>
      </trkpt>
      <trkpt lat="49.35375" lon="1.42151">
        <ele>64</ele>
        <time>2026-03-24T13:13:01.398Z</time>
      </trkpt>
      <trkpt lat="49.3537" lon="1.42157">
        <ele>62</ele>
        <time>2026-03-24T13:13:05.780Z</time>
      </trkpt>
      <trkpt lat="49.35365" lon="1.42161">
        <ele>62</ele>
        <time>2026-03-24T13:13:10.494Z</time>
      </trkpt>
      <trkpt lat="49.3536" lon="1.42166">
        <ele>62</ele>
        <time>2026-03-24T13:13:14.935Z</time>
      </trkpt>
      <trkpt lat="49.35355" lon="1.42171">
        <ele>62</ele>
        <time>2026-03-24T13:13:19.334Z</time>
      </trkpt>
      <trkpt lat="49.35351" lon="1.42178">
        <ele>62</ele>
        <time>2026-03-24T13:13:23.772Z</time>
      </trkpt>
      <trkpt lat="49.35346" lon="1.42184">
        <ele>60</ele>
        <time>2026-03-24T13:13:28.220Z</time>
      </trkpt>
      <trkpt lat="49.35342" lon="1.42188">
        <ele>60</ele>
        <time>2026-03-24T13:13:32.653Z</time>
      </trkpt>
      <trkpt lat="49.35338" lon="1.42194">
        <ele>60</ele>
        <time>2026-03-24T13:13:37.191Z</time>
      </trkpt>
      <trkpt lat="49.35334" lon="1.422">
        <ele>60</ele>
        <time>2026-03-24T13:13:41.602Z</time>
      </trkpt>
      <trkpt lat="49.3533" lon="1.42204">
        <ele>60</ele>
        <time>2026-03-24T13:13:45.781Z</time>
      </trkpt>
      <trkpt lat="49.35326" lon="1.42206">
        <ele>60</ele>
        <time>2026-03-24T13:13:50.098Z</time>
      </trkpt>
      <trkpt lat="49.35323" lon="1.42209">
        <ele>60</ele>
        <time>2026-03-24T13:13:54.198Z</time>
      </trkpt>
      <trkpt lat="49.35319" lon="1.42213">
        <ele>61</ele>
        <time>2026-03-24T13:13:58.658Z</time>
      </trkpt>
      <trkpt lat="49.35314" lon="1.4222">
        <ele>61</ele>
        <time>2026-03-24T13:14:02.781Z</time>
      </trkpt>
      <trkpt lat="49.3531" lon="1.42225">
        <ele>61</ele>
        <time>2026-03-24T13:14:07.455Z</time>
      </trkpt>
      <trkpt lat="49.35305" lon="1.4223">
        <ele>61</ele>
        <time>2026-03-24T13:14:11.652Z</time>
      </trkpt>
      <trkpt lat="49.35302" lon="1.42236">
        <ele>61</ele>
        <time>2026-03-24T13:14:15.780Z</time>
      </trkpt>
      <trkpt lat="49.35298" lon="1.42241">
        <ele>61</ele>
        <time>2026-03-24T13:14:20.178Z</time>
      </trkpt>
      <trkpt lat="49.35293" lon="1.42244">
        <ele>61</ele>
        <time>2026-03-24T13:14:24.356Z</time>
      </trkpt>
      <trkpt lat="49.3529" lon="1.42245">
        <ele>63</ele>
        <time>2026-03-24T13:14:28.264Z</time>
      </trkpt>
      <trkpt lat="49.35289" lon="1.42246">
        <ele>63</ele>
        <time>2026-03-24T13:14:32.776Z</time>
      </trkpt>
      <trkpt lat="49.35289" lon="1.42254">
        <ele>63</ele>
        <time>2026-03-24T13:14:37.219Z</time>
      </trkpt>
      <trkpt lat="49.3529" lon="1.42259">
        <ele>63</ele>
        <time>2026-03-24T13:14:41.780Z</time>
      </trkpt>
      <trkpt lat="49.35288" lon="1.42261">
        <ele>63</ele>
        <time>2026-03-24T13:16:55.093Z</time>
      </trkpt>
      <trkpt lat="49.35285" lon="1.42268">
        <ele>63</ele>
        <time>2026-03-24T13:16:59.237Z</time>
      </trkpt>
      <trkpt lat="49.35283" lon="1.42276">
        <ele>63</ele>
        <time>2026-03-24T13:17:03.402Z</time>
      </trkpt>
      <trkpt lat="49.35281" lon="1.42283">
        <ele>63</ele>
        <time>2026-03-24T13:17:07.534Z</time>
      </trkpt>
      <trkpt lat="49.35279" lon="1.42289">
        <ele>63</ele>
        <time>2026-03-24T13:17:11.634Z</time>
      </trkpt>
      <trkpt lat="49.35277" lon="1.42297">
        <ele>62</ele>
        <time>2026-03-24T13:17:15.780Z</time>
      </trkpt>
      <trkpt lat="49.35275" lon="1.42303">
        <ele>62</ele>
        <time>2026-03-24T13:17:20.413Z</time>
      </trkpt>
      <trkpt lat="49.35272" lon="1.4231">
        <ele>62</ele>
        <time>2026-03-24T13:17:24.434Z</time>
      </trkpt>
      <trkpt lat="49.35268" lon="1.42316">
        <ele>62</ele>
        <time>2026-03-24T13:17:28.534Z</time>
      </trkpt>
      <trkpt lat="49.35266" lon="1.42323">
        <ele>61</ele>
        <time>2026-03-24T13:17:32.617Z</time>
      </trkpt>
      <trkpt lat="49.35265" lon="1.42331">
        <ele>61</ele>
        <time>2026-03-24T13:17:36.672Z</time>
      </trkpt>
      <trkpt lat="49.35264" lon="1.42338">
        <ele>64</ele>
        <time>2026-03-24T13:17:40.780Z</time>
      </trkpt>
      <trkpt lat="49.35261" lon="1.42345">
        <ele>64</ele>
        <time>2026-03-24T13:17:44.951Z</time>
      </trkpt>
      <trkpt lat="49.35259" lon="1.4235">
        <ele>62</ele>
        <time>2026-03-24T13:17:49Z</time>
      </trkpt>
      <trkpt lat="49.35256" lon="1.42357">
        <ele>62</ele>
        <time>2026-03-24T13:17:53.151Z</time>
      </trkpt>
      <trkpt lat="49.35254" lon="1.42363">
        <ele>62</ele>
        <time>2026-03-24T13:17:57.234Z</time>
      </trkpt>
      <trkpt lat="49.35251" lon="1.4237">
        <ele>62</ele>
        <time>2026-03-24T13:18:01.457Z</time>
      </trkpt>
      <trkpt lat="49.35249" lon="1.42377">
        <ele>61</ele>
        <time>2026-03-24T13:18:05.541Z</time>
      </trkpt>
      <trkpt lat="49.35247" lon="1.42384">
        <ele>61</ele>
        <time>2026-03-24T13:18:09.641Z</time>
      </trkpt>
      <trkpt lat="49.35246" lon="1.4239">
        <ele>61</ele>
        <time>2026-03-24T13:18:13.780Z</time>
      </trkpt>
      <trkpt lat="49.35244" lon="1.42397">
        <ele>61</ele>
        <time>2026-03-24T13:18:18.060Z</time>
      </trkpt>
      <trkpt lat="49.35242" lon="1.42404">
        <ele>59</ele>
        <time>2026-03-24T13:18:22.220Z</time>
      </trkpt>
      <trkpt lat="49.35239" lon="1.4241">
        <ele>59</ele>
        <time>2026-03-24T13:18:26.400Z</time>
      </trkpt>
      <trkpt lat="49.35237" lon="1.42416">
        <ele>59</ele>
        <time>2026-03-24T13:18:30.473Z</time>
      </trkpt>
      <trkpt lat="49.35235" lon="1.42423">
        <ele>60</ele>
        <time>2026-03-24T13:18:34.695Z</time>
      </trkpt>
      <trkpt lat="49.35233" lon="1.42429">
        <ele>60</ele>
        <time>2026-03-24T13:18:38.781Z</time>
      </trkpt>
      <trkpt lat="49.35231" lon="1.42435">
        <ele>59</ele>
        <time>2026-03-24T13:18:43.054Z</time>
      </trkpt>
      <trkpt lat="49.35228" lon="1.42442">
        <ele>59</ele>
        <time>2026-03-24T13:18:47.260Z</time>
      </trkpt>
      <trkpt lat="49.35226" lon="1.42449">
        <ele>59</ele>
        <time>2026-03-24T13:18:51.455Z</time>
      </trkpt>
      <trkpt lat="49.35224" lon="1.42455">
        <ele>59</ele>
        <time>2026-03-24T13:18:55.634Z</time>
      </trkpt>
      <trkpt lat="49.35222" lon="1.42462">
        <ele>58</ele>
        <time>2026-03-24T13:18:59.920Z</time>
      </trkpt>
      <trkpt lat="49.3522" lon="1.42468">
        <ele>58</ele>
        <time>2026-03-24T13:19:04.098Z</time>
      </trkpt>
      <trkpt lat="49.35218" lon="1.42475">
        <ele>58</ele>
        <time>2026-03-24T13:19:08.295Z</time>
      </trkpt>
      <trkpt lat="49.35215" lon="1.42481">
        <ele>58</ele>
        <time>2026-03-24T13:19:12.517Z</time>
      </trkpt>
      <trkpt lat="49.35213" lon="1.42488">
        <ele>58</ele>
        <time>2026-03-24T13:19:16.696Z</time>
      </trkpt>
      <trkpt lat="49.35211" lon="1.42494">
        <ele>58</ele>
        <time>2026-03-24T13:19:20.781Z</time>
      </trkpt>
      <trkpt lat="49.35209" lon="1.42501">
        <ele>58</ele>
        <time>2026-03-24T13:19:24.957Z</time>
      </trkpt>
      <trkpt lat="49.35206" lon="1.42507">
        <ele>62</ele>
        <time>2026-03-24T13:19:29.136Z</time>
      </trkpt>
      <trkpt lat="49.35204" lon="1.42514">
        <ele>61</ele>
        <time>2026-03-24T13:19:33.157Z</time>
      </trkpt>
      <trkpt lat="49.35202" lon="1.42521">
        <ele>61</ele>
        <time>2026-03-24T13:19:37.398Z</time>
      </trkpt>
      <trkpt lat="49.352" lon="1.42528">
        <ele>61</ele>
        <time>2026-03-24T13:19:41.594Z</time>
      </trkpt>
      <trkpt lat="49.35198" lon="1.42535">
        <ele>61</ele>
        <time>2026-03-24T13:19:45.741Z</time>
      </trkpt>
      <trkpt lat="49.35195" lon="1.42542">
        <ele>60</ele>
        <time>2026-03-24T13:19:49.781Z</time>
      </trkpt>
      <trkpt lat="49.35193" lon="1.42548">
        <ele>60</ele>
        <time>2026-03-24T13:19:54.053Z</time>
      </trkpt>
      <trkpt lat="49.3519" lon="1.42555">
        <ele>60</ele>
        <time>2026-03-24T13:19:58.275Z</time>
      </trkpt>
      <trkpt lat="49.35188" lon="1.42562">
        <ele>60</ele>
        <time>2026-03-24T13:20:02.455Z</time>
      </trkpt>
      <trkpt lat="49.35186" lon="1.42569">
        <ele>60</ele>
        <time>2026-03-24T13:20:06.633Z</time>
      </trkpt>
      <trkpt lat="49.35184" lon="1.42576">
        <ele>58</ele>
        <time>2026-03-24T13:20:10.901Z</time>
      </trkpt>
      <trkpt lat="49.35182" lon="1.42583">
        <ele>58</ele>
        <time>2026-03-24T13:20:15.080Z</time>
      </trkpt>
      <trkpt lat="49.35179" lon="1.42589">
        <ele>61</ele>
        <time>2026-03-24T13:20:19.214Z</time>
      </trkpt>
      <trkpt lat="49.35177" lon="1.42596">
        <ele>61</ele>
        <time>2026-03-24T13:20:23.473Z</time>
      </trkpt>
      <trkpt lat="49.35175" lon="1.42603">
        <ele>60</ele>
        <time>2026-03-24T13:20:27.677Z</time>
      </trkpt>
      <trkpt lat="49.35173" lon="1.42611">
        <ele>60</ele>
        <time>2026-03-24T13:20:31.980Z</time>
      </trkpt>
      <trkpt lat="49.35171" lon="1.42617">
        <ele>60</ele>
        <time>2026-03-24T13:20:36.115Z</time>
      </trkpt>
      <trkpt lat="49.35169" lon="1.42624">
        <ele>60</ele>
        <time>2026-03-24T13:20:40.372Z</time>
      </trkpt>
      <trkpt lat="49.35167" lon="1.42631">
        <ele>59</ele>
        <time>2026-03-24T13:20:44.657Z</time>
      </trkpt>
      <trkpt lat="49.35164" lon="1.42637">
        <ele>59</ele>
        <time>2026-03-24T13:20:48.780Z</time>
      </trkpt>
      <trkpt lat="49.35163" lon="1.42644">
        <ele>59</ele>
        <time>2026-03-24T13:20:53.015Z</time>
      </trkpt>
      <trkpt lat="49.35161" lon="1.42651">
        <ele>59</ele>
        <time>2026-03-24T13:20:57.334Z</time>
      </trkpt>
      <trkpt lat="49.35158" lon="1.42658">
        <ele>58</ele>
        <time>2026-03-24T13:21:01.513Z</time>
      </trkpt>
      <trkpt lat="49.35157" lon="1.42665">
        <ele>58</ele>
        <time>2026-03-24T13:21:05.763Z</time>
      </trkpt>
      <trkpt lat="49.35155" lon="1.42672">
        <ele>58</ele>
        <time>2026-03-24T13:21:09.994Z</time>
      </trkpt>
      <trkpt lat="49.35152" lon="1.4268">
        <ele>62</ele>
        <time>2026-03-24T13:21:14.173Z</time>
      </trkpt>
      <trkpt lat="49.3515" lon="1.42686">
        <ele>61</ele>
        <time>2026-03-24T13:21:18.414Z</time>
      </trkpt>
      <trkpt lat="49.35148" lon="1.42692">
        <ele>61</ele>
        <time>2026-03-24T13:21:22.620Z</time>
      </trkpt>
      <trkpt lat="49.35146" lon="1.42699">
        <ele>61</ele>
        <time>2026-03-24T13:21:26.780Z</time>
      </trkpt>
      <trkpt lat="49.35144" lon="1.42707">
        <ele>61</ele>
        <time>2026-03-24T13:21:31.794Z</time>
      </trkpt>
      <trkpt lat="49.35142" lon="1.42713">
        <ele>60</ele>
        <time>2026-03-24T13:21:36.034Z</time>
      </trkpt>
      <trkpt lat="49.3514" lon="1.4272">
        <ele>60</ele>
        <time>2026-03-24T13:21:40.335Z</time>
      </trkpt>
      <trkpt lat="49.35138" lon="1.42727">
        <ele>60</ele>
        <time>2026-03-24T13:21:44.594Z</time>
      </trkpt>
      <trkpt lat="49.35136" lon="1.42733">
        <ele>60</ele>
        <time>2026-03-24T13:21:48.957Z</time>
      </trkpt>
      <trkpt lat="49.35134" lon="1.42741">
        <ele>59</ele>
        <time>2026-03-24T13:21:53.355Z</time>
      </trkpt>
      <trkpt lat="49.35131" lon="1.42747">
        <ele>59</ele>
        <time>2026-03-24T13:21:57.675Z</time>
      </trkpt>
      <trkpt lat="49.35129" lon="1.42754">
        <ele>59</ele>
        <time>2026-03-24T13:22:01.780Z</time>
      </trkpt>
      <trkpt lat="49.35127" lon="1.4276">
        <ele>59</ele>
        <time>2026-03-24T13:22:06.061Z</time>
      </trkpt>
      <trkpt lat="49.35125" lon="1.42767">
        <ele>58</ele>
        <time>2026-03-24T13:22:10.212Z</time>
      </trkpt>
      <trkpt lat="49.35123" lon="1.42774">
        <ele>64</ele>
        <time>2026-03-24T13:22:14.340Z</time>
      </trkpt>
      <trkpt lat="49.35121" lon="1.4278">
        <ele>64</ele>
        <time>2026-03-24T13:22:18.361Z</time>
      </trkpt>
      <trkpt lat="49.35118" lon="1.42787">
        <ele>64</ele>
        <time>2026-03-24T13:22:22.461Z</time>
      </trkpt>
      <trkpt lat="49.35116" lon="1.42794">
        <ele>63</ele>
        <time>2026-03-24T13:22:26.780Z</time>
      </trkpt>
      <trkpt lat="49.35115" lon="1.42801">
        <ele>63</ele>
        <time>2026-03-24T13:22:30.975Z</time>
      </trkpt>
      <trkpt lat="49.35113" lon="1.42808">
        <ele>63</ele>
        <time>2026-03-24T13:22:35.540Z</time>
      </trkpt>
      <trkpt lat="49.3511" lon="1.42814">
        <ele>63</ele>
        <time>2026-03-24T13:22:39.779Z</time>
      </trkpt>
      <trkpt lat="49.35109" lon="1.42821">
        <ele>63</ele>
        <time>2026-03-24T13:22:44.102Z</time>
      </trkpt>
      <trkpt lat="49.35107" lon="1.42829">
        <ele>63</ele>
        <time>2026-03-24T13:22:48.235Z</time>
      </trkpt>
      <trkpt lat="49.35105" lon="1.42836">
        <ele>63</ele>
        <time>2026-03-24T13:22:52.458Z</time>
      </trkpt>
      <trkpt lat="49.35102" lon="1.42843">
        <ele>63</ele>
        <time>2026-03-24T13:22:56.700Z</time>
      </trkpt>
      <trkpt lat="49.351" lon="1.4285">
        <ele>63</ele>
        <time>2026-03-24T13:23:01.035Z</time>
      </trkpt>
      <trkpt lat="49.35098" lon="1.42857">
        <ele>63</ele>
        <time>2026-03-24T13:23:05.260Z</time>
      </trkpt>
      <trkpt lat="49.35096" lon="1.42864">
        <ele>70</ele>
        <time>2026-03-24T13:23:09.595Z</time>
      </trkpt>
      <trkpt lat="49.35094" lon="1.42871">
        <ele>70</ele>
        <time>2026-03-24T13:23:13.720Z</time>
      </trkpt>
      <trkpt lat="49.35092" lon="1.42878">
        <ele>70</ele>
        <time>2026-03-24T13:23:18.076Z</time>
      </trkpt>
      <trkpt lat="49.3509" lon="1.42885">
        <ele>70</ele>
        <time>2026-03-24T13:23:22.316Z</time>
      </trkpt>
      <trkpt lat="49.35088" lon="1.42892">
        <ele>70</ele>
        <time>2026-03-24T13:23:26.513Z</time>
      </trkpt>
      <trkpt lat="49.35087" lon="1.42899">
        <ele>70</ele>
        <time>2026-03-24T13:23:30.674Z</time>
      </trkpt>
      <trkpt lat="49.35085" lon="1.42906">
        <ele>68</ele>
        <time>2026-03-24T13:23:34.779Z</time>
      </trkpt>
      <trkpt lat="49.35084" lon="1.42913">
        <ele>68</ele>
        <time>2026-03-24T13:23:38.936Z</time>
      </trkpt>
      <trkpt lat="49.35082" lon="1.42921">
        <ele>68</ele>
        <time>2026-03-24T13:23:43.097Z</time>
      </trkpt>
      <trkpt lat="49.3508" lon="1.42928">
        <ele>68</ele>
        <time>2026-03-24T13:23:47.136Z</time>
      </trkpt>
      <trkpt lat="49.35079" lon="1.42936">
        <ele>66</ele>
        <time>2026-03-24T13:23:51.217Z</time>
      </trkpt>
      <trkpt lat="49.35079" lon="1.42943">
        <ele>66</ele>
        <time>2026-03-24T13:23:55.240Z</time>
      </trkpt>
      <trkpt lat="49.35078" lon="1.42951">
        <ele>66</ele>
        <time>2026-03-24T13:23:59.294Z</time>
      </trkpt>
      <trkpt lat="49.35077" lon="1.42956">
        <ele>66</ele>
        <time>2026-03-24T13:24:03.360Z</time>
      </trkpt>
      <trkpt lat="49.35076" lon="1.42963">
        <ele>64</ele>
        <time>2026-03-24T13:24:07.512Z</time>
      </trkpt>
      <trkpt lat="49.35074" lon="1.4297">
        <ele>64</ele>
        <time>2026-03-24T13:24:11.641Z</time>
      </trkpt>
      <trkpt lat="49.35073" lon="1.42977">
        <ele>64</ele>
        <time>2026-03-24T13:24:15.779Z</time>
      </trkpt>
      <trkpt lat="49.35071" lon="1.42985">
        <ele>64</ele>
        <time>2026-03-24T13:24:19.953Z</time>
      </trkpt>
      <trkpt lat="49.35069" lon="1.42991">
        <ele>74</ele>
        <time>2026-03-24T13:24:24.079Z</time>
      </trkpt>
      <trkpt lat="49.35067" lon="1.42999">
        <ele>74</ele>
        <time>2026-03-24T13:24:28.293Z</time>
      </trkpt>
      <trkpt lat="49.35066" lon="1.43005">
        <ele>74</ele>
        <time>2026-03-24T13:24:32.393Z</time>
      </trkpt>
      <trkpt lat="49.35065" lon="1.43013">
        <ele>74</ele>
        <time>2026-03-24T13:24:36.475Z</time>
      </trkpt>
      <trkpt lat="49.35062" lon="1.4302">
        <ele>72</ele>
        <time>2026-03-24T13:24:40.592Z</time>
      </trkpt>
      <trkpt lat="49.35061" lon="1.43028">
        <ele>72</ele>
        <time>2026-03-24T13:24:44.736Z</time>
      </trkpt>
      <trkpt lat="49.35059" lon="1.43034">
        <ele>72</ele>
        <time>2026-03-24T13:24:48.779Z</time>
      </trkpt>
      <trkpt lat="49.35057" lon="1.43041">
        <ele>72</ele>
        <time>2026-03-24T13:24:52.892Z</time>
      </trkpt>
      <trkpt lat="49.35055" lon="1.43048">
        <ele>70</ele>
        <time>2026-03-24T13:24:57.054Z</time>
      </trkpt>
      <trkpt lat="49.35053" lon="1.43055">
        <ele>70</ele>
        <time>2026-03-24T13:25:01.181Z</time>
      </trkpt>
      <trkpt lat="49.35051" lon="1.43062">
        <ele>70</ele>
        <time>2026-03-24T13:25:05.254Z</time>
      </trkpt>
      <trkpt lat="49.35049" lon="1.43067">
        <ele>70</ele>
        <time>2026-03-24T13:25:09.398Z</time>
      </trkpt>
      <trkpt lat="49.35047" lon="1.43074">
        <ele>68</ele>
        <time>2026-03-24T13:25:13.454Z</time>
      </trkpt>
      <trkpt lat="49.35045" lon="1.43081">
        <ele>68</ele>
        <time>2026-03-24T13:25:17.535Z</time>
      </trkpt>
      <trkpt lat="49.35043" lon="1.43088">
        <ele>68</ele>
        <time>2026-03-24T13:25:21.574Z</time>
      </trkpt>
      <trkpt lat="49.35041" lon="1.43096">
        <ele>80</ele>
        <time>2026-03-24T13:25:26.114Z</time>
      </trkpt>
      <trkpt lat="49.35039" lon="1.43104">
        <ele>78</ele>
        <time>2026-03-24T13:25:30.635Z</time>
      </trkpt>
      <trkpt lat="49.35037" lon="1.4311">
        <ele>78</ele>
        <time>2026-03-24T13:25:34.655Z</time>
      </trkpt>
      <trkpt lat="49.3503" lon="1.43121">
        <ele>78</ele>
        <time>2026-03-24T13:25:47.779Z</time>
      </trkpt>
      <trkpt lat="49.3503" lon="1.4312">
        <ele>78</ele>
        <time>2026-03-24T13:25:53.780Z</time>
      </trkpt>
      <trkpt lat="49.3503" lon="1.4312">
        <ele>78</ele>
        <time>2026-03-24T13:25:58.780Z</time>
      </trkpt>
      <trkpt lat="49.35029" lon="1.43129">
        <ele>74</ele>
        <time>2026-03-24T13:26:02.960Z</time>
      </trkpt>
      <trkpt lat="49.35028" lon="1.43138">
        <ele>74</ele>
        <time>2026-03-24T13:26:07.218Z</time>
      </trkpt>
      <trkpt lat="49.35026" lon="1.43144">
        <ele>74</ele>
        <time>2026-03-24T13:26:11.318Z</time>
      </trkpt>
      <trkpt lat="49.35026" lon="1.43151">
        <ele>74</ele>
        <time>2026-03-24T13:26:15.340Z</time>
      </trkpt>
      <trkpt lat="49.35025" lon="1.43159">
        <ele>71</ele>
        <time>2026-03-24T13:26:19.440Z</time>
      </trkpt>
      <trkpt lat="49.35023" lon="1.43167">
        <ele>71</ele>
        <time>2026-03-24T13:26:23.714Z</time>
      </trkpt>
      <trkpt lat="49.35022" lon="1.43173">
        <ele>71</ele>
        <time>2026-03-24T13:26:27.972Z</time>
      </trkpt>
      <trkpt lat="49.35021" lon="1.4318">
        <ele>71</ele>
        <time>2026-03-24T13:26:32.134Z</time>
      </trkpt>
      <trkpt lat="49.35018" lon="1.43187">
        <ele>68</ele>
        <time>2026-03-24T13:26:36.260Z</time>
      </trkpt>
      <trkpt lat="49.35017" lon="1.43194">
        <ele>68</ele>
        <time>2026-03-24T13:26:40.334Z</time>
      </trkpt>
      <trkpt lat="49.35015" lon="1.43202">
        <ele>68</ele>
        <time>2026-03-24T13:26:44.372Z</time>
      </trkpt>
      <trkpt lat="49.35014" lon="1.43209">
        <ele>78</ele>
        <time>2026-03-24T13:26:48.420Z</time>
      </trkpt>
      <trkpt lat="49.35012" lon="1.43216">
        <ele>78</ele>
        <time>2026-03-24T13:26:52.475Z</time>
      </trkpt>
      <trkpt lat="49.35011" lon="1.43224">
        <ele>78</ele>
        <time>2026-03-24T13:26:56.479Z</time>
      </trkpt>
      <trkpt lat="49.35011" lon="1.43231">
        <ele>78</ele>
        <time>2026-03-24T13:27:00.534Z</time>
      </trkpt>
      <trkpt lat="49.3501" lon="1.43239">
        <ele>75</ele>
        <time>2026-03-24T13:27:04.573Z</time>
      </trkpt>
      <trkpt lat="49.3501" lon="1.43248">
        <ele>75</ele>
        <time>2026-03-24T13:27:09.111Z</time>
      </trkpt>
      <trkpt lat="49.35008" lon="1.43255">
        <ele>75</ele>
        <time>2026-03-24T13:27:13.160Z</time>
      </trkpt>
      <trkpt lat="49.35007" lon="1.43264">
        <ele>75</ele>
        <time>2026-03-24T13:27:17.759Z</time>
      </trkpt>
      <trkpt lat="49.35006" lon="1.43272">
        <ele>74</ele>
        <time>2026-03-24T13:27:22.315Z</time>
      </trkpt>
      <trkpt lat="49.35005" lon="1.4328">
        <ele>74</ele>
        <time>2026-03-24T13:27:26.321Z</time>
      </trkpt>
      <trkpt lat="49.35004" lon="1.43286">
        <ele>74</ele>
        <time>2026-03-24T13:27:30.393Z</time>
      </trkpt>
      <trkpt lat="49.35004" lon="1.43294">
        <ele>72</ele>
        <time>2026-03-24T13:27:34.457Z</time>
      </trkpt>
      <trkpt lat="49.35003" lon="1.43303">
        <ele>72</ele>
        <time>2026-03-24T13:27:38.952Z</time>
      </trkpt>
      <trkpt lat="49.35002" lon="1.43311">
        <ele>72</ele>
        <time>2026-03-24T13:27:43.500Z</time>
      </trkpt>
      <trkpt lat="49.35002" lon="1.43319">
        <ele>72</ele>
        <time>2026-03-24T13:27:47.555Z</time>
      </trkpt>
      <trkpt lat="49.35001" lon="1.43326">
        <ele>72</ele>
        <time>2026-03-24T13:27:51.561Z</time>
      </trkpt>
      <trkpt lat="49.35002" lon="1.43334">
        <ele>72</ele>
        <time>2026-03-24T13:27:55.694Z</time>
      </trkpt>
      <trkpt lat="49.35001" lon="1.43341">
        <ele>72</ele>
        <time>2026-03-24T13:27:59.777Z</time>
      </trkpt>
      <trkpt lat="49.35001" lon="1.43348">
        <ele>71</ele>
        <time>2026-03-24T13:28:04Z</time>
      </trkpt>
      <trkpt lat="49.35001" lon="1.43355">
        <ele>71</ele>
        <time>2026-03-24T13:28:08.240Z</time>
      </trkpt>
      <trkpt lat="49.35" lon="1.43363">
        <ele>71</ele>
        <time>2026-03-24T13:28:12.594Z</time>
      </trkpt>
      <trkpt lat="49.34999" lon="1.4337">
        <ele>71</ele>
        <time>2026-03-24T13:28:16.779Z</time>
      </trkpt>
      <trkpt lat="49.34999" lon="1.43377">
        <ele>71</ele>
        <time>2026-03-24T13:28:20.980Z</time>
      </trkpt>
      <trkpt lat="49.34999" lon="1.43385">
        <ele>71</ele>
        <time>2026-03-24T13:28:25.280Z</time>
      </trkpt>
      <trkpt lat="49.34998" lon="1.43392">
        <ele>71</ele>
        <time>2026-03-24T13:28:29.794Z</time>
      </trkpt>
      <trkpt lat="49.34998" lon="1.434">
        <ele>71</ele>
        <time>2026-03-24T13:28:34.235Z</time>
      </trkpt>
      <trkpt lat="49.34997" lon="1.43408">
        <ele>72</ele>
        <time>2026-03-24T13:28:38.774Z</time>
      </trkpt>
      <trkpt lat="49.34996" lon="1.43416">
        <ele>72</ele>
        <time>2026-03-24T13:28:43.216Z</time>
      </trkpt>
      <trkpt lat="49.34996" lon="1.43423">
        <ele>72</ele>
        <time>2026-03-24T13:28:47.772Z</time>
      </trkpt>
      <trkpt lat="49.34994" lon="1.43429">
        <ele>72</ele>
        <time>2026-03-24T13:28:52.355Z</time>
      </trkpt>
      <trkpt lat="49.34993" lon="1.43436">
        <ele>73</ele>
        <time>2026-03-24T13:28:56.780Z</time>
      </trkpt>
      <trkpt lat="49.34991" lon="1.43441">
        <ele>73</ele>
        <time>2026-03-24T13:29:01.512Z</time>
      </trkpt>
      <trkpt lat="49.3499" lon="1.43449">
        <ele>73</ele>
        <time>2026-03-24T13:29:06.077Z</time>
      </trkpt>
      <trkpt lat="49.3499" lon="1.43456">
        <ele>73</ele>
        <time>2026-03-24T13:29:10.492Z</time>
      </trkpt>
      <trkpt lat="49.34988" lon="1.43464">
        <ele>75</ele>
        <time>2026-03-24T13:29:14.981Z</time>
      </trkpt>
      <trkpt lat="49.34988" lon="1.43471">
        <ele>75</ele>
        <time>2026-03-24T13:29:19.474Z</time>
      </trkpt>
      <trkpt lat="49.34986" lon="1.43478">
        <ele>75</ele>
        <time>2026-03-24T13:29:23.780Z</time>
      </trkpt>
      <trkpt lat="49.34985" lon="1.43485">
        <ele>78</ele>
        <time>2026-03-24T13:29:28.298Z</time>
      </trkpt>
      <trkpt lat="49.34983" lon="1.43493">
        <ele>77</ele>
        <time>2026-03-24T13:29:32.634Z</time>
      </trkpt>
      <trkpt lat="49.34981" lon="1.43499">
        <ele>77</ele>
        <time>2026-03-24T13:29:36.779Z</time>
      </trkpt>
      <trkpt lat="49.34979" lon="1.43505">
        <ele>77</ele>
        <time>2026-03-24T13:29:41.177Z</time>
      </trkpt>
      <trkpt lat="49.34977" lon="1.43511">
        <ele>77</ele>
        <time>2026-03-24T13:29:45.355Z</time>
      </trkpt>
      <trkpt lat="49.34974" lon="1.43517">
        <ele>77</ele>
        <time>2026-03-24T13:29:49.613Z</time>
      </trkpt>
      <trkpt lat="49.34971" lon="1.43523">
        <ele>77</ele>
        <time>2026-03-24T13:29:53.780Z</time>
      </trkpt>
      <trkpt lat="49.34969" lon="1.43529">
        <ele>77</ele>
        <time>2026-03-24T13:29:58.059Z</time>
      </trkpt>
      <trkpt lat="49.34966" lon="1.43535">
        <ele>77</ele>
        <time>2026-03-24T13:30:02.441Z</time>
      </trkpt>
      <trkpt lat="49.34961" lon="1.43538">
        <ele>77</ele>
        <time>2026-03-24T13:30:07.780Z</time>
      </trkpt>
      <trkpt lat="49.34958" lon="1.4354">
        <ele>77</ele>
        <time>2026-03-24T13:30:16.478Z</time>
      </trkpt>
      <trkpt lat="49.34955" lon="1.4354">
        <ele>76</ele>
        <time>2026-03-24T13:30:20.780Z</time>
      </trkpt>
      <trkpt lat="49.34954" lon="1.43537">
        <ele>76</ele>
        <time>2026-03-24T13:30:25.780Z</time>
      </trkpt>
      <trkpt lat="49.34954" lon="1.43536">
        <ele>76</ele>
        <time>2026-03-24T13:30:29.779Z</time>
      </trkpt>
      <trkpt lat="49.34951" lon="1.43534">
        <ele>76</ele>
        <time>2026-03-24T13:30:34.492Z</time>
      </trkpt>
      <trkpt lat="49.34946" lon="1.43531">
        <ele>76</ele>
        <time>2026-03-24T13:30:38.557Z</time>
      </trkpt>
      <trkpt lat="49.34943" lon="1.43529">
        <ele>76</ele>
        <time>2026-03-24T13:30:42.780Z</time>
      </trkpt>
      <trkpt lat="49.34939" lon="1.43527">
        <ele>76</ele>
        <time>2026-03-24T13:30:47.512Z</time>
      </trkpt>
      <trkpt lat="49.34936" lon="1.43524">
        <ele>76</ele>
        <time>2026-03-24T13:30:51.780Z</time>
      </trkpt>
      <trkpt lat="49.34934" lon="1.4352">
        <ele>76</ele>
        <time>2026-03-24T13:30:56.381Z</time>
      </trkpt>
      <trkpt lat="49.34932" lon="1.43514">
        <ele>77</ele>
        <time>2026-03-24T13:31:00.980Z</time>
      </trkpt>
      <trkpt lat="49.34932" lon="1.43513">
        <ele>77</ele>
        <time>2026-03-24T13:31:05.766Z</time>
      </trkpt>
      <trkpt lat="49.3493" lon="1.43508">
        <ele>77</ele>
        <time>2026-03-24T13:31:09.780Z</time>
      </trkpt>
      <trkpt lat="49.34927" lon="1.43503">
        <ele>77</ele>
        <time>2026-03-24T13:31:14.016Z</time>
      </trkpt>
      <trkpt lat="49.34925" lon="1.43498">
        <ele>77</ele>
        <time>2026-03-24T13:31:18.214Z</time>
      </trkpt>
      <trkpt lat="49.34922" lon="1.43493">
        <ele>77</ele>
        <time>2026-03-24T13:31:22.620Z</time>
      </trkpt>
      <trkpt lat="49.3492" lon="1.43488">
        <ele>77</ele>
        <time>2026-03-24T13:31:26.779Z</time>
      </trkpt>
      <trkpt lat="49.34918" lon="1.43483">
        <ele>80</ele>
        <time>2026-03-24T13:31:31.199Z</time>
      </trkpt>
      <trkpt lat="49.34915" lon="1.43478">
        <ele>80</ele>
        <time>2026-03-24T13:31:35.437Z</time>
      </trkpt>
      <trkpt lat="49.34913" lon="1.43474">
        <ele>80</ele>
        <time>2026-03-24T13:31:39.600Z</time>
      </trkpt>
      <trkpt lat="49.34911" lon="1.43469">
        <ele>80</ele>
        <time>2026-03-24T13:31:43.736Z</time>
      </trkpt>
      <trkpt lat="49.34908" lon="1.43465">
        <ele>80</ele>
        <time>2026-03-24T13:31:47.779Z</time>
      </trkpt>
      <trkpt lat="49.34906" lon="1.43461">
        <ele>80</ele>
        <time>2026-03-24T13:31:52.041Z</time>
      </trkpt>
      <trkpt lat="49.34903" lon="1.43455">
        <ele>83</ele>
        <time>2026-03-24T13:31:56.717Z</time>
      </trkpt>
      <trkpt lat="49.349" lon="1.4345">
        <ele>82</ele>
        <time>2026-03-24T13:32:01.134Z</time>
      </trkpt>
      <trkpt lat="49.34897" lon="1.43444">
        <ele>82</ele>
        <time>2026-03-24T13:32:05.718Z</time>
      </trkpt>
      <trkpt lat="49.34894" lon="1.4344">
        <ele>82</ele>
        <time>2026-03-24T13:32:09.721Z</time>
      </trkpt>
      <trkpt lat="49.34892" lon="1.43434">
        <ele>82</ele>
        <time>2026-03-24T13:32:14.338Z</time>
      </trkpt>
      <trkpt lat="49.34889" lon="1.43428">
        <ele>86</ele>
        <time>2026-03-24T13:32:18.779Z</time>
      </trkpt>
      <trkpt lat="49.34887" lon="1.43422">
        <ele>86</ele>
        <time>2026-03-24T13:32:23.320Z</time>
      </trkpt>
      <trkpt lat="49.34884" lon="1.43416">
        <ele>86</ele>
        <time>2026-03-24T13:32:27.779Z</time>
      </trkpt>
      <trkpt lat="49.34881" lon="1.43409">
        <ele>86</ele>
        <time>2026-03-24T13:32:32.493Z</time>
      </trkpt>
      <trkpt lat="49.34879" lon="1.43403">
        <ele>86</ele>
        <time>2026-03-24T13:32:37.093Z</time>
      </trkpt>
      <trkpt lat="49.34877" lon="1.43397">
        <ele>89</ele>
        <time>2026-03-24T13:32:41.658Z</time>
      </trkpt>
      <trkpt lat="49.34875" lon="1.4339">
        <ele>87</ele>
        <time>2026-03-24T13:32:46.153Z</time>
      </trkpt>
      <trkpt lat="49.34873" lon="1.43383">
        <ele>87</ele>
        <time>2026-03-24T13:32:50.656Z</time>
      </trkpt>
      <trkpt lat="49.34873" lon="1.43377">
        <ele>87</ele>
        <time>2026-03-24T13:32:55.037Z</time>
      </trkpt>
      <trkpt lat="49.34871" lon="1.4337">
        <ele>90</ele>
        <time>2026-03-24T13:32:59.482Z</time>
      </trkpt>
      <trkpt lat="49.3487" lon="1.43363">
        <ele>90</ele>
        <time>2026-03-24T13:33:03.992Z</time>
      </trkpt>
      <trkpt lat="49.34868" lon="1.43356">
        <ele>90</ele>
        <time>2026-03-24T13:33:08.478Z</time>
      </trkpt>
      <trkpt lat="49.34867" lon="1.43349">
        <ele>90</ele>
        <time>2026-03-24T13:33:12.781Z</time>
      </trkpt>
      <trkpt lat="49.34866" lon="1.43341">
        <ele>93</ele>
        <time>2026-03-24T13:33:17.241Z</time>
      </trkpt>
      <trkpt lat="49.34865" lon="1.43334">
        <ele>93</ele>
        <time>2026-03-24T13:33:21.700Z</time>
      </trkpt>
      <trkpt lat="49.34865" lon="1.43327">
        <ele>93</ele>
        <time>2026-03-24T13:33:26.098Z</time>
      </trkpt>
      <trkpt lat="49.34864" lon="1.43319">
        <ele>96</ele>
        <time>2026-03-24T13:33:30.481Z</time>
      </trkpt>
      <trkpt lat="49.34863" lon="1.43312">
        <ele>96</ele>
        <time>2026-03-24T13:33:34.779Z</time>
      </trkpt>
      <trkpt lat="49.34863" lon="1.43304">
        <ele>96</ele>
        <time>2026-03-24T13:33:39.275Z</time>
      </trkpt>
      <trkpt lat="49.34862" lon="1.43296">
        <ele>96</ele>
        <time>2026-03-24T13:33:43.577Z</time>
      </trkpt>
      <trkpt lat="49.34861" lon="1.43289">
        <ele>99</ele>
        <time>2026-03-24T13:33:47.774Z</time>
      </trkpt>
      <trkpt lat="49.3486" lon="1.43281">
        <ele>99</ele>
        <time>2026-03-24T13:33:52.172Z</time>
      </trkpt>
      <trkpt lat="49.34859" lon="1.43273">
        <ele>99</ele>
        <time>2026-03-24T13:33:56.500Z</time>
      </trkpt>
      <trkpt lat="49.34859" lon="1.43266">
        <ele>99</ele>
        <time>2026-03-24T13:34:00.778Z</time>
      </trkpt>
      <trkpt lat="49.34858" lon="1.43258">
        <ele>103</ele>
        <time>2026-03-24T13:34:05.296Z</time>
      </trkpt>
      <trkpt lat="49.34859" lon="1.43251">
        <ele>103</ele>
        <time>2026-03-24T13:34:09.677Z</time>
      </trkpt>
      <trkpt lat="49.34862" lon="1.43251">
        <ele>103</ele>
        <time>2026-03-24T13:34:13.778Z</time>
      </trkpt>
      <trkpt lat="49.34861" lon="1.43249">
        <ele>103</ele>
        <time>2026-03-24T13:34:17.779Z</time>
      </trkpt>
      <trkpt lat="49.34862" lon="1.43245">
        <ele>103</ele>
        <time>2026-03-24T13:34:22.779Z</time>
      </trkpt>
      <trkpt lat="49.34862" lon="1.43243">
        <ele>103</ele>
        <time>2026-03-24T13:34:26.972Z</time>
      </trkpt>
      <trkpt lat="49.34862" lon="1.43235">
        <ele>108</ele>
        <time>2026-03-24T13:34:31.778Z</time>
      </trkpt>
      <trkpt lat="49.34863" lon="1.43236">
        <ele>108</ele>
        <time>2026-03-24T13:34:36.778Z</time>
      </trkpt>
      <trkpt lat="49.34863" lon="1.43236">
        <ele>108</ele>
        <time>2026-03-24T13:34:41.779Z</time>
      </trkpt>
      <trkpt lat="49.34863" lon="1.43235">
        <ele>108</ele>
        <time>2026-03-24T13:34:46.233Z</time>
      </trkpt>
      <trkpt lat="49.34856" lon="1.43232">
        <ele>108</ele>
        <time>2026-03-24T13:34:50.411Z</time>
      </trkpt>
      <trkpt lat="49.34853" lon="1.43227">
        <ele>108</ele>
        <time>2026-03-24T13:34:54.476Z</time>
      </trkpt>
      <trkpt lat="49.34852" lon="1.4322">
        <ele>108</ele>
        <time>2026-03-24T13:34:58.594Z</time>
      </trkpt>
      <trkpt lat="49.34852" lon="1.43214">
        <ele>108</ele>
        <time>2026-03-24T13:35:02.694Z</time>
      </trkpt>
      <trkpt lat="49.34852" lon="1.43207">
        <ele>112</ele>
        <time>2026-03-24T13:35:06.779Z</time>
      </trkpt>
      <trkpt lat="49.34852" lon="1.432">
        <ele>112</ele>
        <time>2026-03-24T13:35:11.420Z</time>
      </trkpt>
      <trkpt lat="49.34852" lon="1.43193">
        <ele>112</ele>
        <time>2026-03-24T13:35:15.779Z</time>
      </trkpt>
      <trkpt lat="49.34852" lon="1.43185">
        <ele>112</ele>
        <time>2026-03-24T13:35:20.341Z</time>
      </trkpt>
      <trkpt lat="49.34851" lon="1.43177">
        <ele>113</ele>
        <time>2026-03-24T13:35:24.779Z</time>
      </trkpt>
      <trkpt lat="49.3485" lon="1.43171">
        <ele>113</ele>
        <time>2026-03-24T13:35:29.276Z</time>
      </trkpt>
      <trkpt lat="49.34849" lon="1.43164">
        <ele>113</ele>
        <time>2026-03-24T13:35:33.534Z</time>
      </trkpt>
      <trkpt lat="49.34848" lon="1.43158">
        <ele>113</ele>
        <time>2026-03-24T13:35:37.779Z</time>
      </trkpt>
      <trkpt lat="49.34847" lon="1.4315">
        <ele>114</ele>
        <time>2026-03-24T13:35:42.456Z</time>
      </trkpt>
      <trkpt lat="49.34847" lon="1.43143">
        <ele>114</ele>
        <time>2026-03-24T13:35:46.779Z</time>
      </trkpt>
      <trkpt lat="49.34847" lon="1.43136">
        <ele>114</ele>
        <time>2026-03-24T13:35:51.180Z</time>
      </trkpt>
      <trkpt lat="49.34846" lon="1.43129">
        <ele>114</ele>
        <time>2026-03-24T13:35:55.517Z</time>
      </trkpt>
      <trkpt lat="49.34845" lon="1.43121">
        <ele>115</ele>
        <time>2026-03-24T13:35:59.994Z</time>
      </trkpt>
      <trkpt lat="49.34844" lon="1.43115">
        <ele>115</ele>
        <time>2026-03-24T13:36:04.234Z</time>
      </trkpt>
      <trkpt lat="49.34842" lon="1.43107">
        <ele>115</ele>
        <time>2026-03-24T13:36:08.615Z</time>
      </trkpt>
      <trkpt lat="49.34841" lon="1.431">
        <ele>115</ele>
        <time>2026-03-24T13:36:12.980Z</time>
      </trkpt>
      <trkpt lat="49.34841" lon="1.43093">
        <ele>115</ele>
        <time>2026-03-24T13:36:17.315Z</time>
      </trkpt>
      <trkpt lat="49.3484" lon="1.43086">
        <ele>115</ele>
        <time>2026-03-24T13:36:21.573Z</time>
      </trkpt>
      <trkpt lat="49.3484" lon="1.43079">
        <ele>115</ele>
        <time>2026-03-24T13:36:25.779Z</time>
      </trkpt>
      <trkpt lat="49.34839" lon="1.43072">
        <ele>115</ele>
        <time>2026-03-24T13:36:30.160Z</time>
      </trkpt>
      <trkpt lat="49.34839" lon="1.43065">
        <ele>116</ele>
        <time>2026-03-24T13:36:34.480Z</time>
      </trkpt>
      <trkpt lat="49.34838" lon="1.43058">
        <ele>116</ele>
        <time>2026-03-24T13:36:38.778Z</time>
      </trkpt>
      <trkpt lat="49.34837" lon="1.43051">
        <ele>116</ele>
        <time>2026-03-24T13:36:42.977Z</time>
      </trkpt>
      <trkpt lat="49.34836" lon="1.43044">
        <ele>116</ele>
        <time>2026-03-24T13:36:47.562Z</time>
      </trkpt>
      <trkpt lat="49.34836" lon="1.43044">
        <ele>116</ele>
        <time>2026-03-24T13:36:51.778Z</time>
      </trkpt>
      <trkpt lat="49.34837" lon="1.43034">
        <ele>117</ele>
        <time>2026-03-24T13:36:56.779Z</time>
      </trkpt>
      <trkpt lat="49.34833" lon="1.43026">
        <ele>117</ele>
        <time>2026-03-24T13:39:05.779Z</time>
      </trkpt>
      <trkpt lat="49.34832" lon="1.43018">
        <ele>117</ele>
        <time>2026-03-24T13:39:10.779Z</time>
      </trkpt>
      <trkpt lat="49.34832" lon="1.43012">
        <ele>118</ele>
        <time>2026-03-24T13:39:14.778Z</time>
      </trkpt>
      <trkpt lat="49.34832" lon="1.43004">
        <ele>118</ele>
        <time>2026-03-24T13:39:19.779Z</time>
      </trkpt>
      <trkpt lat="49.3483" lon="1.42996">
        <ele>118</ele>
        <time>2026-03-24T13:39:24.779Z</time>
      </trkpt>
      <trkpt lat="49.34829" lon="1.42987">
        <ele>118</ele>
        <time>2026-03-24T13:39:29.755Z</time>
      </trkpt>
      <trkpt lat="49.34829" lon="1.42981">
        <ele>118</ele>
        <time>2026-03-24T13:39:33.779Z</time>
      </trkpt>
      <trkpt lat="49.34829" lon="1.42974">
        <ele>118</ele>
        <time>2026-03-24T13:39:37.955Z</time>
      </trkpt>
      <trkpt lat="49.34829" lon="1.42967">
        <ele>118</ele>
        <time>2026-03-24T13:39:42.101Z</time>
      </trkpt>
      <trkpt lat="49.34827" lon="1.4296">
        <ele>118</ele>
        <time>2026-03-24T13:39:46.200Z</time>
      </trkpt>
      <trkpt lat="49.34826" lon="1.42953">
        <ele>118</ele>
        <time>2026-03-24T13:39:50.378Z</time>
      </trkpt>
      <trkpt lat="49.34825" lon="1.42946">
        <ele>118</ele>
        <time>2026-03-24T13:39:54.496Z</time>
      </trkpt>
      <trkpt lat="49.34824" lon="1.42939">
        <ele>118</ele>
        <time>2026-03-24T13:39:58.580Z</time>
      </trkpt>
      <trkpt lat="49.34824" lon="1.42931">
        <ele>118</ele>
        <time>2026-03-24T13:40:02.653Z</time>
      </trkpt>
      <trkpt lat="49.34823" lon="1.42924">
        <ele>117</ele>
        <time>2026-03-24T13:40:06.779Z</time>
      </trkpt>
      <trkpt lat="49.34823" lon="1.42917">
        <ele>117</ele>
        <time>2026-03-24T13:40:11.098Z</time>
      </trkpt>
      <trkpt lat="49.34822" lon="1.42909">
        <ele>117</ele>
        <time>2026-03-24T13:40:15.261Z</time>
      </trkpt>
      <trkpt lat="49.34821" lon="1.42902">
        <ele>117</ele>
        <time>2026-03-24T13:40:19.412Z</time>
      </trkpt>
      <trkpt lat="49.3482" lon="1.42894">
        <ele>117</ele>
        <time>2026-03-24T13:40:23.557Z</time>
      </trkpt>
      <trkpt lat="49.34819" lon="1.42886">
        <ele>118</ele>
        <time>2026-03-24T13:40:27.718Z</time>
      </trkpt>
      <trkpt lat="49.34817" lon="1.42878">
        <ele>118</ele>
        <time>2026-03-24T13:40:31.779Z</time>
      </trkpt>
      <trkpt lat="49.34816" lon="1.42871">
        <ele>117</ele>
        <time>2026-03-24T13:40:36.060Z</time>
      </trkpt>
      <trkpt lat="49.34815" lon="1.42864">
        <ele>117</ele>
        <time>2026-03-24T13:40:40.194Z</time>
      </trkpt>
      <trkpt lat="49.34815" lon="1.42856">
        <ele>117</ele>
        <time>2026-03-24T13:40:44.417Z</time>
      </trkpt>
      <trkpt lat="49.34814" lon="1.42849">
        <ele>117</ele>
        <time>2026-03-24T13:40:48.534Z</time>
      </trkpt>
      <trkpt lat="49.34813" lon="1.42842">
        <ele>117</ele>
        <time>2026-03-24T13:40:52.714Z</time>
      </trkpt>
      <trkpt lat="49.34812" lon="1.42833">
        <ele>117</ele>
        <time>2026-03-24T13:40:57.516Z</time>
      </trkpt>
      <trkpt lat="49.3481" lon="1.42825">
        <ele>117</ele>
        <time>2026-03-24T13:41:01.778Z</time>
      </trkpt>
      <trkpt lat="49.34809" lon="1.4282">
        <ele>117</ele>
        <time>2026-03-24T13:41:06.778Z</time>
      </trkpt>
      <trkpt lat="49.34807" lon="1.42815">
        <ele>117</ele>
        <time>2026-03-24T13:41:10.992Z</time>
      </trkpt>
      <trkpt lat="49.34805" lon="1.42808">
        <ele>117</ele>
        <time>2026-03-24T13:41:15.074Z</time>
      </trkpt>
      <trkpt lat="49.34804" lon="1.42801">
        <ele>117</ele>
        <time>2026-03-24T13:41:19.113Z</time>
      </trkpt>
      <trkpt lat="49.34804" lon="1.42794">
        <ele>117</ele>
        <time>2026-03-24T13:41:23.177Z</time>
      </trkpt>
      <trkpt lat="49.34803" lon="1.42786">
        <ele>116</ele>
        <time>2026-03-24T13:41:27.716Z</time>
      </trkpt>
      <trkpt lat="49.34803" lon="1.42779">
        <ele>116</ele>
        <time>2026-03-24T13:41:31.777Z</time>
      </trkpt>
      <trkpt lat="49.34802" lon="1.42771">
        <ele>116</ele>
        <time>2026-03-24T13:41:36.435Z</time>
      </trkpt>
      <trkpt lat="49.34801" lon="1.42765">
        <ele>116</ele>
        <time>2026-03-24T13:41:40.517Z</time>
      </trkpt>
      <trkpt lat="49.348" lon="1.42758">
        <ele>116</ele>
        <time>2026-03-24T13:41:44.617Z</time>
      </trkpt>
      <trkpt lat="49.34798" lon="1.4275">
        <ele>116</ele>
        <time>2026-03-24T13:41:49.173Z</time>
      </trkpt>
      <trkpt lat="49.34798" lon="1.42742">
        <ele>116</ele>
        <time>2026-03-24T13:41:53.193Z</time>
      </trkpt>
      <trkpt lat="49.34797" lon="1.42735">
        <ele>116</ele>
        <time>2026-03-24T13:41:57.337Z</time>
      </trkpt>
      <trkpt lat="49.34796" lon="1.42728">
        <ele>116</ele>
        <time>2026-03-24T13:42:01.438Z</time>
      </trkpt>
      <trkpt lat="49.34796" lon="1.42719">
        <ele>116</ele>
        <time>2026-03-24T13:42:05.934Z</time>
      </trkpt>
      <trkpt lat="49.34795" lon="1.42711">
        <ele>116</ele>
        <time>2026-03-24T13:42:10.032Z</time>
      </trkpt>
      <trkpt lat="49.34794" lon="1.42704">
        <ele>116</ele>
        <time>2026-03-24T13:42:14.097Z</time>
      </trkpt>
      <trkpt lat="49.34793" lon="1.42696">
        <ele>116</ele>
        <time>2026-03-24T13:42:18.697Z</time>
      </trkpt>
      <trkpt lat="49.34792" lon="1.42688">
        <ele>116</ele>
        <time>2026-03-24T13:42:23.281Z</time>
      </trkpt>
      <trkpt lat="49.34792" lon="1.4268">
        <ele>113</ele>
        <time>2026-03-24T13:42:27.778Z</time>
      </trkpt>
      <trkpt lat="49.34792" lon="1.42673">
        <ele>115</ele>
        <time>2026-03-24T13:42:32.015Z</time>
      </trkpt>
      <trkpt lat="49.34795" lon="1.42672">
        <ele>115</ele>
        <time>2026-03-24T13:42:47.536Z</time>
      </trkpt>
      <trkpt lat="49.34793" lon="1.42666">
        <ele>115</ele>
        <time>2026-03-24T13:42:51.778Z</time>
      </trkpt>
      <trkpt lat="49.34791" lon="1.42657">
        <ele>113</ele>
        <time>2026-03-24T13:42:56.158Z</time>
      </trkpt>
      <trkpt lat="49.34789" lon="1.42649">
        <ele>113</ele>
        <time>2026-03-24T13:43:00.321Z</time>
      </trkpt>
      <trkpt lat="49.34788" lon="1.42641">
        <ele>113</ele>
        <time>2026-03-24T13:43:04.340Z</time>
      </trkpt>
      <trkpt lat="49.34787" lon="1.42634">
        <ele>113</ele>
        <time>2026-03-24T13:43:08.396Z</time>
      </trkpt>
      <trkpt lat="49.34786" lon="1.42626">
        <ele>113</ele>
        <time>2026-03-24T13:43:12.460Z</time>
      </trkpt>
      <trkpt lat="49.34784" lon="1.42617">
        <ele>113</ele>
        <time>2026-03-24T13:43:17.017Z</time>
      </trkpt>
      <trkpt lat="49.34783" lon="1.4261">
        <ele>113</ele>
        <time>2026-03-24T13:43:21.178Z</time>
      </trkpt>
      <trkpt lat="49.34781" lon="1.42604">
        <ele>113</ele>
        <time>2026-03-24T13:43:25.216Z</time>
      </trkpt>
      <trkpt lat="49.3478" lon="1.42595">
        <ele>113</ele>
        <time>2026-03-24T13:43:29.767Z</time>
      </trkpt>
      <trkpt lat="49.3478" lon="1.42588">
        <ele>113</ele>
        <time>2026-03-24T13:43:33.778Z</time>
      </trkpt>
      <trkpt lat="49.34779" lon="1.42581">
        <ele>113</ele>
        <time>2026-03-24T13:43:38.033Z</time>
      </trkpt>
      <trkpt lat="49.34778" lon="1.42573">
        <ele>113</ele>
        <time>2026-03-24T13:43:42.161Z</time>
      </trkpt>
      <trkpt lat="49.34777" lon="1.42566">
        <ele>113</ele>
        <time>2026-03-24T13:43:46.340Z</time>
      </trkpt>
      <trkpt lat="49.34777" lon="1.42559">
        <ele>113</ele>
        <time>2026-03-24T13:43:50.580Z</time>
      </trkpt>
      <trkpt lat="49.34776" lon="1.42552">
        <ele>113</ele>
        <time>2026-03-24T13:43:54.768Z</time>
      </trkpt>
      <trkpt lat="49.34775" lon="1.42545">
        <ele>113</ele>
        <time>2026-03-24T13:43:58.778Z</time>
      </trkpt>
      <trkpt lat="49.34774" lon="1.42538">
        <ele>114</ele>
        <time>2026-03-24T13:44:03.018Z</time>
      </trkpt>
      <trkpt lat="49.34773" lon="1.4253">
        <ele>114</ele>
        <time>2026-03-24T13:44:07.180Z</time>
      </trkpt>
      <trkpt lat="49.34772" lon="1.42523">
        <ele>114</ele>
        <time>2026-03-24T13:44:11.235Z</time>
      </trkpt>
      <trkpt lat="49.34771" lon="1.42515">
        <ele>114</ele>
        <time>2026-03-24T13:44:15.335Z</time>
      </trkpt>
      <trkpt lat="49.3477" lon="1.42508">
        <ele>115</ele>
        <time>2026-03-24T13:44:19.481Z</time>
      </trkpt>
      <trkpt lat="49.34769" lon="1.425">
        <ele>115</ele>
        <time>2026-03-24T13:44:23.580Z</time>
      </trkpt>
      <trkpt lat="49.34768" lon="1.42493">
        <ele>115</ele>
        <time>2026-03-24T13:44:27.634Z</time>
      </trkpt>
      <trkpt lat="49.34768" lon="1.42485">
        <ele>115</ele>
        <time>2026-03-24T13:44:31.777Z</time>
      </trkpt>
      <trkpt lat="49.34767" lon="1.42478">
        <ele>115</ele>
        <time>2026-03-24T13:44:35.974Z</time>
      </trkpt>
      <trkpt lat="49.34766" lon="1.42471">
        <ele>115</ele>
        <time>2026-03-24T13:44:40.012Z</time>
      </trkpt>
      <trkpt lat="49.34765" lon="1.42463">
        <ele>115</ele>
        <time>2026-03-24T13:44:44.173Z</time>
      </trkpt>
      <trkpt lat="49.34764" lon="1.42456">
        <ele>116</ele>
        <time>2026-03-24T13:44:48.317Z</time>
      </trkpt>
      <trkpt lat="49.34764" lon="1.42449">
        <ele>115</ele>
        <time>2026-03-24T13:44:52.496Z</time>
      </trkpt>
      <trkpt lat="49.34763" lon="1.42442">
        <ele>115</ele>
        <time>2026-03-24T13:44:56.613Z</time>
      </trkpt>
      <trkpt lat="49.34762" lon="1.42435">
        <ele>115</ele>
        <time>2026-03-24T13:45:00.714Z</time>
      </trkpt>
      <trkpt lat="49.34761" lon="1.42427">
        <ele>115</ele>
        <time>2026-03-24T13:45:04.777Z</time>
      </trkpt>
      <trkpt lat="49.34761" lon="1.4242">
        <ele>115</ele>
        <time>2026-03-24T13:45:08.911Z</time>
      </trkpt>
      <trkpt lat="49.3476" lon="1.42413">
        <ele>115</ele>
        <time>2026-03-24T13:45:13.117Z</time>
      </trkpt>
      <trkpt lat="49.34759" lon="1.42406">
        <ele>115</ele>
        <time>2026-03-24T13:45:17.357Z</time>
      </trkpt>
      <trkpt lat="49.34758" lon="1.42398">
        <ele>115</ele>
        <time>2026-03-24T13:45:21.913Z</time>
      </trkpt>
      <trkpt lat="49.34757" lon="1.42391">
        <ele>115</ele>
        <time>2026-03-24T13:45:26.092Z</time>
      </trkpt>
      <trkpt lat="49.34757" lon="1.42384">
        <ele>115</ele>
        <time>2026-03-24T13:45:30.253Z</time>
      </trkpt>
      <trkpt lat="49.34756" lon="1.42377">
        <ele>115</ele>
        <time>2026-03-24T13:45:34.335Z</time>
      </trkpt>
      <trkpt lat="49.34755" lon="1.4237">
        <ele>115</ele>
        <time>2026-03-24T13:45:38.637Z</time>
      </trkpt>
      <trkpt lat="49.34755" lon="1.42364">
        <ele>115</ele>
        <time>2026-03-24T13:45:42.778Z</time>
      </trkpt>
      <trkpt lat="49.34754" lon="1.42357">
        <ele>115</ele>
        <time>2026-03-24T13:45:47.073Z</time>
      </trkpt>
      <trkpt lat="49.34753" lon="1.42349">
        <ele>115</ele>
        <time>2026-03-24T13:45:51.254Z</time>
      </trkpt>
      <trkpt lat="49.34752" lon="1.42343">
        <ele>115</ele>
        <time>2026-03-24T13:45:55.316Z</time>
      </trkpt>
      <trkpt lat="49.34751" lon="1.42335">
        <ele>115</ele>
        <time>2026-03-24T13:45:59.355Z</time>
      </trkpt>
      <trkpt lat="49.3475" lon="1.42328">
        <ele>115</ele>
        <time>2026-03-24T13:46:03.436Z</time>
      </trkpt>
      <trkpt lat="49.3475" lon="1.42321">
        <ele>115</ele>
        <time>2026-03-24T13:46:07.554Z</time>
      </trkpt>
      <trkpt lat="49.34749" lon="1.42314">
        <ele>114</ele>
        <time>2026-03-24T13:46:11.770Z</time>
      </trkpt>
      <trkpt lat="49.34748" lon="1.42307">
        <ele>114</ele>
        <time>2026-03-24T13:46:15.778Z</time>
      </trkpt>
      <trkpt lat="49.34747" lon="1.42299">
        <ele>114</ele>
        <time>2026-03-24T13:46:19.800Z</time>
      </trkpt>
      <trkpt lat="49.34746" lon="1.4229">
        <ele>114</ele>
        <time>2026-03-24T13:46:24.374Z</time>
      </trkpt>
      <trkpt lat="49.34746" lon="1.42283">
        <ele>114</ele>
        <time>2026-03-24T13:46:28.394Z</time>
      </trkpt>
      <trkpt lat="49.34745" lon="1.42275">
        <ele>114</ele>
        <time>2026-03-24T13:46:32.511Z</time>
      </trkpt>
      <trkpt lat="49.34744" lon="1.42268">
        <ele>114</ele>
        <time>2026-03-24T13:46:36.593Z</time>
      </trkpt>
      <trkpt lat="49.34743" lon="1.42261">
        <ele>113</ele>
        <time>2026-03-24T13:46:40.661Z</time>
      </trkpt>
      <trkpt lat="49.34743" lon="1.42254">
        <ele>113</ele>
        <time>2026-03-24T13:46:44.696Z</time>
      </trkpt>
      <trkpt lat="49.34741" lon="1.42246">
        <ele>113</ele>
        <time>2026-03-24T13:46:48.717Z</time>
      </trkpt>
      <trkpt lat="49.3474" lon="1.4224">
        <ele>113</ele>
        <time>2026-03-24T13:46:52.778Z</time>
      </trkpt>
      <trkpt lat="49.34739" lon="1.42232">
        <ele>113</ele>
        <time>2026-03-24T13:46:57.153Z</time>
      </trkpt>
      <trkpt lat="49.34738" lon="1.42225">
        <ele>113</ele>
        <time>2026-03-24T13:47:01.375Z</time>
      </trkpt>
      <trkpt lat="49.34738" lon="1.42218">
        <ele>113</ele>
        <time>2026-03-24T13:47:05.414Z</time>
      </trkpt>
      <trkpt lat="49.34737" lon="1.4221">
        <ele>113</ele>
        <time>2026-03-24T13:47:09.813Z</time>
      </trkpt>
      <trkpt lat="49.34736" lon="1.42202">
        <ele>113</ele>
        <time>2026-03-24T13:47:14.114Z</time>
      </trkpt>
      <trkpt lat="49.34735" lon="1.42195">
        <ele>113</ele>
        <time>2026-03-24T13:47:18.195Z</time>
      </trkpt>
      <trkpt lat="49.34734" lon="1.42188">
        <ele>113</ele>
        <time>2026-03-24T13:47:22.312Z</time>
      </trkpt>
      <trkpt lat="49.34733" lon="1.42182">
        <ele>113</ele>
        <time>2026-03-24T13:47:26.379Z</time>
      </trkpt>
      <trkpt lat="49.34732" lon="1.42175">
        <ele>113</ele>
        <time>2026-03-24T13:47:30.775Z</time>
      </trkpt>
      <trkpt lat="49.3473" lon="1.42168">
        <ele>113</ele>
        <time>2026-03-24T13:47:35.358Z</time>
      </trkpt>
      <trkpt lat="49.34729" lon="1.4216">
        <ele>113</ele>
        <time>2026-03-24T13:47:39.677Z</time>
      </trkpt>
      <trkpt lat="49.34728" lon="1.42154">
        <ele>113</ele>
        <time>2026-03-24T13:47:44.261Z</time>
      </trkpt>
      <trkpt lat="49.34726" lon="1.42148">
        <ele>113</ele>
        <time>2026-03-24T13:47:48.315Z</time>
      </trkpt>
      <trkpt lat="49.34725" lon="1.42143">
        <ele>113</ele>
        <time>2026-03-24T13:47:52.774Z</time>
      </trkpt>
      <trkpt lat="49.34724" lon="1.42132">
        <ele>113</ele>
        <time>2026-03-24T13:47:57.314Z</time>
      </trkpt>
      <trkpt lat="49.34722" lon="1.42125">
        <ele>114</ele>
        <time>2026-03-24T13:48:01.361Z</time>
      </trkpt>
      <trkpt lat="49.3472" lon="1.42118">
        <ele>114</ele>
        <time>2026-03-24T13:48:05.460Z</time>
      </trkpt>
      <trkpt lat="49.34718" lon="1.42111">
        <ele>114</ele>
        <time>2026-03-24T13:48:09.515Z</time>
      </trkpt>
      <trkpt lat="49.34717" lon="1.42104">
        <ele>114</ele>
        <time>2026-03-24T13:48:13.581Z</time>
      </trkpt>
      <trkpt lat="49.34715" lon="1.42097">
        <ele>114</ele>
        <time>2026-03-24T13:48:17.636Z</time>
      </trkpt>
      <trkpt lat="49.34714" lon="1.42091">
        <ele>115</ele>
        <time>2026-03-24T13:48:21.777Z</time>
      </trkpt>
      <trkpt lat="49.34712" lon="1.42084">
        <ele>115</ele>
        <time>2026-03-24T13:48:26.054Z</time>
      </trkpt>
      <trkpt lat="49.34711" lon="1.42077">
        <ele>115</ele>
        <time>2026-03-24T13:48:30.233Z</time>
      </trkpt>
      <trkpt lat="49.3471" lon="1.42071">
        <ele>115</ele>
        <time>2026-03-24T13:48:34.395Z</time>
      </trkpt>
      <trkpt lat="49.34709" lon="1.42064">
        <ele>114</ele>
        <time>2026-03-24T13:48:38.460Z</time>
      </trkpt>
      <trkpt lat="49.34706" lon="1.42057">
        <ele>113</ele>
        <time>2026-03-24T13:48:42.778Z</time>
      </trkpt>
      <trkpt lat="49.34704" lon="1.42053">
        <ele>113</ele>
        <time>2026-03-24T13:48:47.035Z</time>
      </trkpt>
      <trkpt lat="49.34703" lon="1.42044">
        <ele>113</ele>
        <time>2026-03-24T13:48:51.196Z</time>
      </trkpt>
      <trkpt lat="49.34701" lon="1.42036">
        <ele>113</ele>
        <time>2026-03-24T13:48:55.453Z</time>
      </trkpt>
      <trkpt lat="49.347" lon="1.42028">
        <ele>113</ele>
        <time>2026-03-24T13:48:59.553Z</time>
      </trkpt>
      <trkpt lat="49.34698" lon="1.42022">
        <ele>113</ele>
        <time>2026-03-24T13:49:03.619Z</time>
      </trkpt>
      <trkpt lat="49.34696" lon="1.42016">
        <ele>113</ele>
        <time>2026-03-24T13:49:07.777Z</time>
      </trkpt>
      <trkpt lat="49.34694" lon="1.42008">
        <ele>114</ele>
        <time>2026-03-24T13:49:12.415Z</time>
      </trkpt>
      <trkpt lat="49.34693" lon="1.42001">
        <ele>114</ele>
        <time>2026-03-24T13:49:16.621Z</time>
      </trkpt>
      <trkpt lat="49.34691" lon="1.41995">
        <ele>114</ele>
        <time>2026-03-24T13:49:20.778Z</time>
      </trkpt>
      <trkpt lat="49.34689" lon="1.41988">
        <ele>114</ele>
        <time>2026-03-24T13:49:24.976Z</time>
      </trkpt>
      <trkpt lat="49.34688" lon="1.41982">
        <ele>114</ele>
        <time>2026-03-24T13:49:29.121Z</time>
      </trkpt>
      <trkpt lat="49.34686" lon="1.41975">
        <ele>114</ele>
        <time>2026-03-24T13:49:33.221Z</time>
      </trkpt>
      <trkpt lat="49.34685" lon="1.41968">
        <ele>114</ele>
        <time>2026-03-24T13:49:37.398Z</time>
      </trkpt>
      <trkpt lat="49.34683" lon="1.41961">
        <ele>114</ele>
        <time>2026-03-24T13:49:41.533Z</time>
      </trkpt>
      <trkpt lat="49.34681" lon="1.41954">
        <ele>113</ele>
        <time>2026-03-24T13:49:45.778Z</time>
      </trkpt>
      <trkpt lat="49.3468" lon="1.41948">
        <ele>112</ele>
        <time>2026-03-24T13:49:49.777Z</time>
      </trkpt>
      <trkpt lat="49.34678" lon="1.41943">
        <ele>112</ele>
        <time>2026-03-24T13:49:54.778Z</time>
      </trkpt>
      <trkpt lat="49.34678" lon="1.41943">
        <ele>112</ele>
        <time>2026-03-24T13:49:58.778Z</time>
      </trkpt>
      <trkpt lat="49.34677" lon="1.41941">
        <ele>112</ele>
        <time>2026-03-24T13:50:03.313Z</time>
      </trkpt>
      <trkpt lat="49.34674" lon="1.41934">
        <ele>112</ele>
        <time>2026-03-24T13:50:07.778Z</time>
      </trkpt>
      <trkpt lat="49.34672" lon="1.41927">
        <ele>111</ele>
        <time>2026-03-24T13:50:12.181Z</time>
      </trkpt>
      <trkpt lat="49.34671" lon="1.41921">
        <ele>111</ele>
        <time>2026-03-24T13:50:16.455Z</time>
      </trkpt>
      <trkpt lat="49.3467" lon="1.41914">
        <ele>111</ele>
        <time>2026-03-24T13:50:20.494Z</time>
      </trkpt>
      <trkpt lat="49.34669" lon="1.41907">
        <ele>111</ele>
        <time>2026-03-24T13:50:24.717Z</time>
      </trkpt>
      <trkpt lat="49.34668" lon="1.41901">
        <ele>109</ele>
        <time>2026-03-24T13:50:29.020Z</time>
      </trkpt>
      <trkpt lat="49.34667" lon="1.41895">
        <ele>109</ele>
        <time>2026-03-24T13:50:33.073Z</time>
      </trkpt>
      <trkpt lat="49.34664" lon="1.41889">
        <ele>109</ele>
        <time>2026-03-24T13:50:37.357Z</time>
      </trkpt>
      <trkpt lat="49.34664" lon="1.41882">
        <ele>109</ele>
        <time>2026-03-24T13:50:41.694Z</time>
      </trkpt>
      <trkpt lat="49.34662" lon="1.41874">
        <ele>107</ele>
        <time>2026-03-24T13:50:46.278Z</time>
      </trkpt>
      <trkpt lat="49.3466" lon="1.41867">
        <ele>107</ele>
        <time>2026-03-24T13:50:50.315Z</time>
      </trkpt>
      <trkpt lat="49.34658" lon="1.41861">
        <ele>107</ele>
        <time>2026-03-24T13:50:54.319Z</time>
      </trkpt>
      <trkpt lat="49.34657" lon="1.41855">
        <ele>107</ele>
        <time>2026-03-24T13:50:58.777Z</time>
      </trkpt>
      <trkpt lat="49.34657" lon="1.41845">
        <ele>106</ele>
        <time>2026-03-24T13:51:40.233Z</time>
      </trkpt>
      <trkpt lat="49.34652" lon="1.41844">
        <ele>109</ele>
        <time>2026-03-24T13:51:44.455Z</time>
      </trkpt>
      <trkpt lat="49.3465" lon="1.41834">
        <ele>109</ele>
        <time>2026-03-24T13:51:49.020Z</time>
      </trkpt>
      <trkpt lat="49.34648" lon="1.41826">
        <ele>109</ele>
        <time>2026-03-24T13:51:53.532Z</time>
      </trkpt>
      <trkpt lat="49.34646" lon="1.41819">
        <ele>108</ele>
        <time>2026-03-24T13:51:57.536Z</time>
      </trkpt>
      <trkpt lat="49.34644" lon="1.41811">
        <ele>108</ele>
        <time>2026-03-24T13:52:02.013Z</time>
      </trkpt>
      <trkpt lat="49.34642" lon="1.41802">
        <ele>108</ele>
        <time>2026-03-24T13:52:06.578Z</time>
      </trkpt>
      <trkpt lat="49.3464" lon="1.41794">
        <ele>108</ele>
        <time>2026-03-24T13:52:11.102Z</time>
      </trkpt>
      <trkpt lat="49.34639" lon="1.41786">
        <ele>109</ele>
        <time>2026-03-24T13:52:15.138Z</time>
      </trkpt>
      <trkpt lat="49.34637" lon="1.41778">
        <ele>109</ele>
        <time>2026-03-24T13:52:19.518Z</time>
      </trkpt>
      <trkpt lat="49.34635" lon="1.4177">
        <ele>109</ele>
        <time>2026-03-24T13:52:23.917Z</time>
      </trkpt>
      <trkpt lat="49.34634" lon="1.41764">
        <ele>109</ele>
        <time>2026-03-24T13:52:27.957Z</time>
      </trkpt>
      <trkpt lat="49.34632" lon="1.41757">
        <ele>109</ele>
        <time>2026-03-24T13:52:31.993Z</time>
      </trkpt>
      <trkpt lat="49.34631" lon="1.4175">
        <ele>109</ele>
        <time>2026-03-24T13:52:36.013Z</time>
      </trkpt>
      <trkpt lat="49.3463" lon="1.41742">
        <ele>109</ele>
        <time>2026-03-24T13:52:40.517Z</time>
      </trkpt>
      <trkpt lat="49.34628" lon="1.41735">
        <ele>108</ele>
        <time>2026-03-24T13:52:44.555Z</time>
      </trkpt>
      <trkpt lat="49.34626" lon="1.41729">
        <ele>108</ele>
        <time>2026-03-24T13:52:48.593Z</time>
      </trkpt>
      <trkpt lat="49.34624" lon="1.41721">
        <ele>108</ele>
        <time>2026-03-24T13:52:52.693Z</time>
      </trkpt>
      <trkpt lat="49.34623" lon="1.41715">
        <ele>108</ele>
        <time>2026-03-24T13:52:56.778Z</time>
      </trkpt>
      <trkpt lat="49.34621" lon="1.41708">
        <ele>108</ele>
        <time>2026-03-24T13:53:00.953Z</time>
      </trkpt>
      <trkpt lat="49.34619" lon="1.41701">
        <ele>108</ele>
        <time>2026-03-24T13:53:05.176Z</time>
      </trkpt>
      <trkpt lat="49.34617" lon="1.41695">
        <ele>108</ele>
        <time>2026-03-24T13:53:09.232Z</time>
      </trkpt>
      <trkpt lat="49.34616" lon="1.41688">
        <ele>108</ele>
        <time>2026-03-24T13:53:13.394Z</time>
      </trkpt>
      <trkpt lat="49.34615" lon="1.41681">
        <ele>108</ele>
        <time>2026-03-24T13:53:17.537Z</time>
      </trkpt>
      <trkpt lat="49.34613" lon="1.41672">
        <ele>108</ele>
        <time>2026-03-24T13:53:21.981Z</time>
      </trkpt>
      <trkpt lat="49.34611" lon="1.41665">
        <ele>108</ele>
        <time>2026-03-24T13:53:26.456Z</time>
      </trkpt>
      <trkpt lat="49.34609" lon="1.41657">
        <ele>108</ele>
        <time>2026-03-24T13:53:30.915Z</time>
      </trkpt>
      <trkpt lat="49.34607" lon="1.4165">
        <ele>108</ele>
        <time>2026-03-24T13:53:34.997Z</time>
      </trkpt>
      <trkpt lat="49.34605" lon="1.41642">
        <ele>108</ele>
        <time>2026-03-24T13:53:39.597Z</time>
      </trkpt>
      <trkpt lat="49.34603" lon="1.41634">
        <ele>108</ele>
        <time>2026-03-24T13:53:44.136Z</time>
      </trkpt>
      <trkpt lat="49.34601" lon="1.41626">
        <ele>108</ele>
        <time>2026-03-24T13:53:48.235Z</time>
      </trkpt>
      <trkpt lat="49.346" lon="1.4162">
        <ele>107</ele>
        <time>2026-03-24T13:53:52.255Z</time>
      </trkpt>
      <trkpt lat="49.34598" lon="1.41613">
        <ele>107</ele>
        <time>2026-03-24T13:53:56.356Z</time>
      </trkpt>
      <trkpt lat="49.34595" lon="1.41606">
        <ele>110</ele>
        <time>2026-03-24T13:54:00.776Z</time>
      </trkpt>
      <trkpt lat="49.34593" lon="1.41598">
        <ele>110</ele>
        <time>2026-03-24T13:54:05.777Z</time>
      </trkpt>
      <trkpt lat="49.3459" lon="1.4159">
        <ele>109</ele>
        <time>2026-03-24T13:54:10.420Z</time>
      </trkpt>
      <trkpt lat="49.34588" lon="1.41583">
        <ele>109</ele>
        <time>2026-03-24T13:54:14.957Z</time>
      </trkpt>
      <trkpt lat="49.34585" lon="1.41577">
        <ele>109</ele>
        <time>2026-03-24T13:54:18.978Z</time>
      </trkpt>
      <trkpt lat="49.34582" lon="1.41571">
        <ele>109</ele>
        <time>2026-03-24T13:54:23Z</time>
      </trkpt>
      <trkpt lat="49.34579" lon="1.41564">
        <ele>107</ele>
        <time>2026-03-24T13:54:27.054Z</time>
      </trkpt>
      <trkpt lat="49.34576" lon="1.41557">
        <ele>107</ele>
        <time>2026-03-24T13:54:31.716Z</time>
      </trkpt>
      <trkpt lat="49.34573" lon="1.41551">
        <ele>107</ele>
        <time>2026-03-24T13:54:36.221Z</time>
      </trkpt>
      <trkpt lat="49.34569" lon="1.41545">
        <ele>110</ele>
        <time>2026-03-24T13:54:40.257Z</time>
      </trkpt>
      <trkpt lat="49.34566" lon="1.41539">
        <ele>109</ele>
        <time>2026-03-24T13:54:44.377Z</time>
      </trkpt>
      <trkpt lat="49.34563" lon="1.41534">
        <ele>109</ele>
        <time>2026-03-24T13:54:48.457Z</time>
      </trkpt>
      <trkpt lat="49.34561" lon="1.4153">
        <ele>109</ele>
        <time>2026-03-24T13:54:52.714Z</time>
      </trkpt>
      <trkpt lat="49.34558" lon="1.41521">
        <ele>109</ele>
        <time>2026-03-24T13:54:57.156Z</time>
      </trkpt>
      <trkpt lat="49.34555" lon="1.41514">
        <ele>109</ele>
        <time>2026-03-24T13:55:01.777Z</time>
      </trkpt>
      <trkpt lat="49.34552" lon="1.41509">
        <ele>108</ele>
        <time>2026-03-24T13:55:05.917Z</time>
      </trkpt>
      <trkpt lat="49.34549" lon="1.41503">
        <ele>108</ele>
        <time>2026-03-24T13:55:10.096Z</time>
      </trkpt>
      <trkpt lat="49.34546" lon="1.41498">
        <ele>108</ele>
        <time>2026-03-24T13:55:14.214Z</time>
      </trkpt>
      <trkpt lat="49.34543" lon="1.41491">
        <ele>108</ele>
        <time>2026-03-24T13:55:18.734Z</time>
      </trkpt>
      <trkpt lat="49.3454" lon="1.41484">
        <ele>108</ele>
        <time>2026-03-24T13:55:22.776Z</time>
      </trkpt>
      <trkpt lat="49.34537" lon="1.41479">
        <ele>108</ele>
        <time>2026-03-24T13:55:27.042Z</time>
      </trkpt>
      <trkpt lat="49.34534" lon="1.41473">
        <ele>108</ele>
        <time>2026-03-24T13:55:31.595Z</time>
      </trkpt>
      <trkpt lat="49.34531" lon="1.41469">
        <ele>108</ele>
        <time>2026-03-24T13:55:35.633Z</time>
      </trkpt>
      <trkpt lat="49.34528" lon="1.41462">
        <ele>108</ele>
        <time>2026-03-24T13:55:39.732Z</time>
      </trkpt>
      <trkpt lat="49.34525" lon="1.41456">
        <ele>109</ele>
        <time>2026-03-24T13:55:43.776Z</time>
      </trkpt>
      <trkpt lat="49.34521" lon="1.41449">
        <ele>109</ele>
        <time>2026-03-24T13:55:48.616Z</time>
      </trkpt>
      <trkpt lat="49.34519" lon="1.41444">
        <ele>109</ele>
        <time>2026-03-24T13:55:52.654Z</time>
      </trkpt>
      <trkpt lat="49.34516" lon="1.41438">
        <ele>109</ele>
        <time>2026-03-24T13:55:56.721Z</time>
      </trkpt>
      <trkpt lat="49.34513" lon="1.41432">
        <ele>110</ele>
        <time>2026-03-24T13:56:00.777Z</time>
      </trkpt>
      <trkpt lat="49.34511" lon="1.41425">
        <ele>109</ele>
        <time>2026-03-24T13:56:05.076Z</time>
      </trkpt>
      <trkpt lat="49.34508" lon="1.41419">
        <ele>109</ele>
        <time>2026-03-24T13:56:09.176Z</time>
      </trkpt>
      <trkpt lat="49.34506" lon="1.41412">
        <ele>109</ele>
        <time>2026-03-24T13:56:13.337Z</time>
      </trkpt>
      <trkpt lat="49.34504" lon="1.41406">
        <ele>109</ele>
        <time>2026-03-24T13:56:17.420Z</time>
      </trkpt>
      <trkpt lat="49.34501" lon="1.41399">
        <ele>109</ele>
        <time>2026-03-24T13:56:21.440Z</time>
      </trkpt>
      <trkpt lat="49.345" lon="1.41392">
        <ele>109</ele>
        <time>2026-03-24T13:56:25.513Z</time>
      </trkpt>
      <trkpt lat="49.34497" lon="1.41387">
        <ele>109</ele>
        <time>2026-03-24T13:56:29.753Z</time>
      </trkpt>
      <trkpt lat="49.34493" lon="1.41381">
        <ele>109</ele>
        <time>2026-03-24T13:56:34.318Z</time>
      </trkpt>
      <trkpt lat="49.34491" lon="1.41374">
        <ele>110</ele>
        <time>2026-03-24T13:56:38.401Z</time>
      </trkpt>
      <trkpt lat="49.34489" lon="1.41367">
        <ele>110</ele>
        <time>2026-03-24T13:56:42.455Z</time>
      </trkpt>
      <trkpt lat="49.34487" lon="1.4136">
        <ele>110</ele>
        <time>2026-03-24T13:56:46.572Z</time>
      </trkpt>
      <trkpt lat="49.34485" lon="1.41353">
        <ele>110</ele>
        <time>2026-03-24T13:56:50.698Z</time>
      </trkpt>
      <trkpt lat="49.34484" lon="1.41346">
        <ele>110</ele>
        <time>2026-03-24T13:56:54.777Z</time>
      </trkpt>
      <trkpt lat="49.34484" lon="1.41338">
        <ele>110</ele>
        <time>2026-03-24T13:56:59.354Z</time>
      </trkpt>
      <trkpt lat="49.34484" lon="1.4133">
        <ele>110</ele>
        <time>2026-03-24T13:57:03.514Z</time>
      </trkpt>
      <trkpt lat="49.34484" lon="1.41322">
        <ele>110</ele>
        <time>2026-03-24T13:57:07.772Z</time>
      </trkpt>
      <trkpt lat="49.34484" lon="1.41315">
        <ele>111</ele>
        <time>2026-03-24T13:57:11.994Z</time>
      </trkpt>
      <trkpt lat="49.34484" lon="1.41307">
        <ele>111</ele>
        <time>2026-03-24T13:57:16.201Z</time>
      </trkpt>
      <trkpt lat="49.34485" lon="1.413">
        <ele>111</ele>
        <time>2026-03-24T13:57:20.378Z</time>
      </trkpt>
      <trkpt lat="49.34485" lon="1.41295">
        <ele>111</ele>
        <time>2026-03-24T13:57:24.715Z</time>
      </trkpt>
      <trkpt lat="49.34485" lon="1.41285">
        <ele>111</ele>
        <time>2026-03-24T13:57:28.954Z</time>
      </trkpt>
      <trkpt lat="49.34486" lon="1.41277">
        <ele>111</ele>
        <time>2026-03-24T13:57:33.300Z</time>
      </trkpt>
      <trkpt lat="49.34486" lon="1.41271">
        <ele>111</ele>
        <time>2026-03-24T13:57:37.620Z</time>
      </trkpt>
      <trkpt lat="49.34485" lon="1.41264">
        <ele>112</ele>
        <time>2026-03-24T13:57:41.777Z</time>
      </trkpt>
      <trkpt lat="49.34486" lon="1.41256">
        <ele>112</ele>
        <time>2026-03-24T13:57:46.037Z</time>
      </trkpt>
      <trkpt lat="49.34486" lon="1.41249">
        <ele>113</ele>
        <time>2026-03-24T13:57:50.357Z</time>
      </trkpt>
      <trkpt lat="49.34487" lon="1.41242">
        <ele>113</ele>
        <time>2026-03-24T13:57:54.552Z</time>
      </trkpt>
      <trkpt lat="49.34487" lon="1.41234">
        <ele>113</ele>
        <time>2026-03-24T13:57:58.777Z</time>
      </trkpt>
      <trkpt lat="49.34487" lon="1.41227">
        <ele>113</ele>
        <time>2026-03-24T13:58:03.014Z</time>
      </trkpt>
      <trkpt lat="49.34487" lon="1.41219">
        <ele>113</ele>
        <time>2026-03-24T13:58:07.157Z</time>
      </trkpt>
      <trkpt lat="49.34487" lon="1.41212">
        <ele>113</ele>
        <time>2026-03-24T13:58:11.293Z</time>
      </trkpt>
      <trkpt lat="49.34486" lon="1.41204">
        <ele>114</ele>
        <time>2026-03-24T13:58:15.454Z</time>
      </trkpt>
      <trkpt lat="49.34486" lon="1.41195">
        <ele>114</ele>
        <time>2026-03-24T13:58:19.553Z</time>
      </trkpt>
      <trkpt lat="49.34486" lon="1.41188">
        <ele>113</ele>
        <time>2026-03-24T13:58:23.679Z</time>
      </trkpt>
      <trkpt lat="49.34485" lon="1.41181">
        <ele>113</ele>
        <time>2026-03-24T13:58:27.701Z</time>
      </trkpt>
      <trkpt lat="49.34485" lon="1.41173">
        <ele>114</ele>
        <time>2026-03-24T13:58:31.772Z</time>
      </trkpt>
      <trkpt lat="49.34483" lon="1.41166">
        <ele>114</ele>
        <time>2026-03-24T13:58:35.777Z</time>
      </trkpt>
      <trkpt lat="49.34482" lon="1.41159">
        <ele>114</ele>
        <time>2026-03-24T13:58:40.094Z</time>
      </trkpt>
      <trkpt lat="49.34481" lon="1.41151">
        <ele>115</ele>
        <time>2026-03-24T13:58:44.301Z</time>
      </trkpt>
      <trkpt lat="49.3448" lon="1.41144">
        <ele>115</ele>
        <time>2026-03-24T13:58:48.433Z</time>
      </trkpt>
      <trkpt lat="49.34479" lon="1.41136">
        <ele>115</ele>
        <time>2026-03-24T13:58:52.612Z</time>
      </trkpt>
      <trkpt lat="49.34478" lon="1.41129">
        <ele>115</ele>
        <time>2026-03-24T13:58:56.773Z</time>
      </trkpt>
      <trkpt lat="49.34476" lon="1.41122">
        <ele>117</ele>
        <time>2026-03-24T13:59:00.978Z</time>
      </trkpt>
      <trkpt lat="49.34475" lon="1.41114">
        <ele>117</ele>
        <time>2026-03-24T13:59:05.217Z</time>
      </trkpt>
      <trkpt lat="49.34474" lon="1.41107">
        <ele>117</ele>
        <time>2026-03-24T13:59:09.413Z</time>
      </trkpt>
      <trkpt lat="49.34472" lon="1.411">
        <ele>117</ele>
        <time>2026-03-24T13:59:13.620Z</time>
      </trkpt>
      <trkpt lat="49.34471" lon="1.41093">
        <ele>118</ele>
        <time>2026-03-24T13:59:17.753Z</time>
      </trkpt>
      <trkpt lat="49.34469" lon="1.41086">
        <ele>118</ele>
        <time>2026-03-24T13:59:21.776Z</time>
      </trkpt>
      <trkpt lat="49.34468" lon="1.41079">
        <ele>118</ele>
        <time>2026-03-24T13:59:26.041Z</time>
      </trkpt>
      <trkpt lat="49.34467" lon="1.41072">
        <ele>118</ele>
        <time>2026-03-24T13:59:30.192Z</time>
      </trkpt>
      <trkpt lat="49.34466" lon="1.41065">
        <ele>119</ele>
        <time>2026-03-24T13:59:34.572Z</time>
      </trkpt>
      <trkpt lat="49.34465" lon="1.41059">
        <ele>119</ele>
        <time>2026-03-24T14:02:57.776Z</time>
      </trkpt>
      <trkpt lat="49.34465" lon="1.41059">
        <ele>119</ele>
        <time>2026-03-24T14:03:03.777Z</time>
      </trkpt>
      <trkpt lat="49.34464" lon="1.41059">
        <ele>119</ele>
        <time>2026-03-24T14:03:08.419Z</time>
      </trkpt>
      <trkpt lat="49.34457" lon="1.41055">
        <ele>118</ele>
        <time>2026-03-24T14:03:12.678Z</time>
      </trkpt>
      <trkpt lat="49.34453" lon="1.41052">
        <ele>118</ele>
        <time>2026-03-24T14:03:17.119Z</time>
      </trkpt>
      <trkpt lat="49.34447" lon="1.41049">
        <ele>118</ele>
        <time>2026-03-24T14:03:21.272Z</time>
      </trkpt>
      <trkpt lat="49.34443" lon="1.41046">
        <ele>118</ele>
        <time>2026-03-24T14:03:25.434Z</time>
      </trkpt>
      <trkpt lat="49.34438" lon="1.41043">
        <ele>118</ele>
        <time>2026-03-24T14:03:29.673Z</time>
      </trkpt>
      <trkpt lat="49.34434" lon="1.41041">
        <ele>119</ele>
        <time>2026-03-24T14:03:33.777Z</time>
      </trkpt>
      <trkpt lat="49.3443" lon="1.41038">
        <ele>120</ele>
        <time>2026-03-24T14:03:37.995Z</time>
      </trkpt>
      <trkpt lat="49.34425" lon="1.41035">
        <ele>120</ele>
        <time>2026-03-24T14:03:42.219Z</time>
      </trkpt>
      <trkpt lat="49.3442" lon="1.41033">
        <ele>120</ele>
        <time>2026-03-24T14:03:46.414Z</time>
      </trkpt>
      <trkpt lat="49.34416" lon="1.4103">
        <ele>120</ele>
        <time>2026-03-24T14:03:50.541Z</time>
      </trkpt>
      <trkpt lat="49.34412" lon="1.41027">
        <ele>120</ele>
        <time>2026-03-24T14:03:54.613Z</time>
      </trkpt>
      <trkpt lat="49.34407" lon="1.41025">
        <ele>120</ele>
        <time>2026-03-24T14:03:58.774Z</time>
      </trkpt>
      <trkpt lat="49.34403" lon="1.41022">
        <ele>120</ele>
        <time>2026-03-24T14:04:02.953Z</time>
      </trkpt>
      <trkpt lat="49.34399" lon="1.41019">
        <ele>119</ele>
        <time>2026-03-24T14:04:07.053Z</time>
      </trkpt>
      <trkpt lat="49.34394" lon="1.41017">
        <ele>119</ele>
        <time>2026-03-24T14:04:11.276Z</time>
      </trkpt>
      <trkpt lat="49.3439" lon="1.41014">
        <ele>120</ele>
        <time>2026-03-24T14:04:15.359Z</time>
      </trkpt>
      <trkpt lat="49.34385" lon="1.4101">
        <ele>120</ele>
        <time>2026-03-24T14:04:19.492Z</time>
      </trkpt>
      <trkpt lat="49.34381" lon="1.41008">
        <ele>120</ele>
        <time>2026-03-24T14:04:23.539Z</time>
      </trkpt>
      <trkpt lat="49.34376" lon="1.41006">
        <ele>120</ele>
        <time>2026-03-24T14:04:27.639Z</time>
      </trkpt>
      <trkpt lat="49.34372" lon="1.41003">
        <ele>120</ele>
        <time>2026-03-24T14:04:31.774Z</time>
      </trkpt>
      <trkpt lat="49.34367" lon="1.41">
        <ele>120</ele>
        <time>2026-03-24T14:04:35.777Z</time>
      </trkpt>
      <trkpt lat="49.34363" lon="1.40997">
        <ele>120</ele>
        <time>2026-03-24T14:04:40.034Z</time>
      </trkpt>
      <trkpt lat="49.34358" lon="1.40995">
        <ele>120</ele>
        <time>2026-03-24T14:04:44.337Z</time>
      </trkpt>
      <trkpt lat="49.34354" lon="1.40992">
        <ele>120</ele>
        <time>2026-03-24T14:04:48.620Z</time>
      </trkpt>
      <trkpt lat="49.3435" lon="1.40989">
        <ele>120</ele>
        <time>2026-03-24T14:04:52.739Z</time>
      </trkpt>
      <trkpt lat="49.34345" lon="1.40986">
        <ele>122</ele>
        <time>2026-03-24T14:04:56.776Z</time>
      </trkpt>
      <trkpt lat="49.3434" lon="1.40983">
        <ele>122</ele>
        <time>2026-03-24T14:05:01.498Z</time>
      </trkpt>
      <trkpt lat="49.34336" lon="1.4098">
        <ele>122</ele>
        <time>2026-03-24T14:05:05.739Z</time>
      </trkpt>
      <trkpt lat="49.34331" lon="1.40977">
        <ele>122</ele>
        <time>2026-03-24T14:05:09.935Z</time>
      </trkpt>
      <trkpt lat="49.34327" lon="1.40974">
        <ele>122</ele>
        <time>2026-03-24T14:05:14.113Z</time>
      </trkpt>
      <trkpt lat="49.34323" lon="1.40969">
        <ele>122</ele>
        <time>2026-03-24T14:05:18.274Z</time>
      </trkpt>
      <trkpt lat="49.34319" lon="1.40964">
        <ele>122</ele>
        <time>2026-03-24T14:05:22.435Z</time>
      </trkpt>
      <trkpt lat="49.34316" lon="1.40959">
        <ele>122</ele>
        <time>2026-03-24T14:05:26.614Z</time>
      </trkpt>
      <trkpt lat="49.34314" lon="1.40956">
        <ele>123</ele>
        <time>2026-03-24T14:05:31.127Z</time>
      </trkpt>
      <trkpt lat="49.34311" lon="1.40951">
        <ele>123</ele>
        <time>2026-03-24T14:05:35.776Z</time>
      </trkpt>
      <trkpt lat="49.34309" lon="1.40945">
        <ele>123</ele>
        <time>2026-03-24T14:05:40.475Z</time>
      </trkpt>
      <trkpt lat="49.34307" lon="1.40938">
        <ele>123</ele>
        <time>2026-03-24T14:05:44.777Z</time>
      </trkpt>
      <trkpt lat="49.34305" lon="1.40931">
        <ele>123</ele>
        <time>2026-03-24T14:05:49.455Z</time>
      </trkpt>
      <trkpt lat="49.34303" lon="1.40925">
        <ele>123</ele>
        <time>2026-03-24T14:05:53.777Z</time>
      </trkpt>
      <trkpt lat="49.34301" lon="1.40919">
        <ele>123</ele>
        <time>2026-03-24T14:05:58.439Z</time>
      </trkpt>
      <trkpt lat="49.34299" lon="1.40912">
        <ele>123</ele>
        <time>2026-03-24T14:06:02.777Z</time>
      </trkpt>
      <trkpt lat="49.34298" lon="1.40906">
        <ele>123</ele>
        <time>2026-03-24T14:06:07.277Z</time>
      </trkpt>
      <trkpt lat="49.34297" lon="1.40899">
        <ele>123</ele>
        <time>2026-03-24T14:06:11.777Z</time>
      </trkpt>
      <trkpt lat="49.34295" lon="1.40892">
        <ele>123</ele>
        <time>2026-03-24T14:06:16.261Z</time>
      </trkpt>
      <trkpt lat="49.34293" lon="1.40886">
        <ele>123</ele>
        <time>2026-03-24T14:06:20.777Z</time>
      </trkpt>
      <trkpt lat="49.34291" lon="1.40883">
        <ele>122</ele>
        <time>2026-03-24T14:06:25.518Z</time>
      </trkpt>
      <trkpt lat="49.34291" lon="1.40881">
        <ele>122</ele>
        <time>2026-03-24T14:06:29.557Z</time>
      </trkpt>
      <trkpt lat="49.34288" lon="1.40874">
        <ele>123</ele>
        <time>2026-03-24T14:06:34.700Z</time>
      </trkpt>
      <trkpt lat="49.34288" lon="1.40867">
        <ele>123</ele>
        <time>2026-03-24T14:06:38.776Z</time>
      </trkpt>
      <trkpt lat="49.34287" lon="1.40862">
        <ele>123</ele>
        <time>2026-03-24T14:06:43.279Z</time>
      </trkpt>
      <trkpt lat="49.34285" lon="1.40853">
        <ele>123</ele>
        <time>2026-03-24T14:06:47.775Z</time>
      </trkpt>
      <trkpt lat="49.34283" lon="1.40846">
        <ele>124</ele>
        <time>2026-03-24T14:06:52.319Z</time>
      </trkpt>
      <trkpt lat="49.34281" lon="1.4084">
        <ele>124</ele>
        <time>2026-03-24T14:06:56.594Z</time>
      </trkpt>
      <trkpt lat="49.34279" lon="1.40834">
        <ele>124</ele>
        <time>2026-03-24T14:07:00.975Z</time>
      </trkpt>
      <trkpt lat="49.34277" lon="1.40828">
        <ele>124</ele>
        <time>2026-03-24T14:07:05.232Z</time>
      </trkpt>
      <trkpt lat="49.34274" lon="1.40822">
        <ele>124</ele>
        <time>2026-03-24T14:07:09.718Z</time>
      </trkpt>
      <trkpt lat="49.34272" lon="1.40817">
        <ele>126</ele>
        <time>2026-03-24T14:07:13.776Z</time>
      </trkpt>
      <trkpt lat="49.34269" lon="1.4081">
        <ele>126</ele>
        <time>2026-03-24T14:07:18.058Z</time>
      </trkpt>
      <trkpt lat="49.34266" lon="1.40804">
        <ele>126</ele>
        <time>2026-03-24T14:07:22.315Z</time>
      </trkpt>
      <trkpt lat="49.34264" lon="1.40798">
        <ele>126</ele>
        <time>2026-03-24T14:07:26.432Z</time>
      </trkpt>
      <trkpt lat="49.34262" lon="1.40792">
        <ele>127</ele>
        <time>2026-03-24T14:07:30.514Z</time>
      </trkpt>
      <trkpt lat="49.34259" lon="1.40786">
        <ele>127</ele>
        <time>2026-03-24T14:07:34.614Z</time>
      </trkpt>
      <trkpt lat="49.34257" lon="1.4078">
        <ele>127</ele>
        <time>2026-03-24T14:07:38.776Z</time>
      </trkpt>
      <trkpt lat="49.34254" lon="1.40773">
        <ele>127</ele>
        <time>2026-03-24T14:07:43.079Z</time>
      </trkpt>
      <trkpt lat="49.34251" lon="1.40768">
        <ele>127</ele>
        <time>2026-03-24T14:07:47.211Z</time>
      </trkpt>
      <trkpt lat="49.34248" lon="1.40762">
        <ele>127</ele>
        <time>2026-03-24T14:07:51.495Z</time>
      </trkpt>
      <trkpt lat="49.34245" lon="1.40757">
        <ele>127</ele>
        <time>2026-03-24T14:07:55.779Z</time>
      </trkpt>
      <trkpt lat="49.34242" lon="1.40752">
        <ele>127</ele>
        <time>2026-03-24T14:07:59.932Z</time>
      </trkpt>
      <trkpt lat="49.34238" lon="1.40748">
        <ele>127</ele>
        <time>2026-03-24T14:08:04.234Z</time>
      </trkpt>
      <trkpt lat="49.34234" lon="1.40744">
        <ele>128</ele>
        <time>2026-03-24T14:08:08.500Z</time>
      </trkpt>
      <trkpt lat="49.3423" lon="1.4074">
        <ele>128</ele>
        <time>2026-03-24T14:08:12.713Z</time>
      </trkpt>
      <trkpt lat="49.34226" lon="1.40737">
        <ele>128</ele>
        <time>2026-03-24T14:08:16.778Z</time>
      </trkpt>
      <trkpt lat="49.34222" lon="1.40733">
        <ele>128</ele>
        <time>2026-03-24T14:08:21.052Z</time>
      </trkpt>
      <trkpt lat="49.34218" lon="1.4073">
        <ele>128</ele>
        <time>2026-03-24T14:08:25.398Z</time>
      </trkpt>
      <trkpt lat="49.34215" lon="1.40726">
        <ele>128</ele>
        <time>2026-03-24T14:08:29.674Z</time>
      </trkpt>
      <trkpt lat="49.3421" lon="1.40723">
        <ele>128</ele>
        <time>2026-03-24T14:08:33.775Z</time>
      </trkpt>
      <trkpt lat="49.34207" lon="1.40718">
        <ele>129</ele>
        <time>2026-03-24T14:08:37.951Z</time>
      </trkpt>
      <trkpt lat="49.34203" lon="1.40714">
        <ele>129</ele>
        <time>2026-03-24T14:08:42.253Z</time>
      </trkpt>
      <trkpt lat="49.34199" lon="1.40709">
        <ele>129</ele>
        <time>2026-03-24T14:08:46.519Z</time>
      </trkpt>
      <trkpt lat="49.34196" lon="1.40706">
        <ele>130</ele>
        <time>2026-03-24T14:08:50.671Z</time>
      </trkpt>
      <trkpt lat="49.34192" lon="1.40701">
        <ele>130</ele>
        <time>2026-03-24T14:08:54.776Z</time>
      </trkpt>
      <trkpt lat="49.34188" lon="1.40696">
        <ele>130</ele>
        <time>2026-03-24T14:08:59.275Z</time>
      </trkpt>
      <trkpt lat="49.34185" lon="1.40691">
        <ele>130</ele>
        <time>2026-03-24T14:09:03.637Z</time>
      </trkpt>
      <trkpt lat="49.34181" lon="1.40688">
        <ele>130</ele>
        <time>2026-03-24T14:09:07.776Z</time>
      </trkpt>
      <trkpt lat="49.34179" lon="1.40684">
        <ele>130</ele>
        <time>2026-03-24T14:09:11.775Z</time>
      </trkpt>
      <trkpt lat="49.34175" lon="1.4068">
        <ele>130</ele>
        <time>2026-03-24T14:09:16.138Z</time>
      </trkpt>
      <trkpt lat="49.34171" lon="1.40676">
        <ele>130</ele>
        <time>2026-03-24T14:09:20.580Z</time>
      </trkpt>
      <trkpt lat="49.34167" lon="1.40672">
        <ele>130</ele>
        <time>2026-03-24T14:09:24.776Z</time>
      </trkpt>
      <trkpt lat="49.34163" lon="1.40668">
        <ele>130</ele>
        <time>2026-03-24T14:09:29.280Z</time>
      </trkpt>
      <trkpt lat="49.3416" lon="1.40664">
        <ele>130</ele>
        <time>2026-03-24T14:09:33.519Z</time>
      </trkpt>
      <trkpt lat="49.34156" lon="1.4066">
        <ele>130</ele>
        <time>2026-03-24T14:09:37.778Z</time>
      </trkpt>
      <trkpt lat="49.34152" lon="1.40656">
        <ele>130</ele>
        <time>2026-03-24T14:09:42.052Z</time>
      </trkpt>
      <trkpt lat="49.34148" lon="1.40652">
        <ele>130</ele>
        <time>2026-03-24T14:09:46.399Z</time>
      </trkpt>
      <trkpt lat="49.34144" lon="1.4065">
        <ele>130</ele>
        <time>2026-03-24T14:09:50.734Z</time>
      </trkpt>
      <trkpt lat="49.34139" lon="1.40647">
        <ele>130</ele>
        <time>2026-03-24T14:09:55.036Z</time>
      </trkpt>
      <trkpt lat="49.34136" lon="1.40644">
        <ele>130</ele>
        <time>2026-03-24T14:09:59.382Z</time>
      </trkpt>
      <trkpt lat="49.34131" lon="1.40643">
        <ele>130</ele>
        <time>2026-03-24T14:10:03.776Z</time>
      </trkpt>
      <trkpt lat="49.34126" lon="1.40641">
        <ele>130</ele>
        <time>2026-03-24T14:10:08.038Z</time>
      </trkpt>
      <trkpt lat="49.34122" lon="1.4064">
        <ele>129</ele>
        <time>2026-03-24T14:10:12.278Z</time>
      </trkpt>
      <trkpt lat="49.34117" lon="1.40637">
        <ele>129</ele>
        <time>2026-03-24T14:10:16.438Z</time>
      </trkpt>
      <trkpt lat="49.34113" lon="1.40634">
        <ele>129</ele>
        <time>2026-03-24T14:10:20.677Z</time>
      </trkpt>
      <trkpt lat="49.34108" lon="1.40633">
        <ele>129</ele>
        <time>2026-03-24T14:10:24.775Z</time>
      </trkpt>
      <trkpt lat="49.34104" lon="1.40631">
        <ele>129</ele>
        <time>2026-03-24T14:10:29.157Z</time>
      </trkpt>
      <trkpt lat="49.341" lon="1.40629">
        <ele>129</ele>
        <time>2026-03-24T14:10:33.539Z</time>
      </trkpt>
      <trkpt lat="49.34095" lon="1.40627">
        <ele>130</ele>
        <time>2026-03-24T14:10:38.112Z</time>
      </trkpt>
      <trkpt lat="49.34091" lon="1.40625">
        <ele>130</ele>
        <time>2026-03-24T14:10:42.694Z</time>
      </trkpt>
      <trkpt lat="49.34087" lon="1.40624">
        <ele>130</ele>
        <time>2026-03-24T14:10:47.058Z</time>
      </trkpt>
      <trkpt lat="49.34082" lon="1.40622">
        <ele>130</ele>
        <time>2026-03-24T14:10:51.500Z</time>
      </trkpt>
      <trkpt lat="49.34078" lon="1.40621">
        <ele>130</ele>
        <time>2026-03-24T14:10:55.775Z</time>
      </trkpt>
      <trkpt lat="49.34073" lon="1.40618">
        <ele>130</ele>
        <time>2026-03-24T14:11:00.058Z</time>
      </trkpt>
      <trkpt lat="49.34068" lon="1.40615">
        <ele>131</ele>
        <time>2026-03-24T14:11:04.412Z</time>
      </trkpt>
      <trkpt lat="49.34065" lon="1.40612">
        <ele>131</ele>
        <time>2026-03-24T14:11:08.679Z</time>
      </trkpt>
      <trkpt lat="49.3406" lon="1.4061">
        <ele>131</ele>
        <time>2026-03-24T14:11:13.094Z</time>
      </trkpt>
      <trkpt lat="49.34055" lon="1.40608">
        <ele>131</ele>
        <time>2026-03-24T14:11:17.474Z</time>
      </trkpt>
      <trkpt lat="49.34051" lon="1.40605">
        <ele>131</ele>
        <time>2026-03-24T14:11:21.681Z</time>
      </trkpt>
      <trkpt lat="49.34047" lon="1.40601">
        <ele>131</ele>
        <time>2026-03-24T14:11:26.113Z</time>
      </trkpt>
      <trkpt lat="49.34043" lon="1.40599">
        <ele>131</ele>
        <time>2026-03-24T14:11:30.239Z</time>
      </trkpt>
      <trkpt lat="49.34038" lon="1.40595">
        <ele>130</ele>
        <time>2026-03-24T14:11:34.357Z</time>
      </trkpt>
      <trkpt lat="49.34034" lon="1.40592">
        <ele>130</ele>
        <time>2026-03-24T14:15:53.776Z</time>
      </trkpt>
      <trkpt lat="49.34033" lon="1.40592">
        <ele>130</ele>
        <time>2026-03-24T14:15:59.776Z</time>
      </trkpt>
      <trkpt lat="49.34033" lon="1.40592">
        <ele>130</ele>
        <time>2026-03-24T14:16:04.477Z</time>
      </trkpt>
      <trkpt lat="49.34036" lon="1.40581">
        <ele>130</ele>
        <time>2026-03-24T14:16:08.953Z</time>
      </trkpt>
      <trkpt lat="49.34039" lon="1.40571">
        <ele>130</ele>
        <time>2026-03-24T14:16:13.351Z</time>
      </trkpt>
      <trkpt lat="49.34042" lon="1.40562">
        <ele>131</ele>
        <time>2026-03-24T14:16:17.699Z</time>
      </trkpt>
      <trkpt lat="49.34044" lon="1.40552">
        <ele>131</ele>
        <time>2026-03-24T14:16:22.142Z</time>
      </trkpt>
      <trkpt lat="49.34044" lon="1.40545">
        <ele>131</ele>
        <time>2026-03-24T14:16:26.538Z</time>
      </trkpt>
      <trkpt lat="49.34046" lon="1.40535">
        <ele>130</ele>
        <time>2026-03-24T14:16:30.998Z</time>
      </trkpt>
      <trkpt lat="49.34048" lon="1.40526">
        <ele>130</ele>
        <time>2026-03-24T14:16:35.378Z</time>
      </trkpt>
      <trkpt lat="49.34049" lon="1.40517">
        <ele>130</ele>
        <time>2026-03-24T14:16:39.775Z</time>
      </trkpt>
      <trkpt lat="49.34048" lon="1.4051">
        <ele>129</ele>
        <time>2026-03-24T14:16:44.314Z</time>
      </trkpt>
      <trkpt lat="49.34046" lon="1.40503">
        <ele>129</ele>
        <time>2026-03-24T14:16:48.775Z</time>
      </trkpt>
      <trkpt lat="49.34046" lon="1.40494">
        <ele>129</ele>
        <time>2026-03-24T14:16:53.059Z</time>
      </trkpt>
      <trkpt lat="49.34046" lon="1.40486">
        <ele>129</ele>
        <time>2026-03-24T14:16:57.615Z</time>
      </trkpt>
      <trkpt lat="49.34048" lon="1.40478">
        <ele>129</ele>
        <time>2026-03-24T14:17:01.934Z</time>
      </trkpt>
      <trkpt lat="49.34049" lon="1.4047">
        <ele>129</ele>
        <time>2026-03-24T14:17:06.332Z</time>
      </trkpt>
      <trkpt lat="49.34051" lon="1.40462">
        <ele>129</ele>
        <time>2026-03-24T14:17:10.616Z</time>
      </trkpt>
      <trkpt lat="49.34052" lon="1.40455">
        <ele>128</ele>
        <time>2026-03-24T14:17:14.997Z</time>
      </trkpt>
      <trkpt lat="49.34053" lon="1.40448">
        <ele>128</ele>
        <time>2026-03-24T14:17:19.359Z</time>
      </trkpt>
      <trkpt lat="49.34054" lon="1.4044">
        <ele>128</ele>
        <time>2026-03-24T14:17:23.775Z</time>
      </trkpt>
      <trkpt lat="49.34055" lon="1.40432">
        <ele>128</ele>
        <time>2026-03-24T14:17:28.340Z</time>
      </trkpt>
      <trkpt lat="49.34056" lon="1.40424">
        <ele>128</ele>
        <time>2026-03-24T14:17:32.776Z</time>
      </trkpt>
      <trkpt lat="49.34056" lon="1.40416">
        <ele>128</ele>
        <time>2026-03-24T14:17:37.311Z</time>
      </trkpt>
      <trkpt lat="49.34056" lon="1.40408">
        <ele>128</ele>
        <time>2026-03-24T14:17:41.719Z</time>
      </trkpt>
      <trkpt lat="49.34054" lon="1.40395">
        <ele>127</ele>
        <time>2026-03-24T14:17:59.013Z</time>
      </trkpt>
      <trkpt lat="49.34059" lon="1.40387">
        <ele>127</ele>
        <time>2026-03-24T14:18:03.534Z</time>
      </trkpt>
      <trkpt lat="49.34059" lon="1.40378">
        <ele>127</ele>
        <time>2026-03-24T14:18:07.774Z</time>
      </trkpt>
      <trkpt lat="49.3406" lon="1.40369">
        <ele>126</ele>
        <time>2026-03-24T14:18:12.296Z</time>
      </trkpt>
      <trkpt lat="49.34062" lon="1.40361">
        <ele>126</ele>
        <time>2026-03-24T14:18:16.738Z</time>
      </trkpt>
      <trkpt lat="49.34063" lon="1.40351">
        <ele>126</ele>
        <time>2026-03-24T14:18:21.259Z</time>
      </trkpt>
      <trkpt lat="49.34065" lon="1.40344">
        <ele>126</ele>
        <time>2026-03-24T14:18:25.753Z</time>
      </trkpt>
      <trkpt lat="49.34067" lon="1.40336">
        <ele>126</ele>
        <time>2026-03-24T14:18:30.177Z</time>
      </trkpt>
      <trkpt lat="49.34069" lon="1.40328">
        <ele>126</ele>
        <time>2026-03-24T14:18:34.719Z</time>
      </trkpt>
      <trkpt lat="49.34071" lon="1.4032">
        <ele>126</ele>
        <time>2026-03-24T14:18:39.158Z</time>
      </trkpt>
      <trkpt lat="49.34073" lon="1.40313">
        <ele>126</ele>
        <time>2026-03-24T14:18:43.715Z</time>
      </trkpt>
      <trkpt lat="49.34075" lon="1.40305">
        <ele>126</ele>
        <time>2026-03-24T14:18:48.019Z</time>
      </trkpt>
      <trkpt lat="49.34076" lon="1.40298">
        <ele>126</ele>
        <time>2026-03-24T14:18:52.565Z</time>
      </trkpt>
      <trkpt lat="49.34078" lon="1.40289">
        <ele>126</ele>
        <time>2026-03-24T14:18:56.775Z</time>
      </trkpt>
      <trkpt lat="49.34081" lon="1.40281">
        <ele>126</ele>
        <time>2026-03-24T14:19:01.272Z</time>
      </trkpt>
      <trkpt lat="49.34083" lon="1.40274">
        <ele>126</ele>
        <time>2026-03-24T14:19:05.679Z</time>
      </trkpt>
      <trkpt lat="49.34085" lon="1.40265">
        <ele>126</ele>
        <time>2026-03-24T14:19:10.218Z</time>
      </trkpt>
      <trkpt lat="49.34087" lon="1.40257">
        <ele>126</ele>
        <time>2026-03-24T14:19:14.618Z</time>
      </trkpt>
      <trkpt lat="49.3409" lon="1.4025">
        <ele>126</ele>
        <time>2026-03-24T14:19:19.120Z</time>
      </trkpt>
      <trkpt lat="49.34092" lon="1.40242">
        <ele>126</ele>
        <time>2026-03-24T14:19:23.579Z</time>
      </trkpt>
      <trkpt lat="49.34095" lon="1.40234">
        <ele>126</ele>
        <time>2026-03-24T14:19:27.776Z</time>
      </trkpt>
      <trkpt lat="49.34098" lon="1.40229">
        <ele>127</ele>
        <time>2026-03-24T14:19:32.079Z</time>
      </trkpt>
      <trkpt lat="49.34101" lon="1.40221">
        <ele>127</ele>
        <time>2026-03-24T14:19:36.572Z</time>
      </trkpt>
      <trkpt lat="49.34103" lon="1.40214">
        <ele>127</ele>
        <time>2026-03-24T14:19:40.592Z</time>
      </trkpt>
      <trkpt lat="49.34105" lon="1.40205">
        <ele>127</ele>
        <time>2026-03-24T14:19:45.078Z</time>
      </trkpt>
      <trkpt lat="49.34108" lon="1.40199">
        <ele>127</ele>
        <time>2026-03-24T14:19:49.555Z</time>
      </trkpt>
      <trkpt lat="49.3411" lon="1.40191">
        <ele>127</ele>
        <time>2026-03-24T14:19:54.032Z</time>
      </trkpt>
      <trkpt lat="49.34112" lon="1.40184">
        <ele>127</ele>
        <time>2026-03-24T14:19:58.554Z</time>
      </trkpt>
      <trkpt lat="49.34115" lon="1.40176">
        <ele>126</ele>
        <time>2026-03-24T14:20:02.934Z</time>
      </trkpt>
      <trkpt lat="49.34117" lon="1.40169">
        <ele>126</ele>
        <time>2026-03-24T14:20:07.393Z</time>
      </trkpt>
      <trkpt lat="49.3412" lon="1.40161">
        <ele>126</ele>
        <time>2026-03-24T14:20:11.774Z</time>
      </trkpt>
      <trkpt lat="49.34121" lon="1.40152">
        <ele>126</ele>
        <time>2026-03-24T14:20:16.155Z</time>
      </trkpt>
      <trkpt lat="49.34121" lon="1.40144">
        <ele>126</ele>
        <time>2026-03-24T14:20:20.632Z</time>
      </trkpt>
      <trkpt lat="49.3412" lon="1.40135">
        <ele>126</ele>
        <time>2026-03-24T14:20:25.013Z</time>
      </trkpt>
      <trkpt lat="49.34119" lon="1.40127">
        <ele>126</ele>
        <time>2026-03-24T14:20:29.472Z</time>
      </trkpt>
      <trkpt lat="49.34118" lon="1.40118">
        <ele>126</ele>
        <time>2026-03-24T14:20:33.775Z</time>
      </trkpt>
      <trkpt lat="49.34116" lon="1.40109">
        <ele>126</ele>
        <time>2026-03-24T14:20:38.172Z</time>
      </trkpt>
      <trkpt lat="49.34114" lon="1.40101">
        <ele>126</ele>
        <time>2026-03-24T14:20:42.500Z</time>
      </trkpt>
      <trkpt lat="49.3411" lon="1.40094">
        <ele>126</ele>
        <time>2026-03-24T14:20:46.775Z</time>
      </trkpt>
      <trkpt lat="49.34108" lon="1.40086">
        <ele>126</ele>
        <time>2026-03-24T14:20:51.279Z</time>
      </trkpt>
      <trkpt lat="49.34106" lon="1.40078">
        <ele>126</ele>
        <time>2026-03-24T14:20:55.677Z</time>
      </trkpt>
      <trkpt lat="49.34103" lon="1.4007">
        <ele>126</ele>
        <time>2026-03-24T14:20:59.978Z</time>
      </trkpt>
      <trkpt lat="49.34101" lon="1.40063">
        <ele>126</ele>
        <time>2026-03-24T14:21:04.192Z</time>
      </trkpt>
      <trkpt lat="49.34098" lon="1.40053">
        <ele>126</ele>
        <time>2026-03-24T14:21:08.600Z</time>
      </trkpt>
      <trkpt lat="49.34096" lon="1.40044">
        <ele>125</ele>
        <time>2026-03-24T14:21:12.892Z</time>
      </trkpt>
      <trkpt lat="49.34093" lon="1.40036">
        <ele>125</ele>
        <time>2026-03-24T14:21:17.157Z</time>
      </trkpt>
      <trkpt lat="49.34091" lon="1.40028">
        <ele>125</ele>
        <time>2026-03-24T14:21:21.600Z</time>
      </trkpt>
      <trkpt lat="49.34087" lon="1.40021">
        <ele>125</ele>
        <time>2026-03-24T14:21:26.174Z</time>
      </trkpt>
      <trkpt lat="49.34085" lon="1.40014">
        <ele>125</ele>
        <time>2026-03-24T14:21:30.738Z</time>
      </trkpt>
      <trkpt lat="49.34083" lon="1.40008">
        <ele>125</ele>
        <time>2026-03-24T14:21:34.774Z</time>
      </trkpt>
      <trkpt lat="49.34081" lon="1.4">
        <ele>125</ele>
        <time>2026-03-24T14:21:39.113Z</time>
      </trkpt>
      <trkpt lat="49.34079" lon="1.39992">
        <ele>125</ele>
        <time>2026-03-24T14:21:43.458Z</time>
      </trkpt>
      <trkpt lat="49.34076" lon="1.39984">
        <ele>125</ele>
        <time>2026-03-24T14:21:47.874Z</time>
      </trkpt>
      <trkpt lat="49.34073" lon="1.39976">
        <ele>125</ele>
        <time>2026-03-24T14:21:52.193Z</time>
      </trkpt>
      <trkpt lat="49.3407" lon="1.39969">
        <ele>125</ele>
        <time>2026-03-24T14:21:56.574Z</time>
      </trkpt>
      <trkpt lat="49.34067" lon="1.39963">
        <ele>122</ele>
        <time>2026-03-24T14:22:00.893Z</time>
      </trkpt>
      <trkpt lat="49.34063" lon="1.39956">
        <ele>122</ele>
        <time>2026-03-24T14:22:05.212Z</time>
      </trkpt>
      <trkpt lat="49.3406" lon="1.39949">
        <ele>122</ele>
        <time>2026-03-24T14:22:09.540Z</time>
      </trkpt>
      <trkpt lat="49.34057" lon="1.39943">
        <ele>122</ele>
        <time>2026-03-24T14:22:13.833Z</time>
      </trkpt>
      <trkpt lat="49.34053" lon="1.39936">
        <ele>122</ele>
        <time>2026-03-24T14:22:18.152Z</time>
      </trkpt>
      <trkpt lat="49.34049" lon="1.39931">
        <ele>122</ele>
        <time>2026-03-24T14:22:22.460Z</time>
      </trkpt>
      <trkpt lat="49.34045" lon="1.39925">
        <ele>121</ele>
        <time>2026-03-24T14:22:26.833Z</time>
      </trkpt>
      <trkpt lat="49.34041" lon="1.39919">
        <ele>121</ele>
        <time>2026-03-24T14:22:31.214Z</time>
      </trkpt>
      <trkpt lat="49.34037" lon="1.39913">
        <ele>121</ele>
        <time>2026-03-24T14:22:35.578Z</time>
      </trkpt>
      <trkpt lat="49.34035" lon="1.39906">
        <ele>121</ele>
        <time>2026-03-24T14:22:39.897Z</time>
      </trkpt>
      <trkpt lat="49.34032" lon="1.39898">
        <ele>119</ele>
        <time>2026-03-24T14:22:44.233Z</time>
      </trkpt>
      <trkpt lat="49.34029" lon="1.39891">
        <ele>119</ele>
        <time>2026-03-24T14:22:48.659Z</time>
      </trkpt>
      <trkpt lat="49.34027" lon="1.39884">
        <ele>119</ele>
        <time>2026-03-24T14:22:53.134Z</time>
      </trkpt>
      <trkpt lat="49.34026" lon="1.39876">
        <ele>119</ele>
        <time>2026-03-24T14:22:57.559Z</time>
      </trkpt>
      <trkpt lat="49.34026" lon="1.39869">
        <ele>117</ele>
        <time>2026-03-24T14:23:02.018Z</time>
      </trkpt>
      <trkpt lat="49.34026" lon="1.39861">
        <ele>117</ele>
        <time>2026-03-24T14:23:06.496Z</time>
      </trkpt>
      <trkpt lat="49.34027" lon="1.39854">
        <ele>117</ele>
        <time>2026-03-24T14:23:10.920Z</time>
      </trkpt>
      <trkpt lat="49.34029" lon="1.39848">
        <ele>117</ele>
        <time>2026-03-24T14:23:15.775Z</time>
      </trkpt>
      <trkpt lat="49.34028" lon="1.39848">
        <ele>117</ele>
        <time>2026-03-24T14:23:20.033Z</time>
      </trkpt>
      <trkpt lat="49.34025" lon="1.39845">
        <ele>116</ele>
        <time>2026-03-24T14:23:24.254Z</time>
      </trkpt>
      <trkpt lat="49.34023" lon="1.39839">
        <ele>116</ele>
        <time>2026-03-24T14:23:28.555Z</time>
      </trkpt>
      <trkpt lat="49.34025" lon="1.39826">
        <ele>116</ele>
        <time>2026-03-24T14:23:32.774Z</time>
      </trkpt>
      <trkpt lat="49.34025" lon="1.39817">
        <ele>114</ele>
        <time>2026-03-24T14:23:37.774Z</time>
      </trkpt>
      <trkpt lat="49.34024" lon="1.39817">
        <ele>114</ele>
        <time>2026-03-24T14:23:42.320Z</time>
      </trkpt>
      <trkpt lat="49.34017" lon="1.39812">
        <ele>114</ele>
        <time>2026-03-24T14:23:46.533Z</time>
      </trkpt>
      <trkpt lat="49.34011" lon="1.39808">
        <ele>114</ele>
        <time>2026-03-24T14:23:50.757Z</time>
      </trkpt>
      <trkpt lat="49.34006" lon="1.39803">
        <ele>114</ele>
        <time>2026-03-24T14:23:54.978Z</time>
      </trkpt>
      <trkpt lat="49.34002" lon="1.39796">
        <ele>114</ele>
        <time>2026-03-24T14:23:59.237Z</time>
      </trkpt>
      <trkpt lat="49.33999" lon="1.3979">
        <ele>112</ele>
        <time>2026-03-24T14:24:03.520Z</time>
      </trkpt>
      <trkpt lat="49.33994" lon="1.39785">
        <ele>112</ele>
        <time>2026-03-24T14:24:07.774Z</time>
      </trkpt>
      <trkpt lat="49.33989" lon="1.39781">
        <ele>112</ele>
        <time>2026-03-24T14:24:12.176Z</time>
      </trkpt>
      <trkpt lat="49.33984" lon="1.39776">
        <ele>113</ele>
        <time>2026-03-24T14:24:16.496Z</time>
      </trkpt>
      <trkpt lat="49.33979" lon="1.39772">
        <ele>113</ele>
        <time>2026-03-24T14:24:20.734Z</time>
      </trkpt>
      <trkpt lat="49.33975" lon="1.39767">
        <ele>113</ele>
        <time>2026-03-24T14:24:25.158Z</time>
      </trkpt>
      <trkpt lat="49.3397" lon="1.39764">
        <ele>112</ele>
        <time>2026-03-24T14:24:29.478Z</time>
      </trkpt>
      <trkpt lat="49.33965" lon="1.3976">
        <ele>112</ele>
        <time>2026-03-24T14:24:33.775Z</time>
      </trkpt>
      <trkpt lat="49.33959" lon="1.39755">
        <ele>112</ele>
        <time>2026-03-24T14:24:38.257Z</time>
      </trkpt>
      <trkpt lat="49.33954" lon="1.39751">
        <ele>113</ele>
        <time>2026-03-24T14:24:42.774Z</time>
      </trkpt>
      <trkpt lat="49.33949" lon="1.39746">
        <ele>113</ele>
        <time>2026-03-24T14:24:47.359Z</time>
      </trkpt>
      <trkpt lat="49.33944" lon="1.39742">
        <ele>113</ele>
        <time>2026-03-24T14:24:51.380Z</time>
      </trkpt>
      <trkpt lat="49.3394" lon="1.39737">
        <ele>113</ele>
        <time>2026-03-24T14:24:55.418Z</time>
      </trkpt>
      <trkpt lat="49.33936" lon="1.39732">
        <ele>113</ele>
        <time>2026-03-24T14:24:59.499Z</time>
      </trkpt>
      <trkpt lat="49.33932" lon="1.39727">
        <ele>113</ele>
        <time>2026-03-24T14:25:03.621Z</time>
      </trkpt>
      <trkpt lat="49.33929" lon="1.39721">
        <ele>114</ele>
        <time>2026-03-24T14:25:07.733Z</time>
      </trkpt>
      <trkpt lat="49.33925" lon="1.39715">
        <ele>114</ele>
        <time>2026-03-24T14:25:11.895Z</time>
      </trkpt>
      <trkpt lat="49.33922" lon="1.39709">
        <ele>114</ele>
        <time>2026-03-24T14:25:16.134Z</time>
      </trkpt>
      <trkpt lat="49.33919" lon="1.39702">
        <ele>115</ele>
        <time>2026-03-24T14:25:20.778Z</time>
      </trkpt>
      <trkpt lat="49.33916" lon="1.39697">
        <ele>115</ele>
        <time>2026-03-24T14:25:24.775Z</time>
      </trkpt>
      <trkpt lat="49.33912" lon="1.39691">
        <ele>115</ele>
        <time>2026-03-24T14:25:29.074Z</time>
      </trkpt>
      <trkpt lat="49.33909" lon="1.39686">
        <ele>115</ele>
        <time>2026-03-24T14:25:33.317Z</time>
      </trkpt>
      <trkpt lat="49.33906" lon="1.3968">
        <ele>117</ele>
        <time>2026-03-24T14:25:37.580Z</time>
      </trkpt>
      <trkpt lat="49.33904" lon="1.39673">
        <ele>117</ele>
        <time>2026-03-24T14:25:41.698Z</time>
      </trkpt>
      <trkpt lat="49.33902" lon="1.39666">
        <ele>117</ele>
        <time>2026-03-24T14:25:45.780Z</time>
      </trkpt>
      <trkpt lat="49.339" lon="1.39659">
        <ele>117</ele>
        <time>2026-03-24T14:25:49.913Z</time>
      </trkpt>
      <trkpt lat="49.33898" lon="1.39653">
        <ele>119</ele>
        <time>2026-03-24T14:25:54.049Z</time>
      </trkpt>
      <trkpt lat="49.33896" lon="1.39646">
        <ele>119</ele>
        <time>2026-03-24T14:25:58.332Z</time>
      </trkpt>
      <trkpt lat="49.33893" lon="1.39639">
        <ele>119</ele>
        <time>2026-03-24T14:26:02.493Z</time>
      </trkpt>
      <trkpt lat="49.33891" lon="1.39632">
        <ele>119</ele>
        <time>2026-03-24T14:26:06.698Z</time>
      </trkpt>
      <trkpt lat="49.33889" lon="1.39625">
        <ele>120</ele>
        <time>2026-03-24T14:26:10.763Z</time>
      </trkpt>
      <trkpt lat="49.33887" lon="1.39618">
        <ele>120</ele>
        <time>2026-03-24T14:26:14.775Z</time>
      </trkpt>
      <trkpt lat="49.33885" lon="1.39611">
        <ele>120</ele>
        <time>2026-03-24T14:26:19.093Z</time>
      </trkpt>
      <trkpt lat="49.33882" lon="1.39605">
        <ele>120</ele>
        <time>2026-03-24T14:26:23.192Z</time>
      </trkpt>
      <trkpt lat="49.3388" lon="1.39598">
        <ele>120</ele>
        <time>2026-03-24T14:26:27.318Z</time>
      </trkpt>
      <trkpt lat="49.33878" lon="1.39591">
        <ele>121</ele>
        <time>2026-03-24T14:26:31.478Z</time>
      </trkpt>
      <trkpt lat="49.33875" lon="1.39584">
        <ele>121</ele>
        <time>2026-03-24T14:26:35.674Z</time>
      </trkpt>
      <trkpt lat="49.33873" lon="1.39578">
        <ele>121</ele>
        <time>2026-03-24T14:26:39.775Z</time>
      </trkpt>
      <trkpt lat="49.33871" lon="1.3957">
        <ele>121</ele>
        <time>2026-03-24T14:26:44.031Z</time>
      </trkpt>
      <trkpt lat="49.33869" lon="1.39563">
        <ele>122</ele>
        <time>2026-03-24T14:26:48.175Z</time>
      </trkpt>
      <trkpt lat="49.33867" lon="1.39556">
        <ele>122</ele>
        <time>2026-03-24T14:26:52.318Z</time>
      </trkpt>
      <trkpt lat="49.33865" lon="1.3955">
        <ele>122</ele>
        <time>2026-03-24T14:26:56.514Z</time>
      </trkpt>
      <trkpt lat="49.33863" lon="1.39543">
        <ele>122</ele>
        <time>2026-03-24T14:27:00.640Z</time>
      </trkpt>
      <trkpt lat="49.3386" lon="1.39536">
        <ele>122</ele>
        <time>2026-03-24T14:27:04.771Z</time>
      </trkpt>
      <trkpt lat="49.33858" lon="1.39529">
        <ele>122</ele>
        <time>2026-03-24T14:27:08.952Z</time>
      </trkpt>
      <trkpt lat="49.33856" lon="1.39521">
        <ele>122</ele>
        <time>2026-03-24T14:27:12.999Z</time>
      </trkpt>
      <trkpt lat="49.33853" lon="1.39515">
        <ele>122</ele>
        <time>2026-03-24T14:27:17.073Z</time>
      </trkpt>
      <trkpt lat="49.33851" lon="1.39508">
        <ele>123</ele>
        <time>2026-03-24T14:27:21.154Z</time>
      </trkpt>
      <trkpt lat="49.33849" lon="1.39501">
        <ele>123</ele>
        <time>2026-03-24T14:27:25.218Z</time>
      </trkpt>
      <trkpt lat="49.33847" lon="1.39493">
        <ele>123</ele>
        <time>2026-03-24T14:27:29.774Z</time>
      </trkpt>
      <trkpt lat="49.33845" lon="1.39485">
        <ele>123</ele>
        <time>2026-03-24T14:27:34.313Z</time>
      </trkpt>
      <trkpt lat="49.33842" lon="1.39477">
        <ele>123</ele>
        <time>2026-03-24T14:27:38.775Z</time>
      </trkpt>
      <trkpt lat="49.3384" lon="1.39469">
        <ele>123</ele>
        <time>2026-03-24T14:27:43.179Z</time>
      </trkpt>
      <trkpt lat="49.33837" lon="1.39461">
        <ele>123</ele>
        <time>2026-03-24T14:27:47.673Z</time>
      </trkpt>
      <trkpt lat="49.33835" lon="1.39453">
        <ele>124</ele>
        <time>2026-03-24T14:27:52.162Z</time>
      </trkpt>
      <trkpt lat="49.33832" lon="1.39444">
        <ele>124</ele>
        <time>2026-03-24T14:27:56.654Z</time>
      </trkpt>
      <trkpt lat="49.3383" lon="1.39439">
        <ele>124</ele>
        <time>2026-03-24T14:28:01.192Z</time>
      </trkpt>
      <trkpt lat="49.33827" lon="1.39429">
        <ele>125</ele>
        <time>2026-03-24T14:28:05.661Z</time>
      </trkpt>
      <trkpt lat="49.33824" lon="1.39421">
        <ele>125</ele>
        <time>2026-03-24T14:28:10.155Z</time>
      </trkpt>
      <trkpt lat="49.33822" lon="1.39415">
        <ele>125</ele>
        <time>2026-03-24T14:28:14.176Z</time>
      </trkpt>
      <trkpt lat="49.33819" lon="1.39407">
        <ele>125</ele>
        <time>2026-03-24T14:28:18.195Z</time>
      </trkpt>
      <trkpt lat="49.33816" lon="1.394">
        <ele>126</ele>
        <time>2026-03-24T14:28:22.734Z</time>
      </trkpt>
      <trkpt lat="49.33813" lon="1.39393">
        <ele>126</ele>
        <time>2026-03-24T14:28:27.219Z</time>
      </trkpt>
      <trkpt lat="49.3381" lon="1.39387">
        <ele>126</ele>
        <time>2026-03-24T14:28:31.242Z</time>
      </trkpt>
      <trkpt lat="49.33808" lon="1.39381">
        <ele>126</ele>
        <time>2026-03-24T14:28:35.260Z</time>
      </trkpt>
      <trkpt lat="49.33805" lon="1.39374">
        <ele>127</ele>
        <time>2026-03-24T14:28:39.281Z</time>
      </trkpt>
      <trkpt lat="49.33803" lon="1.39367">
        <ele>127</ele>
        <time>2026-03-24T14:28:43.774Z</time>
      </trkpt>
      <trkpt lat="49.33799" lon="1.39362">
        <ele>127</ele>
        <time>2026-03-24T14:28:47.774Z</time>
      </trkpt>
      <trkpt lat="49.33796" lon="1.39355">
        <ele>127</ele>
        <time>2026-03-24T14:28:52.379Z</time>
      </trkpt>
      <trkpt lat="49.33793" lon="1.39349">
        <ele>127</ele>
        <time>2026-03-24T14:28:56.415Z</time>
      </trkpt>
      <trkpt lat="49.3379" lon="1.39343">
        <ele>126</ele>
        <time>2026-03-24T14:29:00.435Z</time>
      </trkpt>
      <trkpt lat="49.33787" lon="1.39337">
        <ele>126</ele>
        <time>2026-03-24T14:29:04.473Z</time>
      </trkpt>
      <trkpt lat="49.33784" lon="1.39332">
        <ele>126</ele>
        <time>2026-03-24T14:29:08.741Z</time>
      </trkpt>
      <trkpt lat="49.33783" lon="1.39329">
        <ele>126</ele>
        <time>2026-03-24T14:29:12.774Z</time>
      </trkpt>
      <trkpt lat="49.33781" lon="1.39322">
        <ele>126</ele>
        <time>2026-03-24T14:30:06.551Z</time>
      </trkpt>
      <trkpt lat="49.3378" lon="1.39317">
        <ele>127</ele>
        <time>2026-03-24T14:30:10.775Z</time>
      </trkpt>
      <trkpt lat="49.33781" lon="1.39317">
        <ele>127</ele>
        <time>2026-03-24T14:30:15.774Z</time>
      </trkpt>
      <trkpt lat="49.3378" lon="1.39316">
        <ele>127</ele>
        <time>2026-03-24T14:30:21.775Z</time>
      </trkpt>
      <trkpt lat="49.3378" lon="1.39315">
        <ele>127</ele>
        <time>2026-03-24T14:30:25.775Z</time>
      </trkpt>
      <trkpt lat="49.3378" lon="1.39314">
        <ele>127</ele>
        <time>2026-03-24T14:31:38.775Z</time>
      </trkpt>
      <trkpt lat="49.33781" lon="1.39311">
        <ele>127</ele>
        <time>2026-03-24T14:31:42.974Z</time>
      </trkpt>
      <trkpt lat="49.33785" lon="1.39305">
        <ele>127</ele>
        <time>2026-03-24T14:31:47.513Z</time>
      </trkpt>
      <trkpt lat="49.33789" lon="1.39304">
        <ele>127</ele>
        <time>2026-03-24T14:31:51.674Z</time>
      </trkpt>
      <trkpt lat="49.33793" lon="1.39304">
        <ele>127</ele>
        <time>2026-03-24T14:31:55.720Z</time>
      </trkpt>
      <trkpt lat="49.33797" lon="1.39306">
        <ele>127</ele>
        <time>2026-03-24T14:32:00.232Z</time>
      </trkpt>
      <trkpt lat="49.33802" lon="1.39305">
        <ele>127</ele>
        <time>2026-03-24T14:32:04.252Z</time>
      </trkpt>
      <trkpt lat="49.33806" lon="1.393">
        <ele>127</ele>
        <time>2026-03-24T14:32:08.765Z</time>
      </trkpt>
      <trkpt lat="49.33811" lon="1.39297">
        <ele>127</ele>
        <time>2026-03-24T14:32:13.199Z</time>
      </trkpt>
      <trkpt lat="49.33817" lon="1.39293">
        <ele>127</ele>
        <time>2026-03-24T14:32:17.780Z</time>
      </trkpt>
      <trkpt lat="49.33822" lon="1.3929">
        <ele>129</ele>
        <time>2026-03-24T14:32:21.915Z</time>
      </trkpt>
      <trkpt lat="49.33826" lon="1.39287">
        <ele>129</ele>
        <time>2026-03-24T14:32:25.952Z</time>
      </trkpt>
      <trkpt lat="49.3383" lon="1.39284">
        <ele>129</ele>
        <time>2026-03-24T14:32:29.974Z</time>
      </trkpt>
      <trkpt lat="49.33835" lon="1.39283">
        <ele>129</ele>
        <time>2026-03-24T14:32:47.232Z</time>
      </trkpt>
      <trkpt lat="49.33839" lon="1.39277">
        <ele>129</ele>
        <time>2026-03-24T14:32:51.559Z</time>
      </trkpt>
      <trkpt lat="49.33845" lon="1.39273">
        <ele>129</ele>
        <time>2026-03-24T14:32:55.975Z</time>
      </trkpt>
      <trkpt lat="49.3385" lon="1.39272">
        <ele>129</ele>
        <time>2026-03-24T14:32:59.995Z</time>
      </trkpt>
      <trkpt lat="49.33856" lon="1.39269">
        <ele>129</ele>
        <time>2026-03-24T14:33:04.033Z</time>
      </trkpt>
      <trkpt lat="49.3386" lon="1.39266">
        <ele>129</ele>
        <time>2026-03-24T14:33:08.212Z</time>
      </trkpt>
      <trkpt lat="49.33864" lon="1.39261">
        <ele>130</ele>
        <time>2026-03-24T14:33:12.373Z</time>
      </trkpt>
      <trkpt lat="49.33867" lon="1.39258">
        <ele>130</ele>
        <time>2026-03-24T14:33:16.595Z</time>
      </trkpt>
      <trkpt lat="49.33871" lon="1.39255">
        <ele>130</ele>
        <time>2026-03-24T14:33:20.774Z</time>
      </trkpt>
      <trkpt lat="49.33875" lon="1.39252">
        <ele>130</ele>
        <time>2026-03-24T14:33:24.919Z</time>
      </trkpt>
      <trkpt lat="49.33879" lon="1.39249">
        <ele>130</ele>
        <time>2026-03-24T14:33:29.053Z</time>
      </trkpt>
      <trkpt lat="49.33884" lon="1.39246">
        <ele>130</ele>
        <time>2026-03-24T14:33:33.098Z</time>
      </trkpt>
      <trkpt lat="49.33889" lon="1.39244">
        <ele>130</ele>
        <time>2026-03-24T14:33:37.259Z</time>
      </trkpt>
      <trkpt lat="49.33894" lon="1.39241">
        <ele>130</ele>
        <time>2026-03-24T14:33:41.315Z</time>
      </trkpt>
      <trkpt lat="49.33899" lon="1.39239">
        <ele>130</ele>
        <time>2026-03-24T14:33:45.353Z</time>
      </trkpt>
      <trkpt lat="49.33904" lon="1.39236">
        <ele>129</ele>
        <time>2026-03-24T14:33:49.400Z</time>
      </trkpt>
      <trkpt lat="49.3391" lon="1.39232">
        <ele>130</ele>
        <time>2026-03-24T14:33:53.775Z</time>
      </trkpt>
      <trkpt lat="49.33916" lon="1.39228">
        <ele>130</ele>
        <time>2026-03-24T14:33:58.415Z</time>
      </trkpt>
      <trkpt lat="49.3392" lon="1.39223">
        <ele>130</ele>
        <time>2026-03-24T14:34:02.498Z</time>
      </trkpt>
      <trkpt lat="49.33925" lon="1.39218">
        <ele>130</ele>
        <time>2026-03-24T14:34:07.114Z</time>
      </trkpt>
      <trkpt lat="49.3393" lon="1.39213">
        <ele>130</ele>
        <time>2026-03-24T14:34:11.678Z</time>
      </trkpt>
      <trkpt lat="49.33935" lon="1.39209">
        <ele>129</ele>
        <time>2026-03-24T14:34:15.735Z</time>
      </trkpt>
      <trkpt lat="49.33939" lon="1.39204">
        <ele>130</ele>
        <time>2026-03-24T14:34:19.773Z</time>
      </trkpt>
      <trkpt lat="49.33943" lon="1.392">
        <ele>130</ele>
        <time>2026-03-24T14:34:23.775Z</time>
      </trkpt>
      <trkpt lat="49.33947" lon="1.39196">
        <ele>130</ele>
        <time>2026-03-24T14:34:28.218Z</time>
      </trkpt>
      <trkpt lat="49.33951" lon="1.39191">
        <ele>130</ele>
        <time>2026-03-24T14:34:32.633Z</time>
      </trkpt>
      <trkpt lat="49.33956" lon="1.39188">
        <ele>130</ele>
        <time>2026-03-24T14:34:36.653Z</time>
      </trkpt>
      <trkpt lat="49.3396" lon="1.39184">
        <ele>128</ele>
        <time>2026-03-24T14:34:40.735Z</time>
      </trkpt>
      <trkpt lat="49.33965" lon="1.39179">
        <ele>128</ele>
        <time>2026-03-24T14:34:45.335Z</time>
      </trkpt>
      <trkpt lat="49.3397" lon="1.39175">
        <ele>128</ele>
        <time>2026-03-24T14:34:49.952Z</time>
      </trkpt>
      <trkpt lat="49.33975" lon="1.39171">
        <ele>128</ele>
        <time>2026-03-24T14:34:54.034Z</time>
      </trkpt>
      <trkpt lat="49.33979" lon="1.39168">
        <ele>128</ele>
        <time>2026-03-24T14:34:58.213Z</time>
      </trkpt>
      <trkpt lat="49.33984" lon="1.39164">
        <ele>128</ele>
        <time>2026-03-24T14:35:02.374Z</time>
      </trkpt>
      <trkpt lat="49.33988" lon="1.39161">
        <ele>127</ele>
        <time>2026-03-24T14:35:06.457Z</time>
      </trkpt>
      <trkpt lat="49.33992" lon="1.39158">
        <ele>127</ele>
        <time>2026-03-24T14:35:10.599Z</time>
      </trkpt>
      <trkpt lat="49.33996" lon="1.39155">
        <ele>127</ele>
        <time>2026-03-24T14:35:14.762Z</time>
      </trkpt>
      <trkpt lat="49.34001" lon="1.39152">
        <ele>128</ele>
        <time>2026-03-24T14:35:18.773Z</time>
      </trkpt>
      <trkpt lat="49.34006" lon="1.39149">
        <ele>128</ele>
        <time>2026-03-24T14:35:23.012Z</time>
      </trkpt>
      <trkpt lat="49.34011" lon="1.39147">
        <ele>128</ele>
        <time>2026-03-24T14:35:27.594Z</time>
      </trkpt>
      <trkpt lat="49.34016" lon="1.39144">
        <ele>128</ele>
        <time>2026-03-24T14:35:32.178Z</time>
      </trkpt>
      <trkpt lat="49.3402" lon="1.39141">
        <ele>128</ele>
        <time>2026-03-24T14:35:36.354Z</time>
      </trkpt>
      <trkpt lat="49.34027" lon="1.3914">
        <ele>128</ele>
        <time>2026-03-24T14:35:40.719Z</time>
      </trkpt>
      <trkpt lat="49.3403" lon="1.39139">
        <ele>128</ele>
        <time>2026-03-24T14:35:44.773Z</time>
      </trkpt>
      <trkpt lat="49.34035" lon="1.39134">
        <ele>128</ele>
        <time>2026-03-24T14:35:49.541Z</time>
      </trkpt>
      <trkpt lat="49.34041" lon="1.39131">
        <ele>128</ele>
        <time>2026-03-24T14:35:54.078Z</time>
      </trkpt>
      <trkpt lat="49.34046" lon="1.39128">
        <ele>128</ele>
        <time>2026-03-24T14:35:58.239Z</time>
      </trkpt>
      <trkpt lat="49.34051" lon="1.39126">
        <ele>128</ele>
        <time>2026-03-24T14:36:02.435Z</time>
      </trkpt>
      <trkpt lat="49.34056" lon="1.39124">
        <ele>128</ele>
        <time>2026-03-24T14:36:07.018Z</time>
      </trkpt>
      <trkpt lat="49.34061" lon="1.39122">
        <ele>128</ele>
        <time>2026-03-24T14:36:11.056Z</time>
      </trkpt>
      <trkpt lat="49.34065" lon="1.39122">
        <ele>128</ele>
        <time>2026-03-24T14:36:15.155Z</time>
      </trkpt>
      <trkpt lat="49.3407" lon="1.3912">
        <ele>128</ele>
        <time>2026-03-24T14:36:19.320Z</time>
      </trkpt>
      <trkpt lat="49.34074" lon="1.39119">
        <ele>128</ele>
        <time>2026-03-24T14:36:23.372Z</time>
      </trkpt>
      <trkpt lat="49.34079" lon="1.39118">
        <ele>128</ele>
        <time>2026-03-24T14:36:27.559Z</time>
      </trkpt>
      <trkpt lat="49.34083" lon="1.39116">
        <ele>128</ele>
        <time>2026-03-24T14:36:31.693Z</time>
      </trkpt>
      <trkpt lat="49.34089" lon="1.39114">
        <ele>128</ele>
        <time>2026-03-24T14:36:36.232Z</time>
      </trkpt>
      <trkpt lat="49.34094" lon="1.39113">
        <ele>128</ele>
        <time>2026-03-24T14:36:40.393Z</time>
      </trkpt>
      <trkpt lat="49.34098" lon="1.39112">
        <ele>127</ele>
        <time>2026-03-24T14:36:44.601Z</time>
      </trkpt>
      <trkpt lat="49.34103" lon="1.39109">
        <ele>127</ele>
        <time>2026-03-24T14:36:48.733Z</time>
      </trkpt>
      <trkpt lat="49.34107" lon="1.39107">
        <ele>127</ele>
        <time>2026-03-24T14:36:52.773Z</time>
      </trkpt>
      <trkpt lat="49.34112" lon="1.39106">
        <ele>127</ele>
        <time>2026-03-24T14:36:56.975Z</time>
      </trkpt>
      <trkpt lat="49.34116" lon="1.39104">
        <ele>127</ele>
        <time>2026-03-24T14:37:01.119Z</time>
      </trkpt>
      <trkpt lat="49.34121" lon="1.39102">
        <ele>127</ele>
        <time>2026-03-24T14:37:05.174Z</time>
      </trkpt>
      <trkpt lat="49.34125" lon="1.39101">
        <ele>125</ele>
        <time>2026-03-24T14:37:09.398Z</time>
      </trkpt>
      <trkpt lat="49.34129" lon="1.39099">
        <ele>125</ele>
        <time>2026-03-24T14:37:13.532Z</time>
      </trkpt>
      <trkpt lat="49.34134" lon="1.39098">
        <ele>125</ele>
        <time>2026-03-24T14:37:17.774Z</time>
      </trkpt>
      <trkpt lat="49.34138" lon="1.39096">
        <ele>125</ele>
        <time>2026-03-24T14:37:22.020Z</time>
      </trkpt>
      <trkpt lat="49.34143" lon="1.39096">
        <ele>125</ele>
        <time>2026-03-24T14:37:26.296Z</time>
      </trkpt>
      <trkpt lat="49.34148" lon="1.39098">
        <ele>125</ele>
        <time>2026-03-24T14:37:30.394Z</time>
      </trkpt>
      <trkpt lat="49.34151" lon="1.39099">
        <ele>125</ele>
        <time>2026-03-24T14:37:34.556Z</time>
      </trkpt>
      <trkpt lat="49.34155" lon="1.391">
        <ele>123</ele>
        <time>2026-03-24T14:37:43.457Z</time>
      </trkpt>
      <trkpt lat="49.34157" lon="1.39102">
        <ele>123</ele>
        <time>2026-03-24T14:37:48.513Z</time>
      </trkpt>
      <trkpt lat="49.34157" lon="1.39102">
        <ele>123</ele>
        <time>2026-03-24T14:37:53.774Z</time>
      </trkpt>
      <trkpt lat="49.34159" lon="1.39103">
        <ele>123</ele>
        <time>2026-03-24T14:37:58.178Z</time>
      </trkpt>
      <trkpt lat="49.34166" lon="1.39105">
        <ele>123</ele>
        <time>2026-03-24T14:38:02.341Z</time>
      </trkpt>
      <trkpt lat="49.34171" lon="1.39108">
        <ele>123</ele>
        <time>2026-03-24T14:38:06.413Z</time>
      </trkpt>
      <trkpt lat="49.34176" lon="1.3911">
        <ele>123</ele>
        <time>2026-03-24T14:38:10.558Z</time>
      </trkpt>
      <trkpt lat="49.34181" lon="1.39111">
        <ele>123</ele>
        <time>2026-03-24T14:38:14.702Z</time>
      </trkpt>
      <trkpt lat="49.34185" lon="1.39112">
        <ele>121</ele>
        <time>2026-03-24T14:38:18.818Z</time>
      </trkpt>
      <trkpt lat="49.3419" lon="1.39114">
        <ele>121</ele>
        <time>2026-03-24T14:38:23.180Z</time>
      </trkpt>
      <trkpt lat="49.34194" lon="1.39116">
        <ele>121</ele>
        <time>2026-03-24T14:38:27.279Z</time>
      </trkpt>
      <trkpt lat="49.34195" lon="1.39116">
        <ele>121</ele>
        <time>2026-03-24T14:38:31.336Z</time>
      </trkpt>
      <trkpt lat="49.34199" lon="1.39116">
        <ele>121</ele>
        <time>2026-03-24T14:38:35.774Z</time>
      </trkpt>
      <trkpt lat="49.34201" lon="1.39116">
        <ele>121</ele>
        <time>2026-03-24T14:38:40.192Z</time>
      </trkpt>
      <trkpt lat="49.34208" lon="1.39118">
        <ele>121</ele>
        <time>2026-03-24T14:38:44.775Z</time>
      </trkpt>
      <trkpt lat="49.34213" lon="1.39121">
        <ele>119</ele>
        <time>2026-03-24T14:38:48.938Z</time>
      </trkpt>
      <trkpt lat="49.34219" lon="1.39123">
        <ele>119</ele>
        <time>2026-03-24T14:38:53.080Z</time>
      </trkpt>
      <trkpt lat="49.34224" lon="1.39124">
        <ele>119</ele>
        <time>2026-03-24T14:38:57.138Z</time>
      </trkpt>
      <trkpt lat="49.34227" lon="1.39127">
        <ele>120</ele>
        <time>2026-03-24T14:39:01.332Z</time>
      </trkpt>
      <trkpt lat="49.34232" lon="1.3913">
        <ele>120</ele>
        <time>2026-03-24T14:39:05.599Z</time>
      </trkpt>
      <trkpt lat="49.34237" lon="1.39132">
        <ele>120</ele>
        <time>2026-03-24T14:39:09.698Z</time>
      </trkpt>
      <trkpt lat="49.34242" lon="1.39133">
        <ele>120</ele>
        <time>2026-03-24T14:39:13.757Z</time>
      </trkpt>
      <trkpt lat="49.34246" lon="1.39135">
        <ele>120</ele>
        <time>2026-03-24T14:39:17.774Z</time>
      </trkpt>
      <trkpt lat="49.34251" lon="1.39137">
        <ele>120</ele>
        <time>2026-03-24T14:39:22.032Z</time>
      </trkpt>
      <trkpt lat="49.34256" lon="1.39138">
        <ele>120</ele>
        <time>2026-03-24T14:39:26.238Z</time>
      </trkpt>
      <trkpt lat="49.3426" lon="1.3914">
        <ele>120</ele>
        <time>2026-03-24T14:39:30.774Z</time>
      </trkpt>
      <trkpt lat="49.34265" lon="1.39143">
        <ele>118</ele>
        <time>2026-03-24T14:39:35.552Z</time>
      </trkpt>
      <trkpt lat="49.3427" lon="1.39146">
        <ele>118</ele>
        <time>2026-03-24T14:39:40.020Z</time>
      </trkpt>
      <trkpt lat="49.34275" lon="1.39149">
        <ele>118</ele>
        <time>2026-03-24T14:39:44.595Z</time>
      </trkpt>
      <trkpt lat="49.34279" lon="1.39152">
        <ele>118</ele>
        <time>2026-03-24T14:39:48.774Z</time>
      </trkpt>
      <trkpt lat="49.34284" lon="1.39155">
        <ele>118</ele>
        <time>2026-03-24T14:39:53.179Z</time>
      </trkpt>
      <trkpt lat="49.34289" lon="1.39157">
        <ele>118</ele>
        <time>2026-03-24T14:39:57.438Z</time>
      </trkpt>
      <trkpt lat="49.34293" lon="1.39158">
        <ele>116</ele>
        <time>2026-03-24T14:40:01.458Z</time>
      </trkpt>
      <trkpt lat="49.34298" lon="1.3916">
        <ele>116</ele>
        <time>2026-03-24T14:40:05.917Z</time>
      </trkpt>
      <trkpt lat="49.34302" lon="1.39162">
        <ele>116</ele>
        <time>2026-03-24T14:40:10.052Z</time>
      </trkpt>
      <trkpt lat="49.34307" lon="1.39162">
        <ele>116</ele>
        <time>2026-03-24T14:40:14.770Z</time>
      </trkpt>
      <trkpt lat="49.34312" lon="1.39163">
        <ele>116</ele>
        <time>2026-03-24T14:40:19.255Z</time>
      </trkpt>
      <trkpt lat="49.34317" lon="1.39163">
        <ele>116</ele>
        <time>2026-03-24T14:40:23.318Z</time>
      </trkpt>
      <trkpt lat="49.34321" lon="1.39163">
        <ele>115</ele>
        <time>2026-03-24T14:40:27.358Z</time>
      </trkpt>
      <trkpt lat="49.34326" lon="1.39162">
        <ele>115</ele>
        <time>2026-03-24T14:40:31.773Z</time>
      </trkpt>
      <trkpt lat="49.34331" lon="1.39161">
        <ele>115</ele>
        <time>2026-03-24T14:40:36.418Z</time>
      </trkpt>
      <trkpt lat="49.34336" lon="1.3916">
        <ele>115</ele>
        <time>2026-03-24T14:40:40.438Z</time>
      </trkpt>
      <trkpt lat="49.34341" lon="1.3916">
        <ele>115</ele>
        <time>2026-03-24T14:40:45.020Z</time>
      </trkpt>
      <trkpt lat="49.34346" lon="1.39159">
        <ele>115</ele>
        <time>2026-03-24T14:40:49.077Z</time>
      </trkpt>
      <trkpt lat="49.3435" lon="1.39158">
        <ele>115</ele>
        <time>2026-03-24T14:40:53.194Z</time>
      </trkpt>
      <trkpt lat="49.34355" lon="1.39159">
        <ele>115</ele>
        <time>2026-03-24T14:40:57.275Z</time>
      </trkpt>
      <trkpt lat="49.3436" lon="1.39159">
        <ele>115</ele>
        <time>2026-03-24T14:41:01.774Z</time>
      </trkpt>
      <trkpt lat="49.34365" lon="1.39161">
        <ele>115</ele>
        <time>2026-03-24T14:41:05.993Z</time>
      </trkpt>
      <trkpt lat="49.34369" lon="1.39164">
        <ele>115</ele>
        <time>2026-03-24T14:41:10.138Z</time>
      </trkpt>
      <trkpt lat="49.34373" lon="1.39167">
        <ele>115</ele>
        <time>2026-03-24T14:41:14.739Z</time>
      </trkpt>
      <trkpt lat="49.34378" lon="1.39171">
        <ele>114</ele>
        <time>2026-03-24T14:41:19.292Z</time>
      </trkpt>
      <trkpt lat="49.34381" lon="1.39176">
        <ele>114</ele>
        <time>2026-03-24T14:41:23.392Z</time>
      </trkpt>
      <trkpt lat="49.34385" lon="1.39179">
        <ele>114</ele>
        <time>2026-03-24T14:41:27.678Z</time>
      </trkpt>
      <trkpt lat="49.34389" lon="1.39183">
        <ele>113</ele>
        <time>2026-03-24T14:41:31.774Z</time>
      </trkpt>
      <trkpt lat="49.34392" lon="1.39188">
        <ele>113</ele>
        <time>2026-03-24T14:41:36.095Z</time>
      </trkpt>
      <trkpt lat="49.34396" lon="1.39191">
        <ele>113</ele>
        <time>2026-03-24T14:41:40.353Z</time>
      </trkpt>
      <trkpt lat="49.344" lon="1.39196">
        <ele>113</ele>
        <time>2026-03-24T14:41:44.498Z</time>
      </trkpt>
      <trkpt lat="49.34403" lon="1.39199">
        <ele>113</ele>
        <time>2026-03-24T14:41:48.518Z</time>
      </trkpt>
      <trkpt lat="49.34407" lon="1.39202">
        <ele>113</ele>
        <time>2026-03-24T14:41:52.698Z</time>
      </trkpt>
      <trkpt lat="49.34411" lon="1.39206">
        <ele>113</ele>
        <time>2026-03-24T14:41:56.813Z</time>
      </trkpt>
      <trkpt lat="49.34414" lon="1.3921">
        <ele>111</ele>
        <time>2026-03-24T14:42:01.079Z</time>
      </trkpt>
      <trkpt lat="49.34418" lon="1.39214">
        <ele>111</ele>
        <time>2026-03-24T14:42:05.233Z</time>
      </trkpt>
      <trkpt lat="49.34421" lon="1.39219">
        <ele>111</ele>
        <time>2026-03-24T14:42:09.560Z</time>
      </trkpt>
      <trkpt lat="49.34425" lon="1.39224">
        <ele>111</ele>
        <time>2026-03-24T14:42:13.597Z</time>
      </trkpt>
      <trkpt lat="49.34429" lon="1.39228">
        <ele>111</ele>
        <time>2026-03-24T14:42:17.774Z</time>
      </trkpt>
      <trkpt lat="49.34433" lon="1.39231">
        <ele>110</ele>
        <time>2026-03-24T14:42:21.973Z</time>
      </trkpt>
      <trkpt lat="49.34437" lon="1.39234">
        <ele>110</ele>
        <time>2026-03-24T14:42:26.134Z</time>
      </trkpt>
      <trkpt lat="49.34441" lon="1.3924">
        <ele>108</ele>
        <time>2026-03-24T14:42:30.777Z</time>
      </trkpt>
      <trkpt lat="49.34445" lon="1.39244">
        <ele>108</ele>
        <time>2026-03-24T14:42:35.018Z</time>
      </trkpt>
      <trkpt lat="49.34448" lon="1.39248">
        <ele>108</ele>
        <time>2026-03-24T14:42:39.293Z</time>
      </trkpt>
      <trkpt lat="49.34452" lon="1.39253">
        <ele>108</ele>
        <time>2026-03-24T14:42:43.774Z</time>
      </trkpt>
      <trkpt lat="49.34456" lon="1.39258">
        <ele>108</ele>
        <time>2026-03-24T14:42:48.020Z</time>
      </trkpt>
      <trkpt lat="49.34459" lon="1.39262">
        <ele>108</ele>
        <time>2026-03-24T14:42:52.215Z</time>
      </trkpt>
      <trkpt lat="49.34462" lon="1.39266">
        <ele>107</ele>
        <time>2026-03-24T14:42:56.299Z</time>
      </trkpt>
      <trkpt lat="49.34467" lon="1.39271">
        <ele>107</ele>
        <time>2026-03-24T14:43:00.494Z</time>
      </trkpt>
      <trkpt lat="49.34471" lon="1.39276">
        <ele>107</ele>
        <time>2026-03-24T14:43:05.234Z</time>
      </trkpt>
      <trkpt lat="49.34475" lon="1.39281">
        <ele>107</ele>
        <time>2026-03-24T14:43:09.711Z</time>
      </trkpt>
      <trkpt lat="49.34479" lon="1.39285">
        <ele>107</ele>
        <time>2026-03-24T14:43:13.838Z</time>
      </trkpt>
      <trkpt lat="49.34482" lon="1.39289">
        <ele>107</ele>
        <time>2026-03-24T14:43:17.972Z</time>
      </trkpt>
      <trkpt lat="49.34486" lon="1.39294">
        <ele>105</ele>
        <time>2026-03-24T14:43:22.115Z</time>
      </trkpt>
      <trkpt lat="49.34489" lon="1.39298">
        <ele>104</ele>
        <time>2026-03-24T14:43:26.172Z</time>
      </trkpt>
      <trkpt lat="49.34492" lon="1.39302">
        <ele>104</ele>
        <time>2026-03-24T14:43:30.237Z</time>
      </trkpt>
      <trkpt lat="49.34496" lon="1.39307">
        <ele>104</ele>
        <time>2026-03-24T14:43:34.538Z</time>
      </trkpt>
      <trkpt lat="49.345" lon="1.39311">
        <ele>104</ele>
        <time>2026-03-24T14:43:38.774Z</time>
      </trkpt>
      <trkpt lat="49.34503" lon="1.39316">
        <ele>104</ele>
        <time>2026-03-24T14:43:43.018Z</time>
      </trkpt>
      <trkpt lat="49.34505" lon="1.39319">
        <ele>104</ele>
        <time>2026-03-24T14:43:47.092Z</time>
      </trkpt>
      <trkpt lat="49.3451" lon="1.39325">
        <ele>101</ele>
        <time>2026-03-24T14:43:51.314Z</time>
      </trkpt>
      <trkpt lat="49.34513" lon="1.39331">
        <ele>101</ele>
        <time>2026-03-24T14:43:55.440Z</time>
      </trkpt>
      <trkpt lat="49.34516" lon="1.39337">
        <ele>103</ele>
        <time>2026-03-24T14:44:00.118Z</time>
      </trkpt>
      <trkpt lat="49.34519" lon="1.39343">
        <ele>103</ele>
        <time>2026-03-24T14:44:04.738Z</time>
      </trkpt>
      <trkpt lat="49.34522" lon="1.3935">
        <ele>100</ele>
        <time>2026-03-24T14:44:09.275Z</time>
      </trkpt>
      <trkpt lat="49.34525" lon="1.39355">
        <ele>100</ele>
        <time>2026-03-24T14:44:13.313Z</time>
      </trkpt>
      <trkpt lat="49.34527" lon="1.39361">
        <ele>100</ele>
        <time>2026-03-24T14:44:17.518Z</time>
      </trkpt>
      <trkpt lat="49.34531" lon="1.39367">
        <ele>100</ele>
        <time>2026-03-24T14:44:22.118Z</time>
      </trkpt>
      <trkpt lat="49.34533" lon="1.39373">
        <ele>100</ele>
        <time>2026-03-24T14:44:26.159Z</time>
      </trkpt>
      <trkpt lat="49.34537" lon="1.3938">
        <ele>98</ele>
        <time>2026-03-24T14:44:30.739Z</time>
      </trkpt>
      <trkpt lat="49.34539" lon="1.39385">
        <ele>98</ele>
        <time>2026-03-24T14:44:34.774Z</time>
      </trkpt>
      <trkpt lat="49.34542" lon="1.39391">
        <ele>100</ele>
        <time>2026-03-24T14:44:38.878Z</time>
      </trkpt>
      <trkpt lat="49.34544" lon="1.39397">
        <ele>100</ele>
        <time>2026-03-24T14:44:43.178Z</time>
      </trkpt>
      <trkpt lat="49.34546" lon="1.39404">
        <ele>97</ele>
        <time>2026-03-24T14:44:47.752Z</time>
      </trkpt>
      <trkpt lat="49.34549" lon="1.39411">
        <ele>97</ele>
        <time>2026-03-24T14:44:52.335Z</time>
      </trkpt>
      <trkpt lat="49.34551" lon="1.39418">
        <ele>97</ele>
        <time>2026-03-24T14:44:56.774Z</time>
      </trkpt>
      <trkpt lat="49.34554" lon="1.39425">
        <ele>97</ele>
        <time>2026-03-24T14:45:00.878Z</time>
      </trkpt>
      <trkpt lat="49.34556" lon="1.39431">
        <ele>96</ele>
        <time>2026-03-24T14:45:05.073Z</time>
      </trkpt>
      <trkpt lat="49.34559" lon="1.39438">
        <ele>96</ele>
        <time>2026-03-24T14:45:09.638Z</time>
      </trkpt>
      <trkpt lat="49.34562" lon="1.39446">
        <ele>96</ele>
        <time>2026-03-24T14:45:14.220Z</time>
      </trkpt>
      <trkpt lat="49.34564" lon="1.39453">
        <ele>96</ele>
        <time>2026-03-24T14:45:18.774Z</time>
      </trkpt>
      <trkpt lat="49.34567" lon="1.39459">
        <ele>98</ele>
        <time>2026-03-24T14:45:22.919Z</time>
      </trkpt>
      <trkpt lat="49.3457" lon="1.39465">
        <ele>97</ele>
        <time>2026-03-24T14:45:27.133Z</time>
      </trkpt>
      <trkpt lat="49.34572" lon="1.39471">
        <ele>97</ele>
        <time>2026-03-24T14:45:31.154Z</time>
      </trkpt>
      <trkpt lat="49.34576" lon="1.39475">
        <ele>97</ele>
        <time>2026-03-24T14:45:35.456Z</time>
      </trkpt>
      <trkpt lat="49.34581" lon="1.39476">
        <ele>97</ele>
        <time>2026-03-24T14:45:39.774Z</time>
      </trkpt>
      <trkpt lat="49.34587" lon="1.39477">
        <ele>97</ele>
        <time>2026-03-24T14:45:44.454Z</time>
      </trkpt>
      <trkpt lat="49.3459" lon="1.39475">
        <ele>97</ele>
        <time>2026-03-24T14:45:48.475Z</time>
      </trkpt>
      <trkpt lat="49.34595" lon="1.39473">
        <ele>97</ele>
        <time>2026-03-24T14:45:52.699Z</time>
      </trkpt>
      <trkpt lat="49.34599" lon="1.39472">
        <ele>96</ele>
        <time>2026-03-24T14:45:56.774Z</time>
      </trkpt>
      <trkpt lat="49.34603" lon="1.39471">
        <ele>96</ele>
        <time>2026-03-24T14:46:00.958Z</time>
      </trkpt>
      <trkpt lat="49.34608" lon="1.3947">
        <ele>96</ele>
        <time>2026-03-24T14:46:05.032Z</time>
      </trkpt>
      <trkpt lat="49.34613" lon="1.39468">
        <ele>96</ele>
        <time>2026-03-24T14:46:09.378Z</time>
      </trkpt>
      <trkpt lat="49.34617" lon="1.39465">
        <ele>96</ele>
        <time>2026-03-24T14:46:13.416Z</time>
      </trkpt>
      <trkpt lat="49.34622" lon="1.39462">
        <ele>96</ele>
        <time>2026-03-24T14:46:17.612Z</time>
      </trkpt>
      <trkpt lat="49.34626" lon="1.39458">
        <ele>95</ele>
        <time>2026-03-24T14:46:21.774Z</time>
      </trkpt>
      <trkpt lat="49.34631" lon="1.39454">
        <ele>95</ele>
        <time>2026-03-24T14:46:26.452Z</time>
      </trkpt>
      <trkpt lat="49.34635" lon="1.3945">
        <ele>95</ele>
        <time>2026-03-24T14:46:30.774Z</time>
      </trkpt>
      <trkpt lat="49.3464" lon="1.39445">
        <ele>95</ele>
        <time>2026-03-24T14:46:35.415Z</time>
      </trkpt>
      <trkpt lat="49.34644" lon="1.3944">
        <ele>95</ele>
        <time>2026-03-24T14:46:39.558Z</time>
      </trkpt>
      <trkpt lat="49.34648" lon="1.39436">
        <ele>95</ele>
        <time>2026-03-24T14:46:43.693Z</time>
      </trkpt>
      <trkpt lat="49.34653" lon="1.39431">
        <ele>95</ele>
        <time>2026-03-24T14:46:48.181Z</time>
      </trkpt>
      <trkpt lat="49.34657" lon="1.39427">
        <ele>94</ele>
        <time>2026-03-24T14:46:52.595Z</time>
      </trkpt>
      <trkpt lat="49.34661" lon="1.39423">
        <ele>94</ele>
        <time>2026-03-24T14:46:56.773Z</time>
      </trkpt>
      <trkpt lat="49.34666" lon="1.3942">
        <ele>94</ele>
        <time>2026-03-24T14:47:00.774Z</time>
      </trkpt>
      <trkpt lat="49.3467" lon="1.39417">
        <ele>94</ele>
        <time>2026-03-24T14:47:04.878Z</time>
      </trkpt>
      <trkpt lat="49.34675" lon="1.39414">
        <ele>94</ele>
        <time>2026-03-24T14:47:09.055Z</time>
      </trkpt>
      <trkpt lat="49.34679" lon="1.39411">
        <ele>94</ele>
        <time>2026-03-24T14:47:13.279Z</time>
      </trkpt>
      <trkpt lat="49.34685" lon="1.39408">
        <ele>93</ele>
        <time>2026-03-24T14:47:17.395Z</time>
      </trkpt>
      <trkpt lat="49.34689" lon="1.39406">
        <ele>93</ele>
        <time>2026-03-24T14:47:21.460Z</time>
      </trkpt>
      <trkpt lat="49.34694" lon="1.39404">
        <ele>93</ele>
        <time>2026-03-24T14:47:25.612Z</time>
      </trkpt>
      <trkpt lat="49.34698" lon="1.39401">
        <ele>92</ele>
        <time>2026-03-24T14:47:29.714Z</time>
      </trkpt>
      <trkpt lat="49.34703" lon="1.39398">
        <ele>92</ele>
        <time>2026-03-24T14:47:33.873Z</time>
      </trkpt>
      <trkpt lat="49.34708" lon="1.39396">
        <ele>92</ele>
        <time>2026-03-24T14:47:38.738Z</time>
      </trkpt>
      <trkpt lat="49.34713" lon="1.39394">
        <ele>90</ele>
        <time>2026-03-24T14:47:42.958Z</time>
      </trkpt>
      <trkpt lat="49.34718" lon="1.39392">
        <ele>90</ele>
        <time>2026-03-24T14:47:47.219Z</time>
      </trkpt>
      <trkpt lat="49.34723" lon="1.39391">
        <ele>90</ele>
        <time>2026-03-24T14:47:51.774Z</time>
      </trkpt>
      <trkpt lat="49.34729" lon="1.39392">
        <ele>90</ele>
        <time>2026-03-24T14:47:56.418Z</time>
      </trkpt>
      <trkpt lat="49.34734" lon="1.39394">
        <ele>90</ele>
        <time>2026-03-24T14:48:00.473Z</time>
      </trkpt>
      <trkpt lat="49.34738" lon="1.39397">
        <ele>89</ele>
        <time>2026-03-24T14:48:04.618Z</time>
      </trkpt>
      <trkpt lat="49.34743" lon="1.39397">
        <ele>89</ele>
        <time>2026-03-24T14:48:08.654Z</time>
      </trkpt>
      <trkpt lat="49.34748" lon="1.39397">
        <ele>89</ele>
        <time>2026-03-24T14:48:12.774Z</time>
      </trkpt>
      <trkpt lat="49.34753" lon="1.39396">
        <ele>89</ele>
        <time>2026-03-24T14:48:17.055Z</time>
      </trkpt>
      <trkpt lat="49.34757" lon="1.39395">
        <ele>89</ele>
        <time>2026-03-24T14:48:21.252Z</time>
      </trkpt>
      <trkpt lat="49.34762" lon="1.39396">
        <ele>89</ele>
        <time>2026-03-24T14:48:25.272Z</time>
      </trkpt>
      <trkpt lat="49.34766" lon="1.39397">
        <ele>90</ele>
        <time>2026-03-24T14:48:29.319Z</time>
      </trkpt>
      <trkpt lat="49.34772" lon="1.39397">
        <ele>90</ele>
        <time>2026-03-24T14:48:33.559Z</time>
      </trkpt>
      <trkpt lat="49.34776" lon="1.39397">
        <ele>90</ele>
        <time>2026-03-24T14:48:37.711Z</time>
      </trkpt>
      <trkpt lat="49.34781" lon="1.39396">
        <ele>90</ele>
        <time>2026-03-24T14:48:41.773Z</time>
      </trkpt>
      <trkpt lat="49.34786" lon="1.39396">
        <ele>90</ele>
        <time>2026-03-24T14:48:46.079Z</time>
      </trkpt>
      <trkpt lat="49.34791" lon="1.39396">
        <ele>90</ele>
        <time>2026-03-24T14:48:50.292Z</time>
      </trkpt>
      <trkpt lat="49.34796" lon="1.39396">
        <ele>90</ele>
        <time>2026-03-24T14:48:54.772Z</time>
      </trkpt>
      <trkpt lat="49.34798" lon="1.39394">
        <ele>90</ele>
        <time>2026-03-24T14:48:59.772Z</time>
      </trkpt>
      <trkpt lat="49.34798" lon="1.39394">
        <ele>90</ele>
        <time>2026-03-24T14:49:04.778Z</time>
      </trkpt>
      <trkpt lat="49.34801" lon="1.39394">
        <ele>90</ele>
        <time>2026-03-24T14:49:09.412Z</time>
      </trkpt>
      <trkpt lat="49.34801" lon="1.39386">
        <ele>90</ele>
        <time>2026-03-24T14:49:13.599Z</time>
      </trkpt>
      <trkpt lat="49.348" lon="1.39379">
        <ele>90</ele>
        <time>2026-03-24T14:49:17.638Z</time>
      </trkpt>
      <trkpt lat="49.34799" lon="1.39372">
        <ele>91</ele>
        <time>2026-03-24T14:49:21.693Z</time>
      </trkpt>
      <trkpt lat="49.34797" lon="1.39365">
        <ele>91</ele>
        <time>2026-03-24T14:49:25.933Z</time>
      </trkpt>
      <trkpt lat="49.34797" lon="1.3936">
        <ele>91</ele>
        <time>2026-03-24T14:49:30.332Z</time>
      </trkpt>
      <trkpt lat="49.34799" lon="1.39352">
        <ele>91</ele>
        <time>2026-03-24T14:49:34.644Z</time>
      </trkpt>
      <trkpt lat="49.34803" lon="1.39346">
        <ele>95</ele>
        <time>2026-03-24T14:49:38.772Z</time>
      </trkpt>
      <trkpt lat="49.34809" lon="1.39343">
        <ele>95</ele>
        <time>2026-03-24T14:49:43.035Z</time>
      </trkpt>
      <trkpt lat="49.34814" lon="1.39341">
        <ele>95</ele>
        <time>2026-03-24T14:49:47.259Z</time>
      </trkpt>
      <trkpt lat="49.34819" lon="1.39339">
        <ele>95</ele>
        <time>2026-03-24T14:49:51.559Z</time>
      </trkpt>
      <trkpt lat="49.34823" lon="1.39337">
        <ele>93</ele>
        <time>2026-03-24T14:49:55.773Z</time>
      </trkpt>
      <trkpt lat="49.34828" lon="1.39335">
        <ele>93</ele>
        <time>2026-03-24T14:50:00.093Z</time>
      </trkpt>
      <trkpt lat="49.34833" lon="1.39333">
        <ele>93</ele>
        <time>2026-03-24T14:50:04.298Z</time>
      </trkpt>
      <trkpt lat="49.34838" lon="1.39331">
        <ele>93</ele>
        <time>2026-03-24T14:50:08.539Z</time>
      </trkpt>
      <trkpt lat="49.34843" lon="1.39328">
        <ele>93</ele>
        <time>2026-03-24T14:50:12.594Z</time>
      </trkpt>
      <trkpt lat="49.34847" lon="1.39325">
        <ele>93</ele>
        <time>2026-03-24T14:50:16.738Z</time>
      </trkpt>
      <trkpt lat="49.34851" lon="1.39324">
        <ele>91</ele>
        <time>2026-03-24T14:50:20.772Z</time>
      </trkpt>
      <trkpt lat="49.34856" lon="1.39322">
        <ele>91</ele>
        <time>2026-03-24T14:50:24.998Z</time>
      </trkpt>
      <trkpt lat="49.3486" lon="1.39319">
        <ele>95</ele>
        <time>2026-03-24T14:50:29.037Z</time>
      </trkpt>
      <trkpt lat="49.34865" lon="1.39316">
        <ele>95</ele>
        <time>2026-03-24T14:50:33.118Z</time>
      </trkpt>
      <trkpt lat="49.34869" lon="1.39313">
        <ele>95</ele>
        <time>2026-03-24T14:50:37.218Z</time>
      </trkpt>
      <trkpt lat="49.34874" lon="1.3931">
        <ele>95</ele>
        <time>2026-03-24T14:50:41.301Z</time>
      </trkpt>
      <trkpt lat="49.34878" lon="1.39307">
        <ele>90</ele>
        <time>2026-03-24T14:50:45.452Z</time>
      </trkpt>
      <trkpt lat="49.34882" lon="1.39306">
        <ele>90</ele>
        <time>2026-03-24T14:50:49.552Z</time>
      </trkpt>
      <trkpt lat="49.34887" lon="1.39303">
        <ele>90</ele>
        <time>2026-03-24T14:50:53.772Z</time>
      </trkpt>
      <trkpt lat="49.34891" lon="1.393">
        <ele>90</ele>
        <time>2026-03-24T14:50:58.234Z</time>
      </trkpt>
      <trkpt lat="49.34896" lon="1.39297">
        <ele>90</ele>
        <time>2026-03-24T14:51:02.395Z</time>
      </trkpt>
      <trkpt lat="49.349" lon="1.39294">
        <ele>90</ele>
        <time>2026-03-24T14:51:06.772Z</time>
      </trkpt>
      <trkpt lat="49.34905" lon="1.3929">
        <ele>89</ele>
        <time>2026-03-24T14:51:11.236Z</time>
      </trkpt>
      <trkpt lat="49.34909" lon="1.39287">
        <ele>89</ele>
        <time>2026-03-24T14:51:15.414Z</time>
      </trkpt>
      <trkpt lat="49.34914" lon="1.39283">
        <ele>89</ele>
        <time>2026-03-24T14:51:19.998Z</time>
      </trkpt>
      <trkpt lat="49.34918" lon="1.39278">
        <ele>89</ele>
        <time>2026-03-24T14:51:24.440Z</time>
      </trkpt>
      <trkpt lat="49.34921" lon="1.39273">
        <ele>89</ele>
        <time>2026-03-24T14:51:28.495Z</time>
      </trkpt>
      <trkpt lat="49.34925" lon="1.39268">
        <ele>89</ele>
        <time>2026-03-24T14:51:32.559Z</time>
      </trkpt>
      <trkpt lat="49.34928" lon="1.39263">
        <ele>91</ele>
        <time>2026-03-24T14:51:36.773Z</time>
      </trkpt>
      <trkpt lat="49.34932" lon="1.39257">
        <ele>85</ele>
        <time>2026-03-24T14:51:41.259Z</time>
      </trkpt>
      <trkpt lat="49.34936" lon="1.39251">
        <ele>85</ele>
        <time>2026-03-24T14:51:45.473Z</time>
      </trkpt>
      <trkpt lat="49.34939" lon="1.39247">
        <ele>85</ele>
        <time>2026-03-24T14:51:50.118Z</time>
      </trkpt>
      <trkpt lat="49.34942" lon="1.3924">
        <ele>85</ele>
        <time>2026-03-24T14:51:54.700Z</time>
      </trkpt>
      <trkpt lat="49.34945" lon="1.39234">
        <ele>86</ele>
        <time>2026-03-24T14:51:59.494Z</time>
      </trkpt>
      <trkpt lat="49.34949" lon="1.39228">
        <ele>86</ele>
        <time>2026-03-24T14:52:03.759Z</time>
      </trkpt>
      <trkpt lat="49.34952" lon="1.39223">
        <ele>86</ele>
        <time>2026-03-24T14:52:08.098Z</time>
      </trkpt>
      <trkpt lat="49.34956" lon="1.39217">
        <ele>86</ele>
        <time>2026-03-24T14:52:12.652Z</time>
      </trkpt>
      <trkpt lat="49.34959" lon="1.39211">
        <ele>84</ele>
        <time>2026-03-24T14:52:16.718Z</time>
      </trkpt>
      <trkpt lat="49.34962" lon="1.39206">
        <ele>84</ele>
        <time>2026-03-24T14:52:20.773Z</time>
      </trkpt>
      <trkpt lat="49.34966" lon="1.392">
        <ele>84</ele>
        <time>2026-03-24T14:52:25.039Z</time>
      </trkpt>
      <trkpt lat="49.34969" lon="1.39195">
        <ele>84</ele>
        <time>2026-03-24T14:52:29.234Z</time>
      </trkpt>
      <trkpt lat="49.34972" lon="1.39189">
        <ele>84</ele>
        <time>2026-03-24T14:52:33.458Z</time>
      </trkpt>
      <trkpt lat="49.34975" lon="1.39183">
        <ele>84</ele>
        <time>2026-03-24T14:52:37.655Z</time>
      </trkpt>
      <trkpt lat="49.34979" lon="1.39176">
        <ele>84</ele>
        <time>2026-03-24T14:52:42.458Z</time>
      </trkpt>
      <trkpt lat="49.34982" lon="1.39171">
        <ele>84</ele>
        <time>2026-03-24T14:52:46.635Z</time>
      </trkpt>
      <trkpt lat="49.34985" lon="1.39165">
        <ele>84</ele>
        <time>2026-03-24T14:52:50.734Z</time>
      </trkpt>
      <trkpt lat="49.34989" lon="1.39161">
        <ele>84</ele>
        <time>2026-03-24T14:52:54.833Z</time>
      </trkpt>
      <trkpt lat="49.34992" lon="1.39155">
        <ele>84</ele>
        <time>2026-03-24T14:52:59.118Z</time>
      </trkpt>
      <trkpt lat="49.34996" lon="1.3915">
        <ele>82</ele>
        <time>2026-03-24T14:53:03.332Z</time>
      </trkpt>
      <trkpt lat="49.34999" lon="1.39144">
        <ele>82</ele>
        <time>2026-03-24T14:53:07.598Z</time>
      </trkpt>
      <trkpt lat="49.35002" lon="1.39138">
        <ele>82</ele>
        <time>2026-03-24T14:53:11.971Z</time>
      </trkpt>
      <trkpt lat="49.35005" lon="1.39132">
        <ele>82</ele>
        <time>2026-03-24T14:53:16.078Z</time>
      </trkpt>
      <trkpt lat="49.35009" lon="1.39126">
        <ele>82</ele>
        <time>2026-03-24T14:53:20.698Z</time>
      </trkpt>
      <trkpt lat="49.35012" lon="1.39121">
        <ele>82</ele>
        <time>2026-03-24T14:53:24.955Z</time>
      </trkpt>
      <trkpt lat="49.35015" lon="1.39117">
        <ele>83</ele>
        <time>2026-03-24T14:53:29.159Z</time>
      </trkpt>
      <trkpt lat="49.35018" lon="1.39112">
        <ele>83</ele>
        <time>2026-03-24T14:53:33.434Z</time>
      </trkpt>
      <trkpt lat="49.35021" lon="1.39106">
        <ele>83</ele>
        <time>2026-03-24T14:53:37.772Z</time>
      </trkpt>
      <trkpt lat="49.35024" lon="1.39101">
        <ele>83</ele>
        <time>2026-03-24T14:53:42.038Z</time>
      </trkpt>
      <trkpt lat="49.35027" lon="1.39096">
        <ele>84</ele>
        <time>2026-03-24T14:53:46.295Z</time>
      </trkpt>
      <trkpt lat="49.3503" lon="1.39091">
        <ele>84</ele>
        <time>2026-03-24T14:53:50.675Z</time>
      </trkpt>
      <trkpt lat="49.35034" lon="1.39085">
        <ele>84</ele>
        <time>2026-03-24T14:53:55.013Z</time>
      </trkpt>
      <trkpt lat="49.35037" lon="1.39079">
        <ele>84</ele>
        <time>2026-03-24T14:53:59.279Z</time>
      </trkpt>
      <trkpt lat="49.3504" lon="1.39074">
        <ele>84</ele>
        <time>2026-03-24T14:54:03.441Z</time>
      </trkpt>
      <trkpt lat="49.35044" lon="1.39069">
        <ele>83</ele>
        <time>2026-03-24T14:54:07.637Z</time>
      </trkpt>
      <trkpt lat="49.35047" lon="1.39064">
        <ele>83</ele>
        <time>2026-03-24T14:54:11.753Z</time>
      </trkpt>
      <trkpt lat="49.35051" lon="1.39059">
        <ele>83</ele>
        <time>2026-03-24T14:54:16.458Z</time>
      </trkpt>
      <trkpt lat="49.35056" lon="1.39056">
        <ele>83</ele>
        <time>2026-03-24T14:54:21.033Z</time>
      </trkpt>
      <trkpt lat="49.3506" lon="1.39054">
        <ele>83</ele>
        <time>2026-03-24T14:54:25.114Z</time>
      </trkpt>
      <trkpt lat="49.35065" lon="1.39052">
        <ele>83</ele>
        <time>2026-03-24T14:54:29.355Z</time>
      </trkpt>
      <trkpt lat="49.3507" lon="1.39049">
        <ele>81</ele>
        <time>2026-03-24T14:54:33.454Z</time>
      </trkpt>
      <trkpt lat="49.35075" lon="1.39047">
        <ele>81</ele>
        <time>2026-03-24T14:54:37.659Z</time>
      </trkpt>
      <trkpt lat="49.35079" lon="1.39045">
        <ele>81</ele>
        <time>2026-03-24T14:54:41.715Z</time>
      </trkpt>
      <trkpt lat="49.35084" lon="1.39043">
        <ele>81</ele>
        <time>2026-03-24T14:54:45.773Z</time>
      </trkpt>
      <trkpt lat="49.35088" lon="1.39041">
        <ele>82</ele>
        <time>2026-03-24T14:54:50.152Z</time>
      </trkpt>
      <trkpt lat="49.35093" lon="1.39039">
        <ele>82</ele>
        <time>2026-03-24T14:54:54.375Z</time>
      </trkpt>
      <trkpt lat="49.35097" lon="1.39036">
        <ele>82</ele>
        <time>2026-03-24T14:54:58.554Z</time>
      </trkpt>
      <trkpt lat="49.35106" lon="1.39025">
        <ele>81</ele>
        <time>2026-03-24T15:07:54.772Z</time>
      </trkpt>
      <trkpt lat="49.35107" lon="1.39021">
        <ele>81</ele>
        <time>2026-03-24T15:08:00.771Z</time>
      </trkpt>
      <trkpt lat="49.35107" lon="1.39018">
        <ele>81</ele>
        <time>2026-03-24T15:08:05.772Z</time>
      </trkpt>
      <trkpt lat="49.35111" lon="1.39017">
        <ele>81</ele>
        <time>2026-03-24T15:08:10.158Z</time>
      </trkpt>
      <trkpt lat="49.35114" lon="1.39011">
        <ele>83</ele>
        <time>2026-03-24T15:08:14.653Z</time>
      </trkpt>
      <trkpt lat="49.35113" lon="1.39005">
        <ele>83</ele>
        <time>2026-03-24T15:08:19.118Z</time>
      </trkpt>
      <trkpt lat="49.35112" lon="1.39">
        <ele>83</ele>
        <time>2026-03-24T15:08:23.219Z</time>
      </trkpt>
      <trkpt lat="49.35111" lon="1.38996">
        <ele>83</ele>
        <time>2026-03-24T15:08:27.772Z</time>
      </trkpt>
      <trkpt lat="49.35111" lon="1.3899">
        <ele>83</ele>
        <time>2026-03-24T15:08:32.772Z</time>
      </trkpt>
      <trkpt lat="49.35113" lon="1.38985">
        <ele>86</ele>
        <time>2026-03-24T15:08:37.012Z</time>
      </trkpt>
      <trkpt lat="49.35116" lon="1.38983">
        <ele>86</ele>
        <time>2026-03-24T15:08:41.772Z</time>
      </trkpt>
      <trkpt lat="49.35117" lon="1.38983">
        <ele>86</ele>
        <time>2026-03-24T15:08:46.158Z</time>
      </trkpt>
      <trkpt lat="49.35119" lon="1.38983">
        <ele>86</ele>
        <time>2026-03-24T15:08:50.264Z</time>
      </trkpt>
      <trkpt lat="49.35123" lon="1.38979">
        <ele>86</ele>
        <time>2026-03-24T15:08:54.418Z</time>
      </trkpt>
      <trkpt lat="49.35122" lon="1.38969">
        <ele>86</ele>
        <time>2026-03-24T15:09:22.641Z</time>
      </trkpt>
      <trkpt lat="49.35123" lon="1.38965">
        <ele>86</ele>
        <time>2026-03-24T15:09:26.772Z</time>
      </trkpt>
      <trkpt lat="49.35123" lon="1.38963">
        <ele>86</ele>
        <time>2026-03-24T15:09:31.772Z</time>
      </trkpt>
      <trkpt lat="49.35123" lon="1.38961">
        <ele>86</ele>
        <time>2026-03-24T15:09:36.112Z</time>
      </trkpt>
      <trkpt lat="49.35125" lon="1.38957">
        <ele>91</ele>
        <time>2026-03-24T15:09:40.303Z</time>
      </trkpt>
      <trkpt lat="49.35127" lon="1.38953">
        <ele>91</ele>
        <time>2026-03-24T15:09:44.579Z</time>
      </trkpt>
      <trkpt lat="49.35128" lon="1.38947">
        <ele>91</ele>
        <time>2026-03-24T15:09:48.772Z</time>
      </trkpt>
      <trkpt lat="49.35128" lon="1.38944">
        <ele>91</ele>
        <time>2026-03-24T15:09:53.338Z</time>
      </trkpt>
      <trkpt lat="49.35129" lon="1.38941">
        <ele>91</ele>
        <time>2026-03-24T15:09:57.772Z</time>
      </trkpt>
      <trkpt lat="49.35129" lon="1.38939">
        <ele>91</ele>
        <time>2026-03-24T15:10:02.573Z</time>
      </trkpt>
      <trkpt lat="49.35132" lon="1.38938">
        <ele>91</ele>
        <time>2026-03-24T15:10:06.772Z</time>
      </trkpt>
      <trkpt lat="49.35136" lon="1.38937">
        <ele>91</ele>
        <time>2026-03-24T15:10:11.772Z</time>
      </trkpt>
      <trkpt lat="49.35139" lon="1.38934">
        <ele>91</ele>
        <time>2026-03-24T15:10:16.338Z</time>
      </trkpt>
      <trkpt lat="49.35141" lon="1.38931">
        <ele>91</ele>
        <time>2026-03-24T15:10:20.561Z</time>
      </trkpt>
      <trkpt lat="49.35144" lon="1.38927">
        <ele>95</ele>
        <time>2026-03-24T15:10:25.542Z</time>
      </trkpt>
      <trkpt lat="49.35146" lon="1.38923">
        <ele>95</ele>
        <time>2026-03-24T15:10:29.659Z</time>
      </trkpt>
      <trkpt lat="49.35148" lon="1.3892">
        <ele>95</ele>
        <time>2026-03-24T15:10:33.772Z</time>
      </trkpt>
      <trkpt lat="49.35151" lon="1.38917">
        <ele>95</ele>
        <time>2026-03-24T15:10:38.772Z</time>
      </trkpt>
      <trkpt lat="49.35153" lon="1.38915">
        <ele>95</ele>
        <time>2026-03-24T15:10:43.315Z</time>
      </trkpt>
      <trkpt lat="49.35156" lon="1.38913">
        <ele>95</ele>
        <time>2026-03-24T15:10:47.498Z</time>
      </trkpt>
      <trkpt lat="49.35158" lon="1.3891">
        <ele>95</ele>
        <time>2026-03-24T15:10:52.239Z</time>
      </trkpt>
      <trkpt lat="49.35161" lon="1.3891">
        <ele>95</ele>
        <time>2026-03-24T15:10:56.400Z</time>
      </trkpt>
      <trkpt lat="49.35164" lon="1.38909">
        <ele>95</ele>
        <time>2026-03-24T15:11:00.618Z</time>
      </trkpt>
      <trkpt lat="49.35165" lon="1.38907">
        <ele>95</ele>
        <time>2026-03-24T15:11:05.333Z</time>
      </trkpt>
      <trkpt lat="49.35167" lon="1.38903">
        <ele>95</ele>
        <time>2026-03-24T15:11:09.772Z</time>
      </trkpt>
      <trkpt lat="49.35168" lon="1.38899">
        <ele>100</ele>
        <time>2026-03-24T15:11:14.142Z</time>
      </trkpt>
      <trkpt lat="49.35169" lon="1.38896">
        <ele>100</ele>
        <time>2026-03-24T15:11:18.638Z</time>
      </trkpt>
      <trkpt lat="49.35171" lon="1.38894">
        <ele>100</ele>
        <time>2026-03-24T15:11:22.771Z</time>
      </trkpt>
      <trkpt lat="49.35173" lon="1.38892">
        <ele>100</ele>
        <time>2026-03-24T15:11:27.222Z</time>
      </trkpt>
      <trkpt lat="49.35174" lon="1.3889">
        <ele>100</ele>
        <time>2026-03-24T15:11:31.277Z</time>
      </trkpt>
      <trkpt lat="49.35175" lon="1.38887">
        <ele>100</ele>
        <time>2026-03-24T15:11:35.697Z</time>
      </trkpt>
      <trkpt lat="49.35177" lon="1.38884">
        <ele>100</ele>
        <time>2026-03-24T15:11:39.772Z</time>
      </trkpt>
      <trkpt lat="49.3518" lon="1.38878">
        <ele>100</ele>
        <time>2026-03-24T15:11:44.740Z</time>
      </trkpt>
      <trkpt lat="49.35182" lon="1.38872">
        <ele>106</ele>
        <time>2026-03-24T15:12:06.771Z</time>
      </trkpt>
      <trkpt lat="49.35183" lon="1.3887">
        <ele>106</ele>
        <time>2026-03-24T15:12:11.771Z</time>
      </trkpt>
      <trkpt lat="49.35185" lon="1.38869">
        <ele>106</ele>
        <time>2026-03-24T15:12:15.771Z</time>
      </trkpt>
      <trkpt lat="49.35187" lon="1.38869">
        <ele>106</ele>
        <time>2026-03-24T15:12:20.771Z</time>
      </trkpt>
      <trkpt lat="49.35189" lon="1.38867">
        <ele>106</ele>
        <time>2026-03-24T15:12:25.333Z</time>
      </trkpt>
      <trkpt lat="49.35193" lon="1.38864">
        <ele>106</ele>
        <time>2026-03-24T15:12:29.713Z</time>
      </trkpt>
      <trkpt lat="49.35196" lon="1.38864">
        <ele>106</ele>
        <time>2026-03-24T15:12:33.770Z</time>
      </trkpt>
      <trkpt lat="49.35201" lon="1.38865">
        <ele>106</ele>
        <time>2026-03-24T15:12:38.498Z</time>
      </trkpt>
      <trkpt lat="49.35206" lon="1.38866">
        <ele>106</ele>
        <time>2026-03-24T15:12:42.771Z</time>
      </trkpt>
      <trkpt lat="49.3521" lon="1.38865">
        <ele>108</ele>
        <time>2026-03-24T15:12:47.519Z</time>
      </trkpt>
      <trkpt lat="49.35214" lon="1.38864">
        <ele>108</ele>
        <time>2026-03-24T15:12:51.770Z</time>
      </trkpt>
      <trkpt lat="49.35218" lon="1.38864">
        <ele>108</ele>
        <time>2026-03-24T15:12:56.402Z</time>
      </trkpt>
      <trkpt lat="49.35221" lon="1.38863">
        <ele>108</ele>
        <time>2026-03-24T15:13:01.199Z</time>
      </trkpt>
      <trkpt lat="49.35225" lon="1.38861">
        <ele>108</ele>
        <time>2026-03-24T15:13:05.434Z</time>
      </trkpt>
      <trkpt lat="49.35228" lon="1.38857">
        <ele>108</ele>
        <time>2026-03-24T15:13:10.279Z</time>
      </trkpt>
      <trkpt lat="49.35231" lon="1.38855">
        <ele>108</ele>
        <time>2026-03-24T15:13:14.771Z</time>
      </trkpt>
      <trkpt lat="49.35235" lon="1.38854">
        <ele>108</ele>
        <time>2026-03-24T15:13:19.771Z</time>
      </trkpt>
      <trkpt lat="49.35239" lon="1.38855">
        <ele>110</ele>
        <time>2026-03-24T15:13:24.679Z</time>
      </trkpt>
      <trkpt lat="49.35242" lon="1.38855">
        <ele>110</ele>
        <time>2026-03-24T15:13:28.771Z</time>
      </trkpt>
      <trkpt lat="49.35245" lon="1.38854">
        <ele>110</ele>
        <time>2026-03-24T15:13:33.315Z</time>
      </trkpt>
      <trkpt lat="49.35248" lon="1.38852">
        <ele>110</ele>
        <time>2026-03-24T15:13:37.771Z</time>
      </trkpt>
      <trkpt lat="49.35251" lon="1.3885">
        <ele>110</ele>
        <time>2026-03-24T15:13:41.770Z</time>
      </trkpt>
      <trkpt lat="49.35254" lon="1.38848">
        <ele>110</ele>
        <time>2026-03-24T15:13:46.738Z</time>
      </trkpt>
      <trkpt lat="49.35256" lon="1.38846">
        <ele>114</ele>
        <time>2026-03-24T15:13:50.771Z</time>
      </trkpt>
      <trkpt lat="49.35259" lon="1.38844">
        <ele>114</ele>
        <time>2026-03-24T15:13:55.771Z</time>
      </trkpt>
      <trkpt lat="49.35261" lon="1.38844">
        <ele>114</ele>
        <time>2026-03-24T15:13:59.770Z</time>
      </trkpt>
      <trkpt lat="49.35265" lon="1.38843">
        <ele>114</ele>
        <time>2026-03-24T15:14:04.391Z</time>
      </trkpt>
      <trkpt lat="49.35268" lon="1.38843">
        <ele>114</ele>
        <time>2026-03-24T15:14:08.598Z</time>
      </trkpt>
      <trkpt lat="49.3527" lon="1.38841">
        <ele>114</ele>
        <time>2026-03-24T15:14:12.770Z</time>
      </trkpt>
      <trkpt lat="49.35272" lon="1.38838">
        <ele>114</ele>
        <time>2026-03-24T15:14:17.678Z</time>
      </trkpt>
      <trkpt lat="49.35275" lon="1.38835">
        <ele>114</ele>
        <time>2026-03-24T15:14:21.773Z</time>
      </trkpt>
      <trkpt lat="49.35276" lon="1.38829">
        <ele>114</ele>
        <time>2026-03-24T15:14:26.539Z</time>
      </trkpt>
      <trkpt lat="49.35277" lon="1.38824">
        <ele>114</ele>
        <time>2026-03-24T15:14:31.519Z</time>
      </trkpt>
      <trkpt lat="49.35278" lon="1.38821">
        <ele>114</ele>
        <time>2026-03-24T15:14:35.634Z</time>
      </trkpt>
      <trkpt lat="49.35279" lon="1.38817">
        <ele>118</ele>
        <time>2026-03-24T15:14:39.771Z</time>
      </trkpt>
      <trkpt lat="49.35281" lon="1.38813">
        <ele>118</ele>
        <time>2026-03-24T15:14:44.771Z</time>
      </trkpt>
      <trkpt lat="49.35283" lon="1.3881">
        <ele>118</ele>
        <time>2026-03-24T15:14:49.770Z</time>
      </trkpt>
      <trkpt lat="49.35285" lon="1.38805">
        <ele>118</ele>
        <time>2026-03-24T15:14:54.102Z</time>
      </trkpt>
      <trkpt lat="49.35287" lon="1.388">
        <ele>118</ele>
        <time>2026-03-24T15:14:58.771Z</time>
      </trkpt>
      <trkpt lat="49.35288" lon="1.38795">
        <ele>118</ele>
        <time>2026-03-24T15:15:03.771Z</time>
      </trkpt>
      <trkpt lat="49.3529" lon="1.3879">
        <ele>120</ele>
        <time>2026-03-24T15:15:08.712Z</time>
      </trkpt>
      <trkpt lat="49.35292" lon="1.38788">
        <ele>121</ele>
        <time>2026-03-24T15:15:12.770Z</time>
      </trkpt>
      <trkpt lat="49.35295" lon="1.38785">
        <ele>121</ele>
        <time>2026-03-24T15:15:16.770Z</time>
      </trkpt>
      <trkpt lat="49.35299" lon="1.38785">
        <ele>121</ele>
        <time>2026-03-24T15:15:21.243Z</time>
      </trkpt>
      <trkpt lat="49.35303" lon="1.38783">
        <ele>121</ele>
        <time>2026-03-24T15:15:25.771Z</time>
      </trkpt>
      <trkpt lat="49.35304" lon="1.38781">
        <ele>121</ele>
        <time>2026-03-24T15:15:30.359Z</time>
      </trkpt>
      <trkpt lat="49.35307" lon="1.38777">
        <ele>121</ele>
        <time>2026-03-24T15:15:35.079Z</time>
      </trkpt>
      <trkpt lat="49.3531" lon="1.38772">
        <ele>121</ele>
        <time>2026-03-24T15:15:39.722Z</time>
      </trkpt>
      <trkpt lat="49.35312" lon="1.38769">
        <ele>121</ele>
        <time>2026-03-24T15:15:44.244Z</time>
      </trkpt>
      <trkpt lat="49.35314" lon="1.38765">
        <ele>121</ele>
        <time>2026-03-24T15:15:48.771Z</time>
      </trkpt>
      <trkpt lat="49.35316" lon="1.38761">
        <ele>123</ele>
        <time>2026-03-24T15:15:53.638Z</time>
      </trkpt>
      <trkpt lat="49.35318" lon="1.38756">
        <ele>123</ele>
        <time>2026-03-24T15:15:58.372Z</time>
      </trkpt>
      <trkpt lat="49.35319" lon="1.38751">
        <ele>122</ele>
        <time>2026-03-24T15:16:02.718Z</time>
      </trkpt>
      <trkpt lat="49.35321" lon="1.38745">
        <ele>122</ele>
        <time>2026-03-24T15:16:07.334Z</time>
      </trkpt>
      <trkpt lat="49.35322" lon="1.38741">
        <ele>122</ele>
        <time>2026-03-24T15:16:11.518Z</time>
      </trkpt>
      <trkpt lat="49.35325" lon="1.38736">
        <ele>123</ele>
        <time>2026-03-24T15:16:15.771Z</time>
      </trkpt>
      <trkpt lat="49.35327" lon="1.3873">
        <ele>123</ele>
        <time>2026-03-24T15:16:20.481Z</time>
      </trkpt>
      <trkpt lat="49.35329" lon="1.38724">
        <ele>123</ele>
        <time>2026-03-24T15:16:24.771Z</time>
      </trkpt>
      <trkpt lat="49.35331" lon="1.3872">
        <ele>123</ele>
        <time>2026-03-24T15:16:29.579Z</time>
      </trkpt>
      <trkpt lat="49.35333" lon="1.38716">
        <ele>123</ele>
        <time>2026-03-24T15:16:33.604Z</time>
      </trkpt>
      <trkpt lat="49.35335" lon="1.38711">
        <ele>123</ele>
        <time>2026-03-24T15:16:37.771Z</time>
      </trkpt>
      <trkpt lat="49.35337" lon="1.38706">
        <ele>123</ele>
        <time>2026-03-24T15:16:41.771Z</time>
      </trkpt>
      <trkpt lat="49.35338" lon="1.38701">
        <ele>123</ele>
        <time>2026-03-24T15:16:46.482Z</time>
      </trkpt>
      <trkpt lat="49.35339" lon="1.38697">
        <ele>123</ele>
        <time>2026-03-24T15:16:50.770Z</time>
      </trkpt>
      <trkpt lat="49.3534" lon="1.38691">
        <ele>123</ele>
        <time>2026-03-24T15:16:55.419Z</time>
      </trkpt>
      <trkpt lat="49.35341" lon="1.38685">
        <ele>123</ele>
        <time>2026-03-24T15:16:59.733Z</time>
      </trkpt>
      <trkpt lat="49.35344" lon="1.38682">
        <ele>123</ele>
        <time>2026-03-24T15:17:03.779Z</time>
      </trkpt>
      <trkpt lat="49.35347" lon="1.38679">
        <ele>122</ele>
        <time>2026-03-24T15:17:07.771Z</time>
      </trkpt>
      <trkpt lat="49.3535" lon="1.38676">
        <ele>122</ele>
        <time>2026-03-24T15:17:12.079Z</time>
      </trkpt>
      <trkpt lat="49.35351" lon="1.3867">
        <ele>122</ele>
        <time>2026-03-24T15:17:16.459Z</time>
      </trkpt>
      <trkpt lat="49.35352" lon="1.38663">
        <ele>122</ele>
        <time>2026-03-24T15:17:20.713Z</time>
      </trkpt>
      <trkpt lat="49.35354" lon="1.38657">
        <ele>122</ele>
        <time>2026-03-24T15:17:24.771Z</time>
      </trkpt>
      <trkpt lat="49.35356" lon="1.38652">
        <ele>121</ele>
        <time>2026-03-24T15:17:29.254Z</time>
      </trkpt>
      <trkpt lat="49.35358" lon="1.38648">
        <ele>121</ele>
        <time>2026-03-24T15:17:33.600Z</time>
      </trkpt>
      <trkpt lat="49.3536" lon="1.38645">
        <ele>121</ele>
        <time>2026-03-24T15:17:37.734Z</time>
      </trkpt>
      <trkpt lat="49.35362" lon="1.3864">
        <ele>121</ele>
        <time>2026-03-24T15:17:41.771Z</time>
      </trkpt>
      <trkpt lat="49.35367" lon="1.38627">
        <ele>121</ele>
        <time>2026-03-24T15:17:59.771Z</time>
      </trkpt>
      <trkpt lat="49.35367" lon="1.38627">
        <ele>121</ele>
        <time>2026-03-24T15:18:03.771Z</time>
      </trkpt>
      <trkpt lat="49.35367" lon="1.38627">
        <ele>121</ele>
        <time>2026-03-24T15:18:08.771Z</time>
      </trkpt>
      <trkpt lat="49.35367" lon="1.38627">
        <ele>121</ele>
        <time>2026-03-24T15:18:13.770Z</time>
      </trkpt>
      <trkpt lat="49.35369" lon="1.38625">
        <ele>120</ele>
        <time>2026-03-24T15:18:18.771Z</time>
      </trkpt>
      <trkpt lat="49.35369" lon="1.38624">
        <ele>120</ele>
        <time>2026-03-24T15:18:22.770Z</time>
      </trkpt>
      <trkpt lat="49.3537" lon="1.38622">
        <ele>120</ele>
        <time>2026-03-24T15:18:27.533Z</time>
      </trkpt>
      <trkpt lat="49.35373" lon="1.38618">
        <ele>120</ele>
        <time>2026-03-24T15:18:31.763Z</time>
      </trkpt>
      <trkpt lat="49.35376" lon="1.38614">
        <ele>121</ele>
        <time>2026-03-24T15:18:36.771Z</time>
      </trkpt>
      <trkpt lat="49.35382" lon="1.38619">
        <ele>121</ele>
        <time>2026-03-24T15:21:34.771Z</time>
      </trkpt>
      <trkpt lat="49.35382" lon="1.38618">
        <ele>121</ele>
        <time>2026-03-24T15:21:44.770Z</time>
      </trkpt>
      <trkpt lat="49.35387" lon="1.38614">
        <ele>121</ele>
        <time>2026-03-24T15:21:49.770Z</time>
      </trkpt>
      <trkpt lat="49.35392" lon="1.38611">
        <ele>121</ele>
        <time>2026-03-24T15:21:54.770Z</time>
      </trkpt>
      <trkpt lat="49.35396" lon="1.38608">
        <ele>121</ele>
        <time>2026-03-24T15:21:58.771Z</time>
      </trkpt>
      <trkpt lat="49.35401" lon="1.38604">
        <ele>121</ele>
        <time>2026-03-24T15:22:03.113Z</time>
      </trkpt>
      <trkpt lat="49.35405" lon="1.38601">
        <ele>121</ele>
        <time>2026-03-24T15:22:07.275Z</time>
      </trkpt>
      <trkpt lat="49.3541" lon="1.38599">
        <ele>121</ele>
        <time>2026-03-24T15:22:11.375Z</time>
      </trkpt>
      <trkpt lat="49.35415" lon="1.38596">
        <ele>121</ele>
        <time>2026-03-24T15:22:15.494Z</time>
      </trkpt>
      <trkpt lat="49.35419" lon="1.38593">
        <ele>121</ele>
        <time>2026-03-24T15:22:19.717Z</time>
      </trkpt>
      <trkpt lat="49.35424" lon="1.38589">
        <ele>121</ele>
        <time>2026-03-24T15:22:24.318Z</time>
      </trkpt>
      <trkpt lat="49.35428" lon="1.38586">
        <ele>121</ele>
        <time>2026-03-24T15:22:28.478Z</time>
      </trkpt>
      <trkpt lat="49.35433" lon="1.38582">
        <ele>122</ele>
        <time>2026-03-24T15:22:33.036Z</time>
      </trkpt>
      <trkpt lat="49.35437" lon="1.38579">
        <ele>122</ele>
        <time>2026-03-24T15:22:37.152Z</time>
      </trkpt>
      <trkpt lat="49.35441" lon="1.38576">
        <ele>122</ele>
        <time>2026-03-24T15:22:41.438Z</time>
      </trkpt>
      <trkpt lat="49.35445" lon="1.38573">
        <ele>122</ele>
        <time>2026-03-24T15:22:45.493Z</time>
      </trkpt>
      <trkpt lat="49.3545" lon="1.38569">
        <ele>122</ele>
        <time>2026-03-24T15:22:49.593Z</time>
      </trkpt>
      <trkpt lat="49.35454" lon="1.38566">
        <ele>122</ele>
        <time>2026-03-24T15:22:53.692Z</time>
      </trkpt>
      <trkpt lat="49.35458" lon="1.38563">
        <ele>122</ele>
        <time>2026-03-24T15:22:57.771Z</time>
      </trkpt>
      <trkpt lat="49.35463" lon="1.3856">
        <ele>123</ele>
        <time>2026-03-24T15:23:01.993Z</time>
      </trkpt>
      <trkpt lat="49.35467" lon="1.38556">
        <ele>123</ele>
        <time>2026-03-24T15:23:06.138Z</time>
      </trkpt>
      <trkpt lat="49.35471" lon="1.38553">
        <ele>123</ele>
        <time>2026-03-24T15:23:10.359Z</time>
      </trkpt>
      <trkpt lat="49.35475" lon="1.3855">
        <ele>123</ele>
        <time>2026-03-24T15:23:14.698Z</time>
      </trkpt>
      <trkpt lat="49.3548" lon="1.38547">
        <ele>123</ele>
        <time>2026-03-24T15:23:18.972Z</time>
      </trkpt>
      <trkpt lat="49.35484" lon="1.38544">
        <ele>123</ele>
        <time>2026-03-24T15:23:23.258Z</time>
      </trkpt>
      <trkpt lat="49.35489" lon="1.38541">
        <ele>125</ele>
        <time>2026-03-24T15:23:27.480Z</time>
      </trkpt>
      <trkpt lat="49.35493" lon="1.38538">
        <ele>125</ele>
        <time>2026-03-24T15:23:31.657Z</time>
      </trkpt>
      <trkpt lat="49.35498" lon="1.38534">
        <ele>125</ele>
        <time>2026-03-24T15:23:35.771Z</time>
      </trkpt>
      <trkpt lat="49.35503" lon="1.3853">
        <ele>125</ele>
        <time>2026-03-24T15:23:40.258Z</time>
      </trkpt>
      <trkpt lat="49.35508" lon="1.38526">
        <ele>125</ele>
        <time>2026-03-24T15:23:44.769Z</time>
      </trkpt>
      <trkpt lat="49.35512" lon="1.38523">
        <ele>125</ele>
        <time>2026-03-24T15:23:49.142Z</time>
      </trkpt>
      <trkpt lat="49.35517" lon="1.3852">
        <ele>125</ele>
        <time>2026-03-24T15:23:53.333Z</time>
      </trkpt>
      <trkpt lat="49.35522" lon="1.38517">
        <ele>125</ele>
        <time>2026-03-24T15:23:57.600Z</time>
      </trkpt>
      <trkpt lat="49.35526" lon="1.38513">
        <ele>125</ele>
        <time>2026-03-24T15:24:01.770Z</time>
      </trkpt>
      <trkpt lat="49.3553" lon="1.3851">
        <ele>125</ele>
        <time>2026-03-24T15:24:05.944Z</time>
      </trkpt>
      <trkpt lat="49.35535" lon="1.38506">
        <ele>125</ele>
        <time>2026-03-24T15:24:10.770Z</time>
      </trkpt>
      <trkpt lat="49.35539" lon="1.38503">
        <ele>125</ele>
        <time>2026-03-24T15:24:15.179Z</time>
      </trkpt>
      <trkpt lat="49.35544" lon="1.385">
        <ele>126</ele>
        <time>2026-03-24T15:24:19.305Z</time>
      </trkpt>
      <trkpt lat="49.35548" lon="1.38497">
        <ele>126</ele>
        <time>2026-03-24T15:24:23.422Z</time>
      </trkpt>
      <trkpt lat="49.35553" lon="1.38494">
        <ele>126</ele>
        <time>2026-03-24T15:24:27.522Z</time>
      </trkpt>
      <trkpt lat="49.35557" lon="1.3849">
        <ele>126</ele>
        <time>2026-03-24T15:24:31.606Z</time>
      </trkpt>
      <trkpt lat="49.35561" lon="1.38487">
        <ele>126</ele>
        <time>2026-03-24T15:24:35.679Z</time>
      </trkpt>
      <trkpt lat="49.35566" lon="1.38483">
        <ele>126</ele>
        <time>2026-03-24T15:24:39.770Z</time>
      </trkpt>
      <trkpt lat="49.3557" lon="1.3848">
        <ele>127</ele>
        <time>2026-03-24T15:24:43.885Z</time>
      </trkpt>
      <trkpt lat="49.35575" lon="1.38476">
        <ele>127</ele>
        <time>2026-03-24T15:24:48.498Z</time>
      </trkpt>
      <trkpt lat="49.3558" lon="1.38473">
        <ele>127</ele>
        <time>2026-03-24T15:24:52.770Z</time>
      </trkpt>
      <trkpt lat="49.35584" lon="1.3847">
        <ele>127</ele>
        <time>2026-03-24T15:24:56.769Z</time>
      </trkpt>
      <trkpt lat="49.35589" lon="1.38466">
        <ele>127</ele>
        <time>2026-03-24T15:25:01.398Z</time>
      </trkpt>
      <trkpt lat="49.35594" lon="1.38463">
        <ele>127</ele>
        <time>2026-03-24T15:25:05.440Z</time>
      </trkpt>
      <trkpt lat="49.35598" lon="1.3846">
        <ele>127</ele>
        <time>2026-03-24T15:25:09.654Z</time>
      </trkpt>
      <trkpt lat="49.35602" lon="1.38456">
        <ele>127</ele>
        <time>2026-03-24T15:25:13.780Z</time>
      </trkpt>
      <trkpt lat="49.35606" lon="1.38453">
        <ele>127</ele>
        <time>2026-03-24T15:25:17.770Z</time>
      </trkpt>
      <trkpt lat="49.35611" lon="1.3845">
        <ele>127</ele>
        <time>2026-03-24T15:25:22.440Z</time>
      </trkpt>
      <trkpt lat="49.35615" lon="1.38446">
        <ele>127</ele>
        <time>2026-03-24T15:25:26.478Z</time>
      </trkpt>
      <trkpt lat="49.3562" lon="1.38443">
        <ele>127</ele>
        <time>2026-03-24T15:25:30.498Z</time>
      </trkpt>
      <trkpt lat="49.35624" lon="1.3844">
        <ele>127</ele>
        <time>2026-03-24T15:25:34.599Z</time>
      </trkpt>
      <trkpt lat="49.35629" lon="1.38436">
        <ele>127</ele>
        <time>2026-03-24T15:25:38.662Z</time>
      </trkpt>
      <trkpt lat="49.35633" lon="1.38434">
        <ele>127</ele>
        <time>2026-03-24T15:25:42.774Z</time>
      </trkpt>
      <trkpt lat="49.35637" lon="1.38431">
        <ele>127</ele>
        <time>2026-03-24T15:25:46.778Z</time>
      </trkpt>
      <trkpt lat="49.35642" lon="1.38427">
        <ele>126</ele>
        <time>2026-03-24T15:25:51.413Z</time>
      </trkpt>
      <trkpt lat="49.35647" lon="1.38424">
        <ele>126</ele>
        <time>2026-03-24T15:25:55.952Z</time>
      </trkpt>
      <trkpt lat="49.35651" lon="1.3842">
        <ele>126</ele>
        <time>2026-03-24T15:26:00.179Z</time>
      </trkpt>
      <trkpt lat="49.35655" lon="1.38417">
        <ele>125</ele>
        <time>2026-03-24T15:26:04.260Z</time>
      </trkpt>
      <trkpt lat="49.3566" lon="1.38413">
        <ele>125</ele>
        <time>2026-03-24T15:26:08.719Z</time>
      </trkpt>
      <trkpt lat="49.35664" lon="1.38409">
        <ele>125</ele>
        <time>2026-03-24T15:26:13.122Z</time>
      </trkpt>
      <trkpt lat="49.35669" lon="1.38405">
        <ele>125</ele>
        <time>2026-03-24T15:26:17.770Z</time>
      </trkpt>
      <trkpt lat="49.35674" lon="1.38401">
        <ele>124</ele>
        <time>2026-03-24T15:26:22.358Z</time>
      </trkpt>
      <trkpt lat="49.35679" lon="1.38398">
        <ele>124</ele>
        <time>2026-03-24T15:26:26.938Z</time>
      </trkpt>
      <trkpt lat="49.35683" lon="1.38394">
        <ele>124</ele>
        <time>2026-03-24T15:26:31.683Z</time>
      </trkpt>
      <trkpt lat="49.35688" lon="1.3839">
        <ele>124</ele>
        <time>2026-03-24T15:26:36.099Z</time>
      </trkpt>
      <trkpt lat="49.35693" lon="1.38387">
        <ele>124</ele>
        <time>2026-03-24T15:26:40.619Z</time>
      </trkpt>
      <trkpt lat="49.35698" lon="1.38383">
        <ele>124</ele>
        <time>2026-03-24T15:26:45.214Z</time>
      </trkpt>
      <trkpt lat="49.35703" lon="1.38379">
        <ele>124</ele>
        <time>2026-03-24T15:26:49.770Z</time>
      </trkpt>
      <trkpt lat="49.35707" lon="1.38375">
        <ele>124</ele>
        <time>2026-03-24T15:26:54.258Z</time>
      </trkpt>
      <trkpt lat="49.35712" lon="1.38372">
        <ele>123</ele>
        <time>2026-03-24T15:26:58.619Z</time>
      </trkpt>
      <trkpt lat="49.35717" lon="1.38369">
        <ele>123</ele>
        <time>2026-03-24T15:27:03.192Z</time>
      </trkpt>
      <trkpt lat="49.35721" lon="1.38365">
        <ele>123</ele>
        <time>2026-03-24T15:27:07.766Z</time>
      </trkpt>
      <trkpt lat="49.35726" lon="1.38362">
        <ele>123</ele>
        <time>2026-03-24T15:27:12.238Z</time>
      </trkpt>
      <trkpt lat="49.35731" lon="1.38358">
        <ele>123</ele>
        <time>2026-03-24T15:27:16.693Z</time>
      </trkpt>
      <trkpt lat="49.35736" lon="1.38355">
        <ele>123</ele>
        <time>2026-03-24T15:27:21.214Z</time>
      </trkpt>
      <trkpt lat="49.3574" lon="1.38351">
        <ele>122</ele>
        <time>2026-03-24T15:27:25.769Z</time>
      </trkpt>
      <trkpt lat="49.35745" lon="1.38348">
        <ele>122</ele>
        <time>2026-03-24T15:27:30.317Z</time>
      </trkpt>
      <trkpt lat="49.3575" lon="1.38346">
        <ele>121</ele>
        <time>2026-03-24T15:27:34.770Z</time>
      </trkpt>
      <trkpt lat="49.35754" lon="1.38343">
        <ele>121</ele>
        <time>2026-03-24T15:27:38.770Z</time>
      </trkpt>
      <trkpt lat="49.35758" lon="1.38339">
        <ele>121</ele>
        <time>2026-03-24T15:27:42.901Z</time>
      </trkpt>
      <trkpt lat="49.35763" lon="1.38337">
        <ele>121</ele>
        <time>2026-03-24T15:27:47.578Z</time>
      </trkpt>
      <trkpt lat="49.35767" lon="1.3834">
        <ele>120</ele>
        <time>2026-03-24T15:27:51.620Z</time>
      </trkpt>
      <trkpt lat="49.35771" lon="1.38347">
        <ele>121</ele>
        <time>2026-03-24T15:27:56.133Z</time>
      </trkpt>
      <trkpt lat="49.35774" lon="1.38354">
        <ele>121</ele>
        <time>2026-03-24T15:28:00.499Z</time>
      </trkpt>
      <trkpt lat="49.35777" lon="1.38361">
        <ele>121</ele>
        <time>2026-03-24T15:28:05.020Z</time>
      </trkpt>
      <trkpt lat="49.35781" lon="1.38368">
        <ele>121</ele>
        <time>2026-03-24T15:28:09.383Z</time>
      </trkpt>
      <trkpt lat="49.35785" lon="1.38375">
        <ele>121</ele>
        <time>2026-03-24T15:28:14.457Z</time>
      </trkpt>
      <trkpt lat="49.35788" lon="1.38382">
        <ele>121</ele>
        <time>2026-03-24T15:28:18.770Z</time>
      </trkpt>
      <trkpt lat="49.35792" lon="1.38387">
        <ele>120</ele>
        <time>2026-03-24T15:28:23.260Z</time>
      </trkpt>
      <trkpt lat="49.35796" lon="1.38393">
        <ele>120</ele>
        <time>2026-03-24T15:28:27.619Z</time>
      </trkpt>
      <trkpt lat="49.358" lon="1.38398">
        <ele>120</ele>
        <time>2026-03-24T15:28:31.956Z</time>
      </trkpt>
      <trkpt lat="49.35805" lon="1.38403">
        <ele>120</ele>
        <time>2026-03-24T15:28:36.493Z</time>
      </trkpt>
      <trkpt lat="49.35809" lon="1.38409">
        <ele>120</ele>
        <time>2026-03-24T15:28:40.919Z</time>
      </trkpt>
      <trkpt lat="49.35813" lon="1.38414">
        <ele>120</ele>
        <time>2026-03-24T15:28:45.438Z</time>
      </trkpt>
      <trkpt lat="49.35818" lon="1.38418">
        <ele>120</ele>
        <time>2026-03-24T15:28:49.770Z</time>
      </trkpt>
      <trkpt lat="49.35823" lon="1.38422">
        <ele>120</ele>
        <time>2026-03-24T15:28:54.343Z</time>
      </trkpt>
      <trkpt lat="49.35828" lon="1.38425">
        <ele>120</ele>
        <time>2026-03-24T15:28:58.767Z</time>
      </trkpt>
      <trkpt lat="49.35834" lon="1.38428">
        <ele>120</ele>
        <time>2026-03-24T15:29:03.213Z</time>
      </trkpt>
      <trkpt lat="49.35839" lon="1.3843">
        <ele>120</ele>
        <time>2026-03-24T15:29:07.698Z</time>
      </trkpt>
      <trkpt lat="49.35844" lon="1.38431">
        <ele>120</ele>
        <time>2026-03-24T15:29:12.158Z</time>
      </trkpt>
      <trkpt lat="49.3585" lon="1.38432">
        <ele>120</ele>
        <time>2026-03-24T15:29:16.618Z</time>
      </trkpt>
      <trkpt lat="49.35854" lon="1.38432">
        <ele>120</ele>
        <time>2026-03-24T15:29:20.980Z</time>
      </trkpt>
      <trkpt lat="49.35859" lon="1.38433">
        <ele>120</ele>
        <time>2026-03-24T15:29:25.603Z</time>
      </trkpt>
      <trkpt lat="49.35864" lon="1.38434">
        <ele>120</ele>
        <time>2026-03-24T15:29:29.639Z</time>
      </trkpt>
      <trkpt lat="49.35869" lon="1.38433">
        <ele>120</ele>
        <time>2026-03-24T15:29:34.173Z</time>
      </trkpt>
      <trkpt lat="49.35873" lon="1.38434">
        <ele>120</ele>
        <time>2026-03-24T15:29:38.239Z</time>
      </trkpt>
      <trkpt lat="49.35878" lon="1.38432">
        <ele>121</ele>
        <time>2026-03-24T15:29:42.770Z</time>
      </trkpt>
      <trkpt lat="49.35882" lon="1.38432">
        <ele>121</ele>
        <time>2026-03-24T15:29:46.999Z</time>
      </trkpt>
      <trkpt lat="49.35887" lon="1.38432">
        <ele>121</ele>
        <time>2026-03-24T15:29:51.359Z</time>
      </trkpt>
      <trkpt lat="49.35893" lon="1.38432">
        <ele>121</ele>
        <time>2026-03-24T15:29:55.769Z</time>
      </trkpt>
      <trkpt lat="49.35898" lon="1.3843">
        <ele>120</ele>
        <time>2026-03-24T15:30:00.457Z</time>
      </trkpt>
      <trkpt lat="49.35903" lon="1.3843">
        <ele>120</ele>
        <time>2026-03-24T15:30:05.035Z</time>
      </trkpt>
      <trkpt lat="49.35908" lon="1.3843">
        <ele>120</ele>
        <time>2026-03-24T15:30:09.038Z</time>
      </trkpt>
      <trkpt lat="49.35913" lon="1.38429">
        <ele>120</ele>
        <time>2026-03-24T15:30:13.600Z</time>
      </trkpt>
      <trkpt lat="49.35918" lon="1.38427">
        <ele>120</ele>
        <time>2026-03-24T15:30:17.638Z</time>
      </trkpt>
      <trkpt lat="49.35922" lon="1.38425">
        <ele>120</ele>
        <time>2026-03-24T15:30:22.074Z</time>
      </trkpt>
      <trkpt lat="49.35929" lon="1.38426">
        <ele>120</ele>
        <time>2026-03-24T15:30:26.578Z</time>
      </trkpt>
      <trkpt lat="49.35934" lon="1.38426">
        <ele>120</ele>
        <time>2026-03-24T15:30:30.614Z</time>
      </trkpt>
      <trkpt lat="49.35939" lon="1.38424">
        <ele>120</ele>
        <time>2026-03-24T15:30:35.105Z</time>
      </trkpt>
      <trkpt lat="49.35944" lon="1.38424">
        <ele>120</ele>
        <time>2026-03-24T15:30:39.282Z</time>
      </trkpt>
      <trkpt lat="49.35949" lon="1.38424">
        <ele>120</ele>
        <time>2026-03-24T15:30:43.322Z</time>
      </trkpt>
      <trkpt lat="49.35953" lon="1.38424">
        <ele>120</ele>
        <time>2026-03-24T15:30:47.359Z</time>
      </trkpt>
      <trkpt lat="49.35958" lon="1.38424">
        <ele>120</ele>
        <time>2026-03-24T15:30:51.562Z</time>
      </trkpt>
      <trkpt lat="49.35961" lon="1.38423">
        <ele>121</ele>
        <time>2026-03-24T15:30:55.770Z</time>
      </trkpt>
      <trkpt lat="49.35961" lon="1.38431">
        <ele>121</ele>
        <time>2026-03-24T15:31:32.770Z</time>
      </trkpt>
      <trkpt lat="49.35965" lon="1.3843">
        <ele>121</ele>
        <time>2026-03-24T15:31:37.770Z</time>
      </trkpt>
      <trkpt lat="49.35969" lon="1.3843">
        <ele>121</ele>
        <time>2026-03-24T15:31:41.770Z</time>
      </trkpt>
      <trkpt lat="49.35971" lon="1.38427">
        <ele>121</ele>
        <time>2026-03-24T15:31:46.497Z</time>
      </trkpt>
      <trkpt lat="49.35975" lon="1.38427">
        <ele>121</ele>
        <time>2026-03-24T15:31:50.770Z</time>
      </trkpt>
      <trkpt lat="49.3598" lon="1.38428">
        <ele>121</ele>
        <time>2026-03-24T15:31:54.986Z</time>
      </trkpt>
      <trkpt lat="49.35985" lon="1.38428">
        <ele>121</ele>
        <time>2026-03-24T15:31:59.499Z</time>
      </trkpt>
      <trkpt lat="49.35989" lon="1.3843">
        <ele>121</ele>
        <time>2026-03-24T15:32:04.098Z</time>
      </trkpt>
      <trkpt lat="49.35994" lon="1.38431">
        <ele>120</ele>
        <time>2026-03-24T15:32:08.479Z</time>
      </trkpt>
      <trkpt lat="49.36" lon="1.38434">
        <ele>120</ele>
        <time>2026-03-24T15:32:12.525Z</time>
      </trkpt>
      <trkpt lat="49.36004" lon="1.38438">
        <ele>120</ele>
        <time>2026-03-24T15:32:16.564Z</time>
      </trkpt>
      <trkpt lat="49.36006" lon="1.38439">
        <ele>120</ele>
        <time>2026-03-24T15:32:20.770Z</time>
      </trkpt>
      <trkpt lat="49.3601" lon="1.38439">
        <ele>120</ele>
        <time>2026-03-24T15:32:25.640Z</time>
      </trkpt>
      <trkpt lat="49.36012" lon="1.3844">
        <ele>120</ele>
        <time>2026-03-24T15:32:29.770Z</time>
      </trkpt>
      <trkpt lat="49.36016" lon="1.38445">
        <ele>120</ele>
        <time>2026-03-24T15:32:33.919Z</time>
      </trkpt>
      <trkpt lat="49.3602" lon="1.3845">
        <ele>120</ele>
        <time>2026-03-24T15:32:38.421Z</time>
      </trkpt>
      <trkpt lat="49.36025" lon="1.38454">
        <ele>120</ele>
        <time>2026-03-24T15:32:42.770Z</time>
      </trkpt>
      <trkpt lat="49.36029" lon="1.38458">
        <ele>120</ele>
        <time>2026-03-24T15:32:46.918Z</time>
      </trkpt>
      <trkpt lat="49.36034" lon="1.38464">
        <ele>120</ele>
        <time>2026-03-24T15:32:51.501Z</time>
      </trkpt>
      <trkpt lat="49.36038" lon="1.38468">
        <ele>120</ele>
        <time>2026-03-24T15:32:55.539Z</time>
      </trkpt>
      <trkpt lat="49.36042" lon="1.38472">
        <ele>120</ele>
        <time>2026-03-24T15:33:00.105Z</time>
      </trkpt>
      <trkpt lat="49.36046" lon="1.38476">
        <ele>120</ele>
        <time>2026-03-24T15:33:04.159Z</time>
      </trkpt>
      <trkpt lat="49.3605" lon="1.38481">
        <ele>120</ele>
        <time>2026-03-24T15:33:08.706Z</time>
      </trkpt>
      <trkpt lat="49.36055" lon="1.38486">
        <ele>120</ele>
        <time>2026-03-24T15:33:13.186Z</time>
      </trkpt>
      <trkpt lat="49.36058" lon="1.38491">
        <ele>120</ele>
        <time>2026-03-24T15:33:17.187Z</time>
      </trkpt>
      <trkpt lat="49.36063" lon="1.38496">
        <ele>120</ele>
        <time>2026-03-24T15:33:21.662Z</time>
      </trkpt>
      <trkpt lat="49.36068" lon="1.385">
        <ele>120</ele>
        <time>2026-03-24T15:33:26.165Z</time>
      </trkpt>
      <trkpt lat="49.36072" lon="1.38505">
        <ele>121</ele>
        <time>2026-03-24T15:33:30.704Z</time>
      </trkpt>
      <trkpt lat="49.36077" lon="1.3851">
        <ele>121</ele>
        <time>2026-03-24T15:33:35.242Z</time>
      </trkpt>
      <trkpt lat="49.36082" lon="1.38515">
        <ele>121</ele>
        <time>2026-03-24T15:33:39.781Z</time>
      </trkpt>
      <trkpt lat="49.36086" lon="1.3852">
        <ele>121</ele>
        <time>2026-03-24T15:33:44.318Z</time>
      </trkpt>
      <trkpt lat="49.36091" lon="1.38525">
        <ele>121</ele>
        <time>2026-03-24T15:33:48.769Z</time>
      </trkpt>
      <trkpt lat="49.36095" lon="1.3853">
        <ele>121</ele>
        <time>2026-03-24T15:33:53.404Z</time>
      </trkpt>
      <trkpt lat="49.36101" lon="1.38534">
        <ele>121</ele>
        <time>2026-03-24T15:33:58.004Z</time>
      </trkpt>
      <trkpt lat="49.36105" lon="1.38537">
        <ele>121</ele>
        <time>2026-03-24T15:34:02.041Z</time>
      </trkpt>
      <trkpt lat="49.36109" lon="1.38541">
        <ele>121</ele>
        <time>2026-03-24T15:34:06.080Z</time>
      </trkpt>
      <trkpt lat="49.36114" lon="1.38544">
        <ele>121</ele>
        <time>2026-03-24T15:34:10.600Z</time>
      </trkpt>
      <trkpt lat="49.36118" lon="1.38547">
        <ele>121</ele>
        <time>2026-03-24T15:34:14.638Z</time>
      </trkpt>
      <trkpt lat="49.36122" lon="1.3855">
        <ele>121</ele>
        <time>2026-03-24T15:34:18.685Z</time>
      </trkpt>
      <trkpt lat="49.36127" lon="1.38554">
        <ele>120</ele>
        <time>2026-03-24T15:34:23.240Z</time>
      </trkpt>
      <trkpt lat="49.36132" lon="1.38557">
        <ele>120</ele>
        <time>2026-03-24T15:34:27.770Z</time>
      </trkpt>
      <trkpt lat="49.36138" lon="1.3856">
        <ele>120</ele>
        <time>2026-03-24T15:34:32.379Z</time>
      </trkpt>
      <trkpt lat="49.36143" lon="1.38563">
        <ele>120</ele>
        <time>2026-03-24T15:34:36.943Z</time>
      </trkpt>
      <trkpt lat="49.36147" lon="1.38566">
        <ele>120</ele>
        <time>2026-03-24T15:34:41.060Z</time>
      </trkpt>
      <trkpt lat="49.36151" lon="1.38568">
        <ele>120</ele>
        <time>2026-03-24T15:34:45.124Z</time>
      </trkpt>
      <trkpt lat="49.36156" lon="1.38571">
        <ele>122</ele>
        <time>2026-03-24T15:34:49.679Z</time>
      </trkpt>
      <trkpt lat="49.3616" lon="1.38573">
        <ele>122</ele>
        <time>2026-03-24T15:34:53.682Z</time>
      </trkpt>
      <trkpt lat="49.36165" lon="1.38575">
        <ele>122</ele>
        <time>2026-03-24T15:34:57.720Z</time>
      </trkpt>
      <trkpt lat="49.36171" lon="1.38577">
        <ele>122</ele>
        <time>2026-03-24T15:35:02.259Z</time>
      </trkpt>
      <trkpt lat="49.36174" lon="1.38578">
        <ele>122</ele>
        <time>2026-03-24T15:35:06.770Z</time>
      </trkpt>
      <trkpt lat="49.36177" lon="1.38579">
        <ele>122</ele>
        <time>2026-03-24T15:35:11.343Z</time>
      </trkpt>
      <trkpt lat="49.36182" lon="1.38579">
        <ele>122</ele>
        <time>2026-03-24T15:35:15.460Z</time>
      </trkpt>
      <trkpt lat="49.36187" lon="1.38582">
        <ele>122</ele>
        <time>2026-03-24T15:35:19.770Z</time>
      </trkpt>
      <trkpt lat="49.3619" lon="1.38586">
        <ele>122</ele>
        <time>2026-03-24T15:35:24.137Z</time>
      </trkpt>
      <trkpt lat="49.36196" lon="1.38589">
        <ele>122</ele>
        <time>2026-03-24T15:35:28.641Z</time>
      </trkpt>
      <trkpt lat="49.36201" lon="1.3859">
        <ele>122</ele>
        <time>2026-03-24T15:35:33.102Z</time>
      </trkpt>
      <trkpt lat="49.36206" lon="1.38592">
        <ele>122</ele>
        <time>2026-03-24T15:35:37.122Z</time>
      </trkpt>
      <trkpt lat="49.3621" lon="1.38595">
        <ele>120</ele>
        <time>2026-03-24T15:35:41.643Z</time>
      </trkpt>
      <trkpt lat="49.36215" lon="1.38597">
        <ele>120</ele>
        <time>2026-03-24T15:35:46.225Z</time>
      </trkpt>
      <trkpt lat="49.3622" lon="1.386">
        <ele>121</ele>
        <time>2026-03-24T15:35:50.702Z</time>
      </trkpt>
      <trkpt lat="49.36225" lon="1.38604">
        <ele>121</ele>
        <time>2026-03-24T15:35:55.267Z</time>
      </trkpt>
      <trkpt lat="49.36229" lon="1.38605">
        <ele>121</ele>
        <time>2026-03-24T15:35:59.283Z</time>
      </trkpt>
      <trkpt lat="49.36233" lon="1.38606">
        <ele>121</ele>
        <time>2026-03-24T15:36:03.347Z</time>
      </trkpt>
      <trkpt lat="49.36238" lon="1.38608">
        <ele>120</ele>
        <time>2026-03-24T15:36:07.385Z</time>
      </trkpt>
      <trkpt lat="49.36242" lon="1.38609">
        <ele>120</ele>
        <time>2026-03-24T15:36:11.419Z</time>
      </trkpt>
      <trkpt lat="49.36247" lon="1.3861">
        <ele>120</ele>
        <time>2026-03-24T15:36:15.439Z</time>
      </trkpt>
      <trkpt lat="49.36252" lon="1.38612">
        <ele>120</ele>
        <time>2026-03-24T15:36:20.043Z</time>
      </trkpt>
      <trkpt lat="49.36256" lon="1.38615">
        <ele>120</ele>
        <time>2026-03-24T15:36:24.047Z</time>
      </trkpt>
      <trkpt lat="49.36261" lon="1.38617">
        <ele>120</ele>
        <time>2026-03-24T15:36:28.085Z</time>
      </trkpt>
      <trkpt lat="49.36265" lon="1.38621">
        <ele>120</ele>
        <time>2026-03-24T15:36:32.692Z</time>
      </trkpt>
      <trkpt lat="49.36269" lon="1.38623">
        <ele>120</ele>
        <time>2026-03-24T15:36:36.705Z</time>
      </trkpt>
      <trkpt lat="49.36273" lon="1.38627">
        <ele>121</ele>
        <time>2026-03-24T15:36:40.743Z</time>
      </trkpt>
      <trkpt lat="49.36276" lon="1.38631">
        <ele>121</ele>
        <time>2026-03-24T15:36:45.338Z</time>
      </trkpt>
      <trkpt lat="49.36279" lon="1.38638">
        <ele>121</ele>
        <time>2026-03-24T15:36:49.342Z</time>
      </trkpt>
      <trkpt lat="49.36283" lon="1.38642">
        <ele>121</ele>
        <time>2026-03-24T15:36:53.726Z</time>
      </trkpt>
      <trkpt lat="49.36287" lon="1.38647">
        <ele>121</ele>
        <time>2026-03-24T15:36:57.770Z</time>
      </trkpt>
      <trkpt lat="49.36289" lon="1.38654">
        <ele>121</ele>
        <time>2026-03-24T15:37:02.443Z</time>
      </trkpt>
      <trkpt lat="49.36289" lon="1.38653">
        <ele>121</ele>
        <time>2026-03-24T15:37:06.770Z</time>
      </trkpt>
      <trkpt lat="49.36289" lon="1.38653">
        <ele>121</ele>
        <time>2026-03-24T15:37:11.770Z</time>
      </trkpt>
      <trkpt lat="49.36292" lon="1.38655">
        <ele>122</ele>
        <time>2026-03-24T15:37:16.384Z</time>
      </trkpt>
      <trkpt lat="49.36297" lon="1.38662">
        <ele>122</ele>
        <time>2026-03-24T15:37:20.720Z</time>
      </trkpt>
      <trkpt lat="49.363" lon="1.38673">
        <ele>122</ele>
        <time>2026-03-24T15:37:25.101Z</time>
      </trkpt>
      <trkpt lat="49.36303" lon="1.38679">
        <ele>122</ele>
        <time>2026-03-24T15:37:29.683Z</time>
      </trkpt>
      <trkpt lat="49.36306" lon="1.38684">
        <ele>122</ele>
        <time>2026-03-24T15:37:33.703Z</time>
      </trkpt>
      <trkpt lat="49.36307" lon="1.38692">
        <ele>122</ele>
        <time>2026-03-24T15:37:38.181Z</time>
      </trkpt>
      <trkpt lat="49.36308" lon="1.38698">
        <ele>122</ele>
        <time>2026-03-24T15:37:42.684Z</time>
      </trkpt>
      <trkpt lat="49.36311" lon="1.38708">
        <ele>122</ele>
        <time>2026-03-24T15:37:47.144Z</time>
      </trkpt>
      <trkpt lat="49.36312" lon="1.38715">
        <ele>122</ele>
        <time>2026-03-24T15:37:51.243Z</time>
      </trkpt>
      <trkpt lat="49.36309" lon="1.38717">
        <ele>122</ele>
        <time>2026-03-24T15:37:55.770Z</time>
      </trkpt>
      <trkpt lat="49.36309" lon="1.38717">
        <ele>122</ele>
        <time>2026-03-24T15:38:00.770Z</time>
      </trkpt>
      <trkpt lat="49.36309" lon="1.38717">
        <ele>122</ele>
        <time>2026-03-24T15:38:05.769Z</time>
      </trkpt>
      <trkpt lat="49.36312" lon="1.38725">
        <ele>122</ele>
        <time>2026-03-24T15:38:10.162Z</time>
      </trkpt>
      <trkpt lat="49.36315" lon="1.38732">
        <ele>122</ele>
        <time>2026-03-24T15:38:14.480Z</time>
      </trkpt>
      <trkpt lat="49.36319" lon="1.38738">
        <ele>121</ele>
        <time>2026-03-24T15:38:18.770Z</time>
      </trkpt>
      <trkpt lat="49.36323" lon="1.38744">
        <ele>122</ele>
        <time>2026-03-24T15:38:23.240Z</time>
      </trkpt>
      <trkpt lat="49.36327" lon="1.3875">
        <ele>122</ele>
        <time>2026-03-24T15:38:27.604Z</time>
      </trkpt>
      <trkpt lat="49.3633" lon="1.38757">
        <ele>122</ele>
        <time>2026-03-24T15:38:32.001Z</time>
      </trkpt>
      <trkpt lat="49.36334" lon="1.38764">
        <ele>122</ele>
        <time>2026-03-24T15:38:36.478Z</time>
      </trkpt>
      <trkpt lat="49.36339" lon="1.38768">
        <ele>121</ele>
        <time>2026-03-24T15:38:40.859Z</time>
      </trkpt>
      <trkpt lat="49.36342" lon="1.38775">
        <ele>121</ele>
        <time>2026-03-24T15:38:45.326Z</time>
      </trkpt>
      <trkpt lat="49.36345" lon="1.38782">
        <ele>121</ele>
        <time>2026-03-24T15:38:49.770Z</time>
      </trkpt>
      <trkpt lat="49.36348" lon="1.38788">
        <ele>122</ele>
        <time>2026-03-24T15:38:54.201Z</time>
      </trkpt>
      <trkpt lat="49.36353" lon="1.38793">
        <ele>122</ele>
        <time>2026-03-24T15:38:58.722Z</time>
      </trkpt>
      <trkpt lat="49.36355" lon="1.38796">
        <ele>122</ele>
        <time>2026-03-24T15:39:03.322Z</time>
      </trkpt>
      <trkpt lat="49.36358" lon="1.38798">
        <ele>122</ele>
        <time>2026-03-24T15:39:07.342Z</time>
      </trkpt>
      <trkpt lat="49.36363" lon="1.38797">
        <ele>122</ele>
        <time>2026-03-24T15:39:11.424Z</time>
      </trkpt>
      <trkpt lat="49.36366" lon="1.38796">
        <ele>122</ele>
        <time>2026-03-24T15:39:15.769Z</time>
      </trkpt>
      <trkpt lat="49.36368" lon="1.38795">
        <ele>122</ele>
        <time>2026-03-24T15:39:20.770Z</time>
      </trkpt>
      <trkpt lat="49.36371" lon="1.38792">
        <ele>122</ele>
        <time>2026-03-24T15:39:25.207Z</time>
      </trkpt>
      <trkpt lat="49.36371" lon="1.38796">
        <ele>122</ele>
        <time>2026-03-24T15:39:29.718Z</time>
      </trkpt>
      <trkpt lat="49.36371" lon="1.38798">
        <ele>122</ele>
        <time>2026-03-24T15:39:34.002Z</time>
      </trkpt>
      <trkpt lat="49.36372" lon="1.38804">
        <ele>122</ele>
        <time>2026-03-24T15:39:38.007Z</time>
      </trkpt>
      <trkpt lat="49.36378" lon="1.3881">
        <ele>123</ele>
        <time>2026-03-24T15:39:42.027Z</time>
      </trkpt>
      <trkpt lat="49.36382" lon="1.38816">
        <ele>123</ele>
        <time>2026-03-24T15:39:46.424Z</time>
      </trkpt>
      <trkpt lat="49.36384" lon="1.38825">
        <ele>124</ele>
        <time>2026-03-24T15:39:50.979Z</time>
      </trkpt>
      <trkpt lat="49.36385" lon="1.38832">
        <ele>124</ele>
        <time>2026-03-24T15:39:55.026Z</time>
      </trkpt>
      <trkpt lat="49.36385" lon="1.38839">
        <ele>124</ele>
        <time>2026-03-24T15:39:59.770Z</time>
      </trkpt>
      <trkpt lat="49.36385" lon="1.3884">
        <ele>124</ele>
        <time>2026-03-24T15:40:03.919Z</time>
      </trkpt>
      <trkpt lat="49.36386" lon="1.38849">
        <ele>124</ele>
        <time>2026-03-24T15:40:08.519Z</time>
      </trkpt>
      <trkpt lat="49.36386" lon="1.38858">
        <ele>124</ele>
        <time>2026-03-24T15:40:13.040Z</time>
      </trkpt>
      <trkpt lat="49.36385" lon="1.38867">
        <ele>124</ele>
        <time>2026-03-24T15:40:17.560Z</time>
      </trkpt>
      <trkpt lat="49.36386" lon="1.38875">
        <ele>123</ele>
        <time>2026-03-24T15:40:22.048Z</time>
      </trkpt>
      <trkpt lat="49.36384" lon="1.38884">
        <ele>123</ele>
        <time>2026-03-24T15:40:26.559Z</time>
      </trkpt>
      <trkpt lat="49.36384" lon="1.38891">
        <ele>123</ele>
        <time>2026-03-24T15:40:30.622Z</time>
      </trkpt>
      <trkpt lat="49.36382" lon="1.38899">
        <ele>123</ele>
        <time>2026-03-24T15:40:35.240Z</time>
      </trkpt>
      <trkpt lat="49.3638" lon="1.38906">
        <ele>122</ele>
        <time>2026-03-24T15:40:39.243Z</time>
      </trkpt>
      <trkpt lat="49.36379" lon="1.38912">
        <ele>122</ele>
        <time>2026-03-24T15:40:43.360Z</time>
      </trkpt>
      <trkpt lat="49.36381" lon="1.38918">
        <ele>122</ele>
        <time>2026-03-24T15:40:47.442Z</time>
      </trkpt>
      <trkpt lat="49.36379" lon="1.38928">
        <ele>122</ele>
        <time>2026-03-24T15:40:51.981Z</time>
      </trkpt>
      <trkpt lat="49.36376" lon="1.38936">
        <ele>122</ele>
        <time>2026-03-24T15:40:56.002Z</time>
      </trkpt>
      <trkpt lat="49.36376" lon="1.38943">
        <ele>122</ele>
        <time>2026-03-24T15:41:00.101Z</time>
      </trkpt>
      <trkpt lat="49.36375" lon="1.3895">
        <ele>122</ele>
        <time>2026-03-24T15:41:04.561Z</time>
      </trkpt>
      <trkpt lat="49.36373" lon="1.38957">
        <ele>122</ele>
        <time>2026-03-24T15:41:08.642Z</time>
      </trkpt>
      <trkpt lat="49.36371" lon="1.38964">
        <ele>122</ele>
        <time>2026-03-24T15:41:12.680Z</time>
      </trkpt>
      <trkpt lat="49.36371" lon="1.38972">
        <ele>122</ele>
        <time>2026-03-24T15:41:16.780Z</time>
      </trkpt>
      <trkpt lat="49.36369" lon="1.38978">
        <ele>122</ele>
        <time>2026-03-24T15:41:20.769Z</time>
      </trkpt>
      <trkpt lat="49.36368" lon="1.38986">
        <ele>121</ele>
        <time>2026-03-24T15:41:25.443Z</time>
      </trkpt>
      <trkpt lat="49.36368" lon="1.38993">
        <ele>121</ele>
        <time>2026-03-24T15:41:29.622Z</time>
      </trkpt>
      <trkpt lat="49.36367" lon="1.39001">
        <ele>121</ele>
        <time>2026-03-24T15:41:33.686Z</time>
      </trkpt>
      <trkpt lat="49.36366" lon="1.39008">
        <ele>121</ele>
        <time>2026-03-24T15:41:37.769Z</time>
      </trkpt>
      <trkpt lat="49.36365" lon="1.39016">
        <ele>121</ele>
        <time>2026-03-24T15:41:42.438Z</time>
      </trkpt>
      <trkpt lat="49.36364" lon="1.39024">
        <ele>121</ele>
        <time>2026-03-24T15:41:46.582Z</time>
      </trkpt>
      <trkpt lat="49.36363" lon="1.39031">
        <ele>121</ele>
        <time>2026-03-24T15:41:50.646Z</time>
      </trkpt>
      <trkpt lat="49.36362" lon="1.39039">
        <ele>121</ele>
        <time>2026-03-24T15:41:54.768Z</time>
      </trkpt>
      <trkpt lat="49.36361" lon="1.39043">
        <ele>121</ele>
        <time>2026-03-24T15:41:58.769Z</time>
      </trkpt>
      <trkpt lat="49.36361" lon="1.39048">
        <ele>121</ele>
        <time>2026-03-24T15:42:03.006Z</time>
      </trkpt>
      <trkpt lat="49.36361" lon="1.39056">
        <ele>121</ele>
        <time>2026-03-24T15:42:07.123Z</time>
      </trkpt>
      <trkpt lat="49.3636" lon="1.39064">
        <ele>121</ele>
        <time>2026-03-24T15:42:11.345Z</time>
      </trkpt>
      <trkpt lat="49.36359" lon="1.39071">
        <ele>121</ele>
        <time>2026-03-24T15:42:15.401Z</time>
      </trkpt>
      <trkpt lat="49.36358" lon="1.39078">
        <ele>121</ele>
        <time>2026-03-24T15:42:19.562Z</time>
      </trkpt>
      <trkpt lat="49.36358" lon="1.39085">
        <ele>121</ele>
        <time>2026-03-24T15:42:23.769Z</time>
      </trkpt>
      <trkpt lat="49.36357" lon="1.39092">
        <ele>121</ele>
        <time>2026-03-24T15:42:27.769Z</time>
      </trkpt>
      <trkpt lat="49.36356" lon="1.39099">
        <ele>121</ele>
        <time>2026-03-24T15:42:32.106Z</time>
      </trkpt>
      <trkpt lat="49.36355" lon="1.39107">
        <ele>121</ele>
        <time>2026-03-24T15:42:36.346Z</time>
      </trkpt>
      <trkpt lat="49.36354" lon="1.39114">
        <ele>121</ele>
        <time>2026-03-24T15:42:40.480Z</time>
      </trkpt>
      <trkpt lat="49.36353" lon="1.39122">
        <ele>121</ele>
        <time>2026-03-24T15:42:44.767Z</time>
      </trkpt>
      <trkpt lat="49.36353" lon="1.39129">
        <ele>121</ele>
        <time>2026-03-24T15:42:49.003Z</time>
      </trkpt>
      <trkpt lat="49.36352" lon="1.39137">
        <ele>121</ele>
        <time>2026-03-24T15:42:53.059Z</time>
      </trkpt>
      <trkpt lat="49.36351" lon="1.39144">
        <ele>121</ele>
        <time>2026-03-24T15:42:57.247Z</time>
      </trkpt>
      <trkpt lat="49.3635" lon="1.39151">
        <ele>121</ele>
        <time>2026-03-24T15:43:01.382Z</time>
      </trkpt>
      <trkpt lat="49.36349" lon="1.39159">
        <ele>122</ele>
        <time>2026-03-24T15:43:05.559Z</time>
      </trkpt>
      <trkpt lat="49.36348" lon="1.39166">
        <ele>122</ele>
        <time>2026-03-24T15:43:09.659Z</time>
      </trkpt>
      <trkpt lat="49.36348" lon="1.39174">
        <ele>122</ele>
        <time>2026-03-24T15:43:13.769Z</time>
      </trkpt>
      <trkpt lat="49.36347" lon="1.39182">
        <ele>122</ele>
        <time>2026-03-24T15:43:18.481Z</time>
      </trkpt>
      <trkpt lat="49.36346" lon="1.39191">
        <ele>122</ele>
        <time>2026-03-24T15:43:23.063Z</time>
      </trkpt>
      <trkpt lat="49.36345" lon="1.39199">
        <ele>122</ele>
        <time>2026-03-24T15:43:27.146Z</time>
      </trkpt>
      <trkpt lat="49.36345" lon="1.39206">
        <ele>122</ele>
        <time>2026-03-24T15:43:31.262Z</time>
      </trkpt>
      <trkpt lat="49.36343" lon="1.39213">
        <ele>122</ele>
        <time>2026-03-24T15:43:35.344Z</time>
      </trkpt>
      <trkpt lat="49.36342" lon="1.39221">
        <ele>122</ele>
        <time>2026-03-24T15:43:39.769Z</time>
      </trkpt>
      <trkpt lat="49.36341" lon="1.3923">
        <ele>122</ele>
        <time>2026-03-24T15:43:44.438Z</time>
      </trkpt>
      <trkpt lat="49.3634" lon="1.39237">
        <ele>122</ele>
        <time>2026-03-24T15:43:48.502Z</time>
      </trkpt>
      <trkpt lat="49.3634" lon="1.39244">
        <ele>122</ele>
        <time>2026-03-24T15:43:52.506Z</time>
      </trkpt>
      <trkpt lat="49.36339" lon="1.39253">
        <ele>122</ele>
        <time>2026-03-24T15:43:57.026Z</time>
      </trkpt>
      <trkpt lat="49.36338" lon="1.39261">
        <ele>122</ele>
        <time>2026-03-24T15:44:01.565Z</time>
      </trkpt>
      <trkpt lat="49.36337" lon="1.39268">
        <ele>122</ele>
        <time>2026-03-24T15:44:05.620Z</time>
      </trkpt>
      <trkpt lat="49.36336" lon="1.39275">
        <ele>122</ele>
        <time>2026-03-24T15:44:09.640Z</time>
      </trkpt>
      <trkpt lat="49.36335" lon="1.39282">
        <ele>122</ele>
        <time>2026-03-24T15:44:13.661Z</time>
      </trkpt>
      <trkpt lat="49.36335" lon="1.3929">
        <ele>122</ele>
        <time>2026-03-24T15:44:17.699Z</time>
      </trkpt>
      <trkpt lat="49.36334" lon="1.39299">
        <ele>122</ele>
        <time>2026-03-24T15:44:22.264Z</time>
      </trkpt>
      <trkpt lat="49.36333" lon="1.39306">
        <ele>122</ele>
        <time>2026-03-24T15:44:26.769Z</time>
      </trkpt>
      <trkpt lat="49.36332" lon="1.39315">
        <ele>122</ele>
        <time>2026-03-24T15:44:31.480Z</time>
      </trkpt>
      <trkpt lat="49.36331" lon="1.39324">
        <ele>122</ele>
        <time>2026-03-24T15:44:35.940Z</time>
      </trkpt>
      <trkpt lat="49.3633" lon="1.39332">
        <ele>122</ele>
        <time>2026-03-24T15:44:40.460Z</time>
      </trkpt>
      <trkpt lat="49.36329" lon="1.39339">
        <ele>122</ele>
        <time>2026-03-24T15:44:44.586Z</time>
      </trkpt>
      <trkpt lat="49.36328" lon="1.39348">
        <ele>121</ele>
        <time>2026-03-24T15:44:49.642Z</time>
      </trkpt>
      <trkpt lat="49.36328" lon="1.39356">
        <ele>121</ele>
        <time>2026-03-24T15:44:53.663Z</time>
      </trkpt>
      <trkpt lat="49.36327" lon="1.39365">
        <ele>121</ele>
        <time>2026-03-24T15:44:58.184Z</time>
      </trkpt>
      <trkpt lat="49.36326" lon="1.39372">
        <ele>121</ele>
        <time>2026-03-24T15:45:02.187Z</time>
      </trkpt>
      <trkpt lat="49.36325" lon="1.39381">
        <ele>120</ele>
        <time>2026-03-24T15:45:06.768Z</time>
      </trkpt>
      <trkpt lat="49.36324" lon="1.3939">
        <ele>120</ele>
        <time>2026-03-24T15:45:11.342Z</time>
      </trkpt>
      <trkpt lat="49.36323" lon="1.39398">
        <ele>120</ele>
        <time>2026-03-24T15:45:15.769Z</time>
      </trkpt>
      <trkpt lat="49.36322" lon="1.39405">
        <ele>119</ele>
        <time>2026-03-24T15:45:19.769Z</time>
      </trkpt>
      <trkpt lat="49.36321" lon="1.39413">
        <ele>119</ele>
        <time>2026-03-24T15:45:23.938Z</time>
      </trkpt>
      <trkpt lat="49.36321" lon="1.39422">
        <ele>119</ele>
        <time>2026-03-24T15:45:28.582Z</time>
      </trkpt>
      <trkpt lat="49.3632" lon="1.3943">
        <ele>119</ele>
        <time>2026-03-24T15:45:33.087Z</time>
      </trkpt>
      <trkpt lat="49.36319" lon="1.39437">
        <ele>119</ele>
        <time>2026-03-24T15:45:37.142Z</time>
      </trkpt>
      <trkpt lat="49.36318" lon="1.39445">
        <ele>119</ele>
        <time>2026-03-24T15:45:41.178Z</time>
      </trkpt>
      <trkpt lat="49.36317" lon="1.39453">
        <ele>119</ele>
        <time>2026-03-24T15:45:45.664Z</time>
      </trkpt>
      <trkpt lat="49.36316" lon="1.39461">
        <ele>119</ele>
        <time>2026-03-24T15:45:49.685Z</time>
      </trkpt>
      <trkpt lat="49.36315" lon="1.39468">
        <ele>119</ele>
        <time>2026-03-24T15:45:53.740Z</time>
      </trkpt>
      <trkpt lat="49.36315" lon="1.39475">
        <ele>119</ele>
        <time>2026-03-24T15:45:57.743Z</time>
      </trkpt>
      <trkpt lat="49.36314" lon="1.39482">
        <ele>119</ele>
        <time>2026-03-24T15:46:01.768Z</time>
      </trkpt>
      <trkpt lat="49.36313" lon="1.39491">
        <ele>119</ele>
        <time>2026-03-24T15:46:06.398Z</time>
      </trkpt>
      <trkpt lat="49.36312" lon="1.39499">
        <ele>119</ele>
        <time>2026-03-24T15:46:10.919Z</time>
      </trkpt>
      <trkpt lat="49.36311" lon="1.39507">
        <ele>119</ele>
        <time>2026-03-24T15:46:15.379Z</time>
      </trkpt>
      <trkpt lat="49.3631" lon="1.39514">
        <ele>118</ele>
        <time>2026-03-24T15:46:19.583Z</time>
      </trkpt>
      <trkpt lat="49.3631" lon="1.39523">
        <ele>118</ele>
        <time>2026-03-24T15:46:24.121Z</time>
      </trkpt>
      <trkpt lat="49.36309" lon="1.3953">
        <ele>118</ele>
        <time>2026-03-24T15:46:28.124Z</time>
      </trkpt>
      <trkpt lat="49.36308" lon="1.3954">
        <ele>118</ele>
        <time>2026-03-24T15:46:32.762Z</time>
      </trkpt>
      <trkpt lat="49.36307" lon="1.39548">
        <ele>118</ele>
        <time>2026-03-24T15:46:37.244Z</time>
      </trkpt>
      <trkpt lat="49.36306" lon="1.39556">
        <ele>118</ele>
        <time>2026-03-24T15:46:41.769Z</time>
      </trkpt>
      <trkpt lat="49.36305" lon="1.39565">
        <ele>118</ele>
        <time>2026-03-24T15:46:46.426Z</time>
      </trkpt>
      <trkpt lat="49.36304" lon="1.39574">
        <ele>117</ele>
        <time>2026-03-24T15:46:50.964Z</time>
      </trkpt>
      <trkpt lat="49.36303" lon="1.39582">
        <ele>117</ele>
        <time>2026-03-24T15:46:55.582Z</time>
      </trkpt>
      <trkpt lat="49.36302" lon="1.3959">
        <ele>117</ele>
        <time>2026-03-24T15:46:59.602Z</time>
      </trkpt>
      <trkpt lat="49.36301" lon="1.39598">
        <ele>118</ele>
        <time>2026-03-24T15:47:04.140Z</time>
      </trkpt>
      <trkpt lat="49.36301" lon="1.39606">
        <ele>118</ele>
        <time>2026-03-24T15:47:08.161Z</time>
      </trkpt>
      <trkpt lat="49.36299" lon="1.39614">
        <ele>118</ele>
        <time>2026-03-24T15:47:12.700Z</time>
      </trkpt>
      <trkpt lat="49.36299" lon="1.39622">
        <ele>118</ele>
        <time>2026-03-24T15:47:16.719Z</time>
      </trkpt>
      <trkpt lat="49.36298" lon="1.39631">
        <ele>118</ele>
        <time>2026-03-24T15:47:21.267Z</time>
      </trkpt>
      <trkpt lat="49.36297" lon="1.39638">
        <ele>118</ele>
        <time>2026-03-24T15:47:25.287Z</time>
      </trkpt>
      <trkpt lat="49.36296" lon="1.39646">
        <ele>118</ele>
        <time>2026-03-24T15:47:29.702Z</time>
      </trkpt>
      <trkpt lat="49.36295" lon="1.39653">
        <ele>118</ele>
        <time>2026-03-24T15:47:33.766Z</time>
      </trkpt>
      <trkpt lat="49.36294" lon="1.39661">
        <ele>118</ele>
        <time>2026-03-24T15:47:37.769Z</time>
      </trkpt>
      <trkpt lat="49.36294" lon="1.39669">
        <ele>118</ele>
        <time>2026-03-24T15:47:42.282Z</time>
      </trkpt>
      <trkpt lat="49.36293" lon="1.39678">
        <ele>118</ele>
        <time>2026-03-24T15:47:46.770Z</time>
      </trkpt>
      <trkpt lat="49.36292" lon="1.39687">
        <ele>118</ele>
        <time>2026-03-24T15:47:51.278Z</time>
      </trkpt>
      <trkpt lat="49.36291" lon="1.39695">
        <ele>118</ele>
        <time>2026-03-24T15:47:55.768Z</time>
      </trkpt>
      <trkpt lat="49.3629" lon="1.39703">
        <ele>118</ele>
        <time>2026-03-24T15:47:59.768Z</time>
      </trkpt>
      <trkpt lat="49.3629" lon="1.3971">
        <ele>117</ele>
        <time>2026-03-24T15:48:04.340Z</time>
      </trkpt>
      <trkpt lat="49.36289" lon="1.39718">
        <ele>117</ele>
        <time>2026-03-24T15:48:08.422Z</time>
      </trkpt>
      <trkpt lat="49.36288" lon="1.39726">
        <ele>117</ele>
        <time>2026-03-24T15:48:12.960Z</time>
      </trkpt>
      <trkpt lat="49.36287" lon="1.39734">
        <ele>117</ele>
        <time>2026-03-24T15:48:17.559Z</time>
      </trkpt>
      <trkpt lat="49.36285" lon="1.39743">
        <ele>116</ele>
        <time>2026-03-24T15:48:22.124Z</time>
      </trkpt>
      <trkpt lat="49.36284" lon="1.39751">
        <ele>116</ele>
        <time>2026-03-24T15:48:26.645Z</time>
      </trkpt>
      <trkpt lat="49.36284" lon="1.3976">
        <ele>116</ele>
        <time>2026-03-24T15:48:31.201Z</time>
      </trkpt>
      <trkpt lat="49.36282" lon="1.39769">
        <ele>115</ele>
        <time>2026-03-24T15:48:35.765Z</time>
      </trkpt>
      <trkpt lat="49.36281" lon="1.39777">
        <ele>115</ele>
        <time>2026-03-24T15:48:40.224Z</time>
      </trkpt>
      <trkpt lat="49.3628" lon="1.39786">
        <ele>115</ele>
        <time>2026-03-24T15:48:44.780Z</time>
      </trkpt>
      <trkpt lat="49.36279" lon="1.39793">
        <ele>114</ele>
        <time>2026-03-24T15:48:49.344Z</time>
      </trkpt>
      <trkpt lat="49.36278" lon="1.39801">
        <ele>114</ele>
        <time>2026-03-24T15:48:53.365Z</time>
      </trkpt>
      <trkpt lat="49.36277" lon="1.3981">
        <ele>114</ele>
        <time>2026-03-24T15:48:57.768Z</time>
      </trkpt>
      <trkpt lat="49.36276" lon="1.39817">
        <ele>114</ele>
        <time>2026-03-24T15:49:02.318Z</time>
      </trkpt>
      <trkpt lat="49.36275" lon="1.39825">
        <ele>113</ele>
        <time>2026-03-24T15:49:06.339Z</time>
      </trkpt>
      <trkpt lat="49.36275" lon="1.39832">
        <ele>113</ele>
        <time>2026-03-24T15:49:10.359Z</time>
      </trkpt>
      <trkpt lat="49.36274" lon="1.3984">
        <ele>113</ele>
        <time>2026-03-24T15:49:14.941Z</time>
      </trkpt>
      <trkpt lat="49.36273" lon="1.39847">
        <ele>113</ele>
        <time>2026-03-24T15:49:19.005Z</time>
      </trkpt>
      <trkpt lat="49.36272" lon="1.39855">
        <ele>113</ele>
        <time>2026-03-24T15:49:23.526Z</time>
      </trkpt>
      <trkpt lat="49.36271" lon="1.39864">
        <ele>113</ele>
        <time>2026-03-24T15:49:28.100Z</time>
      </trkpt>
      <trkpt lat="49.3627" lon="1.39873">
        <ele>113</ele>
        <time>2026-03-24T15:49:32.664Z</time>
      </trkpt>
      <trkpt lat="49.36269" lon="1.3988">
        <ele>113</ele>
        <time>2026-03-24T15:49:36.719Z</time>
      </trkpt>
      <trkpt lat="49.36269" lon="1.39887">
        <ele>113</ele>
        <time>2026-03-24T15:49:40.769Z</time>
      </trkpt>
      <trkpt lat="49.36268" lon="1.39896">
        <ele>113</ele>
        <time>2026-03-24T15:49:45.383Z</time>
      </trkpt>
      <trkpt lat="49.36267" lon="1.39904">
        <ele>113</ele>
        <time>2026-03-24T15:49:49.921Z</time>
      </trkpt>
      <trkpt lat="49.36266" lon="1.39911">
        <ele>113</ele>
        <time>2026-03-24T15:49:53.959Z</time>
      </trkpt>
      <trkpt lat="49.36265" lon="1.3992">
        <ele>113</ele>
        <time>2026-03-24T15:49:58.480Z</time>
      </trkpt>
      <trkpt lat="49.36263" lon="1.39927">
        <ele>111</ele>
        <time>2026-03-24T15:50:03Z</time>
      </trkpt>
      <trkpt lat="49.36262" lon="1.39934">
        <ele>112</ele>
        <time>2026-03-24T15:50:07.066Z</time>
      </trkpt>
      <trkpt lat="49.36261" lon="1.39943">
        <ele>112</ele>
        <time>2026-03-24T15:50:11.682Z</time>
      </trkpt>
      <trkpt lat="49.3626" lon="1.39951">
        <ele>112</ele>
        <time>2026-03-24T15:50:15.769Z</time>
      </trkpt>
      <trkpt lat="49.3626" lon="1.39957">
        <ele>112</ele>
        <time>2026-03-24T15:50:19.769Z</time>
      </trkpt>
      <trkpt lat="49.36266" lon="1.39965">
        <ele>114</ele>
        <time>2026-03-24T15:50:34.066Z</time>
      </trkpt>
      <trkpt lat="49.36263" lon="1.39968">
        <ele>112</ele>
        <time>2026-03-24T15:50:38.420Z</time>
      </trkpt>
      <trkpt lat="49.3626" lon="1.39974">
        <ele>112</ele>
        <time>2026-03-24T15:50:42.704Z</time>
      </trkpt>
      <trkpt lat="49.36258" lon="1.39979">
        <ele>112</ele>
        <time>2026-03-24T15:50:46.769Z</time>
      </trkpt>
      <trkpt lat="49.36256" lon="1.39987">
        <ele>112</ele>
        <time>2026-03-24T15:50:51.358Z</time>
      </trkpt>
      <trkpt lat="49.36256" lon="1.4">
        <ele>112</ele>
        <time>2026-03-24T15:51:00.303Z</time>
      </trkpt>
      <trkpt lat="49.36259" lon="1.40001">
        <ele>112</ele>
        <time>2026-03-24T15:51:04.769Z</time>
      </trkpt>
      <trkpt lat="49.36259" lon="1.40001">
        <ele>112</ele>
        <time>2026-03-24T15:51:08.923Z</time>
      </trkpt>
      <trkpt lat="49.36258" lon="1.40006">
        <ele>112</ele>
        <time>2026-03-24T15:51:13.286Z</time>
      </trkpt>
      <trkpt lat="49.36255" lon="1.4001">
        <ele>112</ele>
        <time>2026-03-24T15:51:17.307Z</time>
      </trkpt>
      <trkpt lat="49.36253" lon="1.40017">
        <ele>112</ele>
        <time>2026-03-24T15:51:21.768Z</time>
      </trkpt>
      <trkpt lat="49.36253" lon="1.40026">
        <ele>112</ele>
        <time>2026-03-24T15:51:26.321Z</time>
      </trkpt>
      <trkpt lat="49.36253" lon="1.40035">
        <ele>112</ele>
        <time>2026-03-24T15:51:30.769Z</time>
      </trkpt>
      <trkpt lat="49.36254" lon="1.40044">
        <ele>111</ele>
        <time>2026-03-24T15:51:35.661Z</time>
      </trkpt>
      <trkpt lat="49.36254" lon="1.40051">
        <ele>111</ele>
        <time>2026-03-24T15:51:40.225Z</time>
      </trkpt>
      <trkpt lat="49.36254" lon="1.40058">
        <ele>111</ele>
        <time>2026-03-24T15:51:44.768Z</time>
      </trkpt>
      <trkpt lat="49.36254" lon="1.40065">
        <ele>111</ele>
        <time>2026-03-24T15:51:49.442Z</time>
      </trkpt>
      <trkpt lat="49.36254" lon="1.40073">
        <ele>109</ele>
        <time>2026-03-24T15:51:53.981Z</time>
      </trkpt>
      <trkpt lat="49.36255" lon="1.40079">
        <ele>109</ele>
        <time>2026-03-24T15:51:58.044Z</time>
      </trkpt>
      <trkpt lat="49.36256" lon="1.40086">
        <ele>109</ele>
        <time>2026-03-24T15:52:02.504Z</time>
      </trkpt>
      <trkpt lat="49.36257" lon="1.40087">
        <ele>109</ele>
        <time>2026-03-24T15:52:06.769Z</time>
      </trkpt>
      <trkpt lat="49.36257" lon="1.40092">
        <ele>109</ele>
        <time>2026-03-24T15:52:11.106Z</time>
      </trkpt>
      <trkpt lat="49.36257" lon="1.401">
        <ele>108</ele>
        <time>2026-03-24T15:52:15.126Z</time>
      </trkpt>
      <trkpt lat="49.36255" lon="1.40108">
        <ele>108</ele>
        <time>2026-03-24T15:52:19.638Z</time>
      </trkpt>
      <trkpt lat="49.36254" lon="1.40114">
        <ele>108</ele>
        <time>2026-03-24T15:52:23.702Z</time>
      </trkpt>
      <trkpt lat="49.36254" lon="1.4012">
        <ele>108</ele>
        <time>2026-03-24T15:52:28.004Z</time>
      </trkpt>
      <trkpt lat="49.36252" lon="1.40125">
        <ele>106</ele>
        <time>2026-03-24T15:52:32.147Z</time>
      </trkpt>
      <trkpt lat="49.3625" lon="1.40133">
        <ele>106</ele>
        <time>2026-03-24T15:52:36.219Z</time>
      </trkpt>
      <trkpt lat="49.36248" lon="1.4014">
        <ele>106</ele>
        <time>2026-03-24T15:52:40.267Z</time>
      </trkpt>
      <trkpt lat="49.36245" lon="1.40147">
        <ele>106</ele>
        <time>2026-03-24T15:52:44.462Z</time>
      </trkpt>
      <trkpt lat="49.36243" lon="1.40153">
        <ele>106</ele>
        <time>2026-03-24T15:52:48.667Z</time>
      </trkpt>
      <trkpt lat="49.36239" lon="1.4016">
        <ele>105</ele>
        <time>2026-03-24T15:53:06.768Z</time>
      </trkpt>
      <trkpt lat="49.36239" lon="1.4016">
        <ele>105</ele>
        <time>2026-03-24T15:53:11.243Z</time>
      </trkpt>
      <trkpt lat="49.36238" lon="1.40166">
        <ele>105</ele>
        <time>2026-03-24T15:53:15.404Z</time>
      </trkpt>
      <trkpt lat="49.36236" lon="1.40174">
        <ele>105</ele>
        <time>2026-03-24T15:53:19.522Z</time>
      </trkpt>
      <trkpt lat="49.36235" lon="1.40182">
        <ele>104</ele>
        <time>2026-03-24T15:53:24.121Z</time>
      </trkpt>
      <trkpt lat="49.36234" lon="1.4019">
        <ele>104</ele>
        <time>2026-03-24T15:53:28.202Z</time>
      </trkpt>
      <trkpt lat="49.36233" lon="1.40196">
        <ele>104</ele>
        <time>2026-03-24T15:53:32.320Z</time>
      </trkpt>
      <trkpt lat="49.3623" lon="1.40202">
        <ele>104</ele>
        <time>2026-03-24T15:53:36.482Z</time>
      </trkpt>
      <trkpt lat="49.36228" lon="1.40208">
        <ele>104</ele>
        <time>2026-03-24T15:53:40.606Z</time>
      </trkpt>
      <trkpt lat="49.36226" lon="1.40213">
        <ele>102</ele>
        <time>2026-03-24T15:53:44.766Z</time>
      </trkpt>
      <trkpt lat="49.36223" lon="1.40218">
        <ele>102</ele>
        <time>2026-03-24T15:53:48.769Z</time>
      </trkpt>
      <trkpt lat="49.3622" lon="1.40224">
        <ele>102</ele>
        <time>2026-03-24T15:53:53.465Z</time>
      </trkpt>
      <trkpt lat="49.36218" lon="1.4023">
        <ele>102</ele>
        <time>2026-03-24T15:53:57.506Z</time>
      </trkpt>
      <trkpt lat="49.36216" lon="1.40235">
        <ele>102</ele>
        <time>2026-03-24T15:54:01.525Z</time>
      </trkpt>
      <trkpt lat="49.36215" lon="1.40244">
        <ele>101</ele>
        <time>2026-03-24T15:54:06.061Z</time>
      </trkpt>
      <trkpt lat="49.36214" lon="1.40251">
        <ele>101</ele>
        <time>2026-03-24T15:54:10.769Z</time>
      </trkpt>
      <trkpt lat="49.36212" lon="1.40258">
        <ele>101</ele>
        <time>2026-03-24T15:54:15.147Z</time>
      </trkpt>
      <trkpt lat="49.36211" lon="1.40265">
        <ele>99</ele>
        <time>2026-03-24T15:54:19.658Z</time>
      </trkpt>
      <trkpt lat="49.36211" lon="1.40273">
        <ele>99</ele>
        <time>2026-03-24T15:54:23.741Z</time>
      </trkpt>
      <trkpt lat="49.3621" lon="1.40282">
        <ele>99</ele>
        <time>2026-03-24T15:54:28.306Z</time>
      </trkpt>
      <trkpt lat="49.36209" lon="1.40292">
        <ele>98</ele>
        <time>2026-03-24T15:54:32.757Z</time>
      </trkpt>
      <trkpt lat="49.36209" lon="1.40302">
        <ele>98</ele>
        <time>2026-03-24T15:54:37.319Z</time>
      </trkpt>
      <trkpt lat="49.36209" lon="1.4031">
        <ele>98</ele>
        <time>2026-03-24T15:54:41.769Z</time>
      </trkpt>
      <trkpt lat="49.36208" lon="1.40316">
        <ele>98</ele>
        <time>2026-03-24T15:54:45.905Z</time>
      </trkpt>
      <trkpt lat="49.36208" lon="1.40324">
        <ele>97</ele>
        <time>2026-03-24T15:54:50.487Z</time>
      </trkpt>
      <trkpt lat="49.36208" lon="1.40331">
        <ele>97</ele>
        <time>2026-03-24T15:54:54.603Z</time>
      </trkpt>
      <trkpt lat="49.36208" lon="1.40339">
        <ele>97</ele>
        <time>2026-03-24T15:54:58.904Z</time>
      </trkpt>
      <trkpt lat="49.36208" lon="1.40346">
        <ele>96</ele>
        <time>2026-03-24T15:55:03.346Z</time>
      </trkpt>
      <trkpt lat="49.36208" lon="1.40353">
        <ele>94</ele>
        <time>2026-03-24T15:55:07.981Z</time>
      </trkpt>
      <trkpt lat="49.36207" lon="1.4036">
        <ele>94</ele>
        <time>2026-03-24T15:55:12.563Z</time>
      </trkpt>
      <trkpt lat="49.36206" lon="1.40366">
        <ele>94</ele>
        <time>2026-03-24T15:55:16.768Z</time>
      </trkpt>
      <trkpt lat="49.36205" lon="1.40373">
        <ele>94</ele>
        <time>2026-03-24T15:55:21.043Z</time>
      </trkpt>
      <trkpt lat="49.36203" lon="1.40381">
        <ele>93</ele>
        <time>2026-03-24T15:55:25.503Z</time>
      </trkpt>
      <trkpt lat="49.36201" lon="1.40389">
        <ele>93</ele>
        <time>2026-03-24T15:55:30.039Z</time>
      </trkpt>
      <trkpt lat="49.362" lon="1.40395">
        <ele>93</ele>
        <time>2026-03-24T15:55:34.042Z</time>
      </trkpt>
      <trkpt lat="49.36198" lon="1.40403">
        <ele>92</ele>
        <time>2026-03-24T15:55:38.598Z</time>
      </trkpt>
      <trkpt lat="49.36196" lon="1.4041">
        <ele>92</ele>
        <time>2026-03-24T15:55:43.068Z</time>
      </trkpt>
      <trkpt lat="49.36196" lon="1.40417">
        <ele>92</ele>
        <time>2026-03-24T15:55:47.122Z</time>
      </trkpt>
      <trkpt lat="49.36195" lon="1.40426">
        <ele>92</ele>
        <time>2026-03-24T15:55:51.642Z</time>
      </trkpt>
      <trkpt lat="49.36193" lon="1.40433">
        <ele>92</ele>
        <time>2026-03-24T15:55:55.707Z</time>
      </trkpt>
      <trkpt lat="49.36192" lon="1.40441">
        <ele>92</ele>
        <time>2026-03-24T15:56:00.218Z</time>
      </trkpt>
      <trkpt lat="49.3619" lon="1.40448">
        <ele>92</ele>
        <time>2026-03-24T15:56:04.239Z</time>
      </trkpt>
      <trkpt lat="49.36188" lon="1.40455">
        <ele>92</ele>
        <time>2026-03-24T15:56:08.259Z</time>
      </trkpt>
      <trkpt lat="49.36187" lon="1.40462">
        <ele>92</ele>
        <time>2026-03-24T15:56:12.768Z</time>
      </trkpt>
      <trkpt lat="49.36185" lon="1.40468">
        <ele>92</ele>
        <time>2026-03-24T15:56:17.046Z</time>
      </trkpt>
      <trkpt lat="49.36183" lon="1.40475">
        <ele>92</ele>
        <time>2026-03-24T15:56:21.601Z</time>
      </trkpt>
      <trkpt lat="49.36181" lon="1.40482">
        <ele>92</ele>
        <time>2026-03-24T15:56:26.061Z</time>
      </trkpt>
      <trkpt lat="49.3618" lon="1.40488">
        <ele>88</ele>
        <time>2026-03-24T15:56:30.222Z</time>
      </trkpt>
      <trkpt lat="49.3618" lon="1.40496">
        <ele>88</ele>
        <time>2026-03-24T15:56:34.769Z</time>
      </trkpt>
      <trkpt lat="49.36179" lon="1.40502">
        <ele>88</ele>
        <time>2026-03-24T15:56:38.982Z</time>
      </trkpt>
      <trkpt lat="49.36177" lon="1.40508">
        <ele>88</ele>
        <time>2026-03-24T15:56:43.081Z</time>
      </trkpt>
      <trkpt lat="49.36176" lon="1.40516">
        <ele>87</ele>
        <time>2026-03-24T15:56:47.769Z</time>
      </trkpt>
      <trkpt lat="49.36175" lon="1.40522">
        <ele>87</ele>
        <time>2026-03-24T15:56:51.984Z</time>
      </trkpt>
      <trkpt lat="49.36174" lon="1.40529">
        <ele>87</ele>
        <time>2026-03-24T15:56:56.098Z</time>
      </trkpt>
      <trkpt lat="49.36173" lon="1.40536">
        <ele>87</ele>
        <time>2026-03-24T15:57:00.163Z</time>
      </trkpt>
      <trkpt lat="49.36172" lon="1.40542">
        <ele>83</ele>
        <time>2026-03-24T15:57:04.402Z</time>
      </trkpt>
      <trkpt lat="49.36171" lon="1.40549">
        <ele>83</ele>
        <time>2026-03-24T15:57:08.768Z</time>
      </trkpt>
      <trkpt lat="49.3617" lon="1.40555">
        <ele>83</ele>
        <time>2026-03-24T15:57:12.769Z</time>
      </trkpt>
      <trkpt lat="49.36169" lon="1.40562">
        <ele>83</ele>
        <time>2026-03-24T15:57:17.025Z</time>
      </trkpt>
      <trkpt lat="49.36169" lon="1.40569">
        <ele>83</ele>
        <time>2026-03-24T15:57:21.598Z</time>
      </trkpt>
      <trkpt lat="49.36168" lon="1.40575">
        <ele>78</ele>
        <time>2026-03-24T15:57:26.241Z</time>
      </trkpt>
      <trkpt lat="49.36168" lon="1.40581">
        <ele>78</ele>
        <time>2026-03-24T15:57:30.324Z</time>
      </trkpt>
      <trkpt lat="49.36168" lon="1.40587">
        <ele>78</ele>
        <time>2026-03-24T15:57:34.440Z</time>
      </trkpt>
      <trkpt lat="49.36168" lon="1.40593">
        <ele>78</ele>
        <time>2026-03-24T15:57:38.663Z</time>
      </trkpt>
      <trkpt lat="49.36168" lon="1.406">
        <ele>74</ele>
        <time>2026-03-24T15:57:42.769Z</time>
      </trkpt>
      <trkpt lat="49.36168" lon="1.40606">
        <ele>74</ele>
        <time>2026-03-24T15:57:47.238Z</time>
      </trkpt>
      <trkpt lat="49.36168" lon="1.40614">
        <ele>74</ele>
        <time>2026-03-24T15:57:51.681Z</time>
      </trkpt>
      <trkpt lat="49.36169" lon="1.4062">
        <ele>74</ele>
        <time>2026-03-24T15:57:55.768Z</time>
      </trkpt>
      <trkpt lat="49.36169" lon="1.40626">
        <ele>72</ele>
        <time>2026-03-24T15:58:00.159Z</time>
      </trkpt>
      <trkpt lat="49.36172" lon="1.40642">
        <ele>72</ele>
        <time>2026-03-24T15:58:21.769Z</time>
      </trkpt>
      <trkpt lat="49.36172" lon="1.40644">
        <ele>72</ele>
        <time>2026-03-24T15:58:26.769Z</time>
      </trkpt>
      <trkpt lat="49.36173" lon="1.40651">
        <ele>72</ele>
        <time>2026-03-24T15:58:31.339Z</time>
      </trkpt>
      <trkpt lat="49.36174" lon="1.40659">
        <ele>70</ele>
        <time>2026-03-24T15:58:35.938Z</time>
      </trkpt>
      <trkpt lat="49.36175" lon="1.40664">
        <ele>70</ele>
        <time>2026-03-24T15:58:40.099Z</time>
      </trkpt>
      <trkpt lat="49.36176" lon="1.40671">
        <ele>70</ele>
        <time>2026-03-24T15:58:44.743Z</time>
      </trkpt>
      <trkpt lat="49.36177" lon="1.40678">
        <ele>70</ele>
        <time>2026-03-24T15:58:49.158Z</time>
      </trkpt>
      <trkpt lat="49.36177" lon="1.40684">
        <ele>69</ele>
        <time>2026-03-24T15:58:53.485Z</time>
      </trkpt>
      <trkpt lat="49.36178" lon="1.4069">
        <ele>69</ele>
        <time>2026-03-24T15:58:57.769Z</time>
      </trkpt>
      <trkpt lat="49.36179" lon="1.40697">
        <ele>69</ele>
        <time>2026-03-24T15:59:02.562Z</time>
      </trkpt>
      <trkpt lat="49.3618" lon="1.40704">
        <ele>69</ele>
        <time>2026-03-24T15:59:06.678Z</time>
      </trkpt>
      <trkpt lat="49.36182" lon="1.4071">
        <ele>67</ele>
        <time>2026-03-24T15:59:11.120Z</time>
      </trkpt>
      <trkpt lat="49.36183" lon="1.40716">
        <ele>67</ele>
        <time>2026-03-24T15:59:15.501Z</time>
      </trkpt>
      <trkpt lat="49.36184" lon="1.40722">
        <ele>67</ele>
        <time>2026-03-24T15:59:19.564Z</time>
      </trkpt>
      <trkpt lat="49.36185" lon="1.4073">
        <ele>67</ele>
        <time>2026-03-24T15:59:24.102Z</time>
      </trkpt>
      <trkpt lat="49.36187" lon="1.40735">
        <ele>67</ele>
        <time>2026-03-24T15:59:28.659Z</time>
      </trkpt>
      <trkpt lat="49.36187" lon="1.4074">
        <ele>65</ele>
        <time>2026-03-24T15:59:32.769Z</time>
      </trkpt>
      <trkpt lat="49.36188" lon="1.4074">
        <ele>65</ele>
        <time>2026-03-24T15:59:53.605Z</time>
      </trkpt>
      <trkpt lat="49.36188" lon="1.40747">
        <ele>65</ele>
        <time>2026-03-24T15:59:57.768Z</time>
      </trkpt>
      <trkpt lat="49.36189" lon="1.40754">
        <ele>65</ele>
        <time>2026-03-24T16:00:02.401Z</time>
      </trkpt>
      <trkpt lat="49.3619" lon="1.4076">
        <ele>65</ele>
        <time>2026-03-24T16:00:06.421Z</time>
      </trkpt>
      <trkpt lat="49.3619" lon="1.40765">
        <ele>63</ele>
        <time>2026-03-24T16:00:10.583Z</time>
      </trkpt>
      <trkpt lat="49.36192" lon="1.40772">
        <ele>63</ele>
        <time>2026-03-24T16:00:15.181Z</time>
      </trkpt>
      <trkpt lat="49.36193" lon="1.40779">
        <ele>63</ele>
        <time>2026-03-24T16:00:19.720Z</time>
      </trkpt>
      <trkpt lat="49.36194" lon="1.40786">
        <ele>63</ele>
        <time>2026-03-24T16:00:24.143Z</time>
      </trkpt>
      <trkpt lat="49.36195" lon="1.40793">
        <ele>61</ele>
        <time>2026-03-24T16:00:28.646Z</time>
      </trkpt>
      <trkpt lat="49.36197" lon="1.40799">
        <ele>61</ele>
        <time>2026-03-24T16:00:33.203Z</time>
      </trkpt>
      <trkpt lat="49.36199" lon="1.40806">
        <ele>61</ele>
        <time>2026-03-24T16:00:37.758Z</time>
      </trkpt>
      <trkpt lat="49.36202" lon="1.40812">
        <ele>61</ele>
        <time>2026-03-24T16:00:42.306Z</time>
      </trkpt>
      <trkpt lat="49.36204" lon="1.40818">
        <ele>61</ele>
        <time>2026-03-24T16:00:46.768Z</time>
      </trkpt>
      <trkpt lat="49.36206" lon="1.40824">
        <ele>59</ele>
        <time>2026-03-24T16:00:51.346Z</time>
      </trkpt>
      <trkpt lat="49.36208" lon="1.40829">
        <ele>59</ele>
        <time>2026-03-24T16:00:55.419Z</time>
      </trkpt>
      <trkpt lat="49.3621" lon="1.40835">
        <ele>60</ele>
        <time>2026-03-24T16:00:59.940Z</time>
      </trkpt>
      <trkpt lat="49.36213" lon="1.40841">
        <ele>60</ele>
        <time>2026-03-24T16:01:04.399Z</time>
      </trkpt>
      <trkpt lat="49.36216" lon="1.40848">
        <ele>58</ele>
        <time>2026-03-24T16:01:08.840Z</time>
      </trkpt>
      <trkpt lat="49.36218" lon="1.40854">
        <ele>58</ele>
        <time>2026-03-24T16:01:13.327Z</time>
      </trkpt>
      <trkpt lat="49.36221" lon="1.40861">
        <ele>58</ele>
        <time>2026-03-24T16:01:18.462Z</time>
      </trkpt>
      <trkpt lat="49.36224" lon="1.40867">
        <ele>58</ele>
        <time>2026-03-24T16:01:22.885Z</time>
      </trkpt>
      <trkpt lat="49.36227" lon="1.40873">
        <ele>58</ele>
        <time>2026-03-24T16:01:27.458Z</time>
      </trkpt>
      <trkpt lat="49.36229" lon="1.40879">
        <ele>56</ele>
        <time>2026-03-24T16:01:31.767Z</time>
      </trkpt>
      <trkpt lat="49.3623" lon="1.40887">
        <ele>56</ele>
        <time>2026-03-24T16:01:36.342Z</time>
      </trkpt>
      <trkpt lat="49.36232" lon="1.40893">
        <ele>56</ele>
        <time>2026-03-24T16:01:40.785Z</time>
      </trkpt>
      <trkpt lat="49.36234" lon="1.409">
        <ele>56</ele>
        <time>2026-03-24T16:01:45.523Z</time>
      </trkpt>
      <trkpt lat="49.36237" lon="1.40907">
        <ele>54</ele>
        <time>2026-03-24T16:01:50.044Z</time>
      </trkpt>
      <trkpt lat="49.3624" lon="1.40914">
        <ele>54</ele>
        <time>2026-03-24T16:01:54.705Z</time>
      </trkpt>
      <trkpt lat="49.36242" lon="1.4092">
        <ele>54</ele>
        <time>2026-03-24T16:01:59.279Z</time>
      </trkpt>
      <trkpt lat="49.36244" lon="1.40927">
        <ele>54</ele>
        <time>2026-03-24T16:02:03.768Z</time>
      </trkpt>
      <trkpt lat="49.36246" lon="1.40934">
        <ele>53</ele>
        <time>2026-03-24T16:02:07.882Z</time>
      </trkpt>
      <trkpt lat="49.36247" lon="1.4094">
        <ele>53</ele>
        <time>2026-03-24T16:02:12.446Z</time>
      </trkpt>
      <trkpt lat="49.36249" lon="1.40946">
        <ele>53</ele>
        <time>2026-03-24T16:02:16.984Z</time>
      </trkpt>
      <trkpt lat="49.36251" lon="1.40952">
        <ele>53</ele>
        <time>2026-03-24T16:02:21.021Z</time>
      </trkpt>
      <trkpt lat="49.36253" lon="1.40959">
        <ele>53</ele>
        <time>2026-03-24T16:02:25.499Z</time>
      </trkpt>
      <trkpt lat="49.36256" lon="1.40966">
        <ele>53</ele>
        <time>2026-03-24T16:02:30.046Z</time>
      </trkpt>
      <trkpt lat="49.36258" lon="1.40973">
        <ele>53</ele>
        <time>2026-03-24T16:02:34.584Z</time>
      </trkpt>
      <trkpt lat="49.3626" lon="1.4098">
        <ele>53</ele>
        <time>2026-03-24T16:02:38.768Z</time>
      </trkpt>
      <trkpt lat="49.3626" lon="1.40987">
        <ele>52</ele>
        <time>2026-03-24T16:02:43.159Z</time>
      </trkpt>
      <trkpt lat="49.36259" lon="1.40995">
        <ele>52</ele>
        <time>2026-03-24T16:02:47.522Z</time>
      </trkpt>
      <trkpt lat="49.36255" lon="1.41">
        <ele>52</ele>
        <time>2026-03-24T16:02:51.982Z</time>
      </trkpt>
      <trkpt lat="49.36248" lon="1.41005">
        <ele>52</ele>
        <time>2026-03-24T16:03:00.102Z</time>
      </trkpt>
      <trkpt lat="49.36247" lon="1.4101">
        <ele>52</ele>
        <time>2026-03-24T16:03:04.767Z</time>
      </trkpt>
      <trkpt lat="49.36249" lon="1.41012">
        <ele>52</ele>
        <time>2026-03-24T16:03:08.768Z</time>
      </trkpt>
      <trkpt lat="49.3625" lon="1.41017">
        <ele>50</ele>
        <time>2026-03-24T16:03:12.943Z</time>
      </trkpt>
      <trkpt lat="49.36249" lon="1.41026">
        <ele>50</ele>
        <time>2026-03-24T16:03:17.280Z</time>
      </trkpt>
      <trkpt lat="49.36244" lon="1.4103">
        <ele>50</ele>
        <time>2026-03-24T16:03:21.767Z</time>
      </trkpt>
      <trkpt lat="49.36241" lon="1.41036">
        <ele>50</ele>
        <time>2026-03-24T16:03:26.321Z</time>
      </trkpt>
      <trkpt lat="49.36243" lon="1.41044">
        <ele>49</ele>
        <time>2026-03-24T16:03:30.420Z</time>
      </trkpt>
      <trkpt lat="49.36246" lon="1.41051">
        <ele>49</ele>
        <time>2026-03-24T16:03:34.722Z</time>
      </trkpt>
      <trkpt lat="49.36249" lon="1.41055">
        <ele>49</ele>
        <time>2026-03-24T16:03:39.145Z</time>
      </trkpt>
      <trkpt lat="49.36253" lon="1.41061">
        <ele>49</ele>
        <time>2026-03-24T16:03:43.561Z</time>
      </trkpt>
      <trkpt lat="49.36256" lon="1.41067">
        <ele>49</ele>
        <time>2026-03-24T16:03:48.099Z</time>
      </trkpt>
      <trkpt lat="49.36259" lon="1.41073">
        <ele>48</ele>
        <time>2026-03-24T16:03:52.602Z</time>
      </trkpt>
      <trkpt lat="49.36262" lon="1.41079">
        <ele>48</ele>
        <time>2026-03-24T16:03:57.079Z</time>
      </trkpt>
      <trkpt lat="49.36265" lon="1.41084">
        <ele>49</ele>
        <time>2026-03-24T16:04:01.564Z</time>
      </trkpt>
      <trkpt lat="49.36269" lon="1.4109">
        <ele>49</ele>
        <time>2026-03-24T16:04:06.059Z</time>
      </trkpt>
      <trkpt lat="49.36273" lon="1.41097">
        <ele>49</ele>
        <time>2026-03-24T16:04:10.606Z</time>
      </trkpt>
      <trkpt lat="49.36278" lon="1.41102">
        <ele>48</ele>
        <time>2026-03-24T16:04:15.100Z</time>
      </trkpt>
      <trkpt lat="49.36282" lon="1.41107">
        <ele>48</ele>
        <time>2026-03-24T16:04:19.620Z</time>
      </trkpt>
      <trkpt lat="49.36285" lon="1.4111">
        <ele>48</ele>
        <time>2026-03-24T16:04:23.765Z</time>
      </trkpt>
      <trkpt lat="49.3629" lon="1.41112">
        <ele>48</ele>
        <time>2026-03-24T16:04:28.038Z</time>
      </trkpt>
      <trkpt lat="49.36301" lon="1.41113">
        <ele>49</ele>
        <time>2026-03-24T16:04:45.768Z</time>
      </trkpt>
      <trkpt lat="49.36301" lon="1.41114">
        <ele>49</ele>
        <time>2026-03-24T16:04:49.767Z</time>
      </trkpt>
      <trkpt lat="49.36301" lon="1.41115">
        <ele>49</ele>
        <time>2026-03-24T16:04:54.768Z</time>
      </trkpt>
      <trkpt lat="49.36301" lon="1.41115">
        <ele>49</ele>
        <time>2026-03-24T16:05:00.767Z</time>
      </trkpt>
      <trkpt lat="49.36303" lon="1.41114">
        <ele>49</ele>
        <time>2026-03-24T16:05:05.345Z</time>
      </trkpt>
      <trkpt lat="49.36307" lon="1.41108">
        <ele>49</ele>
        <time>2026-03-24T16:05:09.902Z</time>
      </trkpt>
      <trkpt lat="49.36312" lon="1.41103">
        <ele>49</ele>
        <time>2026-03-24T16:05:14.299Z</time>
      </trkpt>
      <trkpt lat="49.36315" lon="1.41097">
        <ele>49</ele>
        <time>2026-03-24T16:05:18.600Z</time>
      </trkpt>
      <trkpt lat="49.36319" lon="1.41091">
        <ele>49</ele>
        <time>2026-03-24T16:05:22.963Z</time>
      </trkpt>
      <trkpt lat="49.36324" lon="1.41087">
        <ele>47</ele>
        <time>2026-03-24T16:05:27.361Z</time>
      </trkpt>
      <trkpt lat="49.36328" lon="1.41081">
        <ele>47</ele>
        <time>2026-03-24T16:05:31.706Z</time>
      </trkpt>
      <trkpt lat="49.36331" lon="1.41076">
        <ele>47</ele>
        <time>2026-03-24T16:05:36.138Z</time>
      </trkpt>
      <trkpt lat="49.36336" lon="1.41072">
        <ele>47</ele>
        <time>2026-03-24T16:05:40.562Z</time>
      </trkpt>
      <trkpt lat="49.36341" lon="1.41067">
        <ele>48</ele>
        <time>2026-03-24T16:05:44.987Z</time>
      </trkpt>
      <trkpt lat="49.36346" lon="1.41063">
        <ele>48</ele>
        <time>2026-03-24T16:05:49.419Z</time>
      </trkpt>
      <trkpt lat="49.3635" lon="1.41059">
        <ele>46</ele>
        <time>2026-03-24T16:05:53.767Z</time>
      </trkpt>
      <trkpt lat="49.36355" lon="1.41054">
        <ele>46</ele>
        <time>2026-03-24T16:05:58.241Z</time>
      </trkpt>
      <trkpt lat="49.36359" lon="1.41049">
        <ele>46</ele>
        <time>2026-03-24T16:06:02.700Z</time>
      </trkpt>
      <trkpt lat="49.36362" lon="1.41044">
        <ele>46</ele>
        <time>2026-03-24T16:06:07.124Z</time>
      </trkpt>
      <trkpt lat="49.36366" lon="1.41038">
        <ele>47</ele>
        <time>2026-03-24T16:06:11.645Z</time>
      </trkpt>
      <trkpt lat="49.36369" lon="1.41032">
        <ele>47</ele>
        <time>2026-03-24T16:06:16.166Z</time>
      </trkpt>
      <trkpt lat="49.36372" lon="1.41024">
        <ele>47</ele>
        <time>2026-03-24T16:06:20.660Z</time>
      </trkpt>
      <trkpt lat="49.36376" lon="1.41018">
        <ele>46</ele>
        <time>2026-03-24T16:06:25.119Z</time>
      </trkpt>
      <trkpt lat="49.3638" lon="1.41011">
        <ele>47</ele>
        <time>2026-03-24T16:06:29.701Z</time>
      </trkpt>
      <trkpt lat="49.36383" lon="1.41005">
        <ele>47</ele>
        <time>2026-03-24T16:06:34.283Z</time>
      </trkpt>
      <trkpt lat="49.36387" lon="1.40999">
        <ele>47</ele>
        <time>2026-03-24T16:06:38.768Z</time>
      </trkpt>
      <trkpt lat="49.36391" lon="1.40994">
        <ele>47</ele>
        <time>2026-03-24T16:06:43.421Z</time>
      </trkpt>
      <trkpt lat="49.36396" lon="1.40992">
        <ele>47</ele>
        <time>2026-03-24T16:06:47.959Z</time>
      </trkpt>
      <trkpt lat="49.36402" lon="1.40996">
        <ele>47</ele>
        <time>2026-03-24T16:06:52.542Z</time>
      </trkpt>
      <trkpt lat="49.36406" lon="1.41002">
        <ele>46</ele>
        <time>2026-03-24T16:06:57.141Z</time>
      </trkpt>
      <trkpt lat="49.36411" lon="1.41005">
        <ele>46</ele>
        <time>2026-03-24T16:07:01.600Z</time>
      </trkpt>
      <trkpt lat="49.36415" lon="1.41011">
        <ele>46</ele>
        <time>2026-03-24T16:07:06.244Z</time>
      </trkpt>
      <trkpt lat="49.36419" lon="1.41016">
        <ele>45</ele>
        <time>2026-03-24T16:07:10.722Z</time>
      </trkpt>
      <trkpt lat="49.36422" lon="1.4102">
        <ele>45</ele>
        <time>2026-03-24T16:07:14.742Z</time>
      </trkpt>
      <trkpt lat="49.36427" lon="1.41025">
        <ele>45</ele>
        <time>2026-03-24T16:07:19.306Z</time>
      </trkpt>
      <trkpt lat="49.36432" lon="1.4103">
        <ele>45</ele>
        <time>2026-03-24T16:07:23.768Z</time>
      </trkpt>
      <trkpt lat="49.36436" lon="1.41035">
        <ele>45</ele>
        <time>2026-03-24T16:07:28.426Z</time>
      </trkpt>
      <trkpt lat="49.3644" lon="1.41041">
        <ele>45</ele>
        <time>2026-03-24T16:07:32.982Z</time>
      </trkpt>
      <trkpt lat="49.36444" lon="1.41047">
        <ele>45</ele>
        <time>2026-03-24T16:07:37.547Z</time>
      </trkpt>
      <trkpt lat="49.36448" lon="1.41051">
        <ele>45</ele>
        <time>2026-03-24T16:07:41.620Z</time>
      </trkpt>
      <trkpt lat="49.36451" lon="1.41054">
        <ele>45</ele>
        <time>2026-03-24T16:07:45.640Z</time>
      </trkpt>
      <trkpt lat="49.36455" lon="1.41059">
        <ele>45</ele>
        <time>2026-03-24T16:07:49.660Z</time>
      </trkpt>
      <trkpt lat="49.36459" lon="1.41064">
        <ele>44</ele>
        <time>2026-03-24T16:07:54.198Z</time>
      </trkpt>
      <trkpt lat="49.36463" lon="1.41069">
        <ele>44</ele>
        <time>2026-03-24T16:07:58.324Z</time>
      </trkpt>
      <trkpt lat="49.36467" lon="1.41074">
        <ele>44</ele>
        <time>2026-03-24T16:08:02.407Z</time>
      </trkpt>
      <trkpt lat="49.36471" lon="1.41079">
        <ele>44</ele>
        <time>2026-03-24T16:08:06.961Z</time>
      </trkpt>
      <trkpt lat="49.36475" lon="1.41084">
        <ele>44</ele>
        <time>2026-03-24T16:08:11.026Z</time>
      </trkpt>
      <trkpt lat="49.36479" lon="1.4109">
        <ele>44</ele>
        <time>2026-03-24T16:08:15.686Z</time>
      </trkpt>
      <trkpt lat="49.36483" lon="1.41094">
        <ele>44</ele>
        <time>2026-03-24T16:08:19.699Z</time>
      </trkpt>
      <trkpt lat="49.36488" lon="1.41099">
        <ele>44</ele>
        <time>2026-03-24T16:08:24.342Z</time>
      </trkpt>
      <trkpt lat="49.36492" lon="1.41105">
        <ele>44</ele>
        <time>2026-03-24T16:08:28.768Z</time>
      </trkpt>
      <trkpt lat="49.36497" lon="1.4111">
        <ele>44</ele>
        <time>2026-03-24T16:08:33.445Z</time>
      </trkpt>
      <trkpt lat="49.36501" lon="1.41114">
        <ele>44</ele>
        <time>2026-03-24T16:08:37.482Z</time>
      </trkpt>
      <trkpt lat="49.36505" lon="1.41119">
        <ele>44</ele>
        <time>2026-03-24T16:08:41.678Z</time>
      </trkpt>
      <trkpt lat="49.36509" lon="1.41123">
        <ele>44</ele>
        <time>2026-03-24T16:08:45.763Z</time>
      </trkpt>
      <trkpt lat="49.36513" lon="1.41127">
        <ele>43</ele>
        <time>2026-03-24T16:08:50Z</time>
      </trkpt>
      <trkpt lat="49.36516" lon="1.41131">
        <ele>44</ele>
        <time>2026-03-24T16:08:54.221Z</time>
      </trkpt>
      <trkpt lat="49.36518" lon="1.41131">
        <ele>44</ele>
        <time>2026-03-24T16:08:58.454Z</time>
      </trkpt>
      <trkpt lat="49.36518" lon="1.41131">
        <ele>44</ele>
        <time>2026-03-24T16:09:02.767Z</time>
      </trkpt>
      <trkpt lat="49.36521" lon="1.41132">
        <ele>44</ele>
        <time>2026-03-24T16:09:07.626Z</time>
      </trkpt>
      <trkpt lat="49.36526" lon="1.41134">
        <ele>44</ele>
        <time>2026-03-24T16:09:11.767Z</time>
      </trkpt>
      <trkpt lat="49.3653" lon="1.41137">
        <ele>44</ele>
        <time>2026-03-24T16:09:16.659Z</time>
      </trkpt>
      <trkpt lat="49.36539" lon="1.41143">
        <ele>44</ele>
        <time>2026-03-24T16:11:15.768Z</time>
      </trkpt>
      <trkpt lat="49.36539" lon="1.41143">
        <ele>44</ele>
        <time>2026-03-24T16:11:20.768Z</time>
      </trkpt>
      <trkpt lat="49.3654" lon="1.41142">
        <ele>44</ele>
        <time>2026-03-24T16:11:25.074Z</time>
      </trkpt>
      <trkpt lat="49.36542" lon="1.41142">
        <ele>46</ele>
        <time>2026-03-24T16:11:29.473Z</time>
      </trkpt>
      <trkpt lat="49.36546" lon="1.41142">
        <ele>46</ele>
        <time>2026-03-24T16:11:33.618Z</time>
      </trkpt>
      <trkpt lat="49.36554" lon="1.4115">
        <ele>46</ele>
        <time>2026-03-24T16:12:04.768Z</time>
      </trkpt>
      <trkpt lat="49.36554" lon="1.41151">
        <ele>46</ele>
        <time>2026-03-24T16:12:09.768Z</time>
      </trkpt>
      <trkpt lat="49.36555" lon="1.41151">
        <ele>46</ele>
        <time>2026-03-24T16:12:14.301Z</time>
      </trkpt>
      <trkpt lat="49.36558" lon="1.41154">
        <ele>45</ele>
        <time>2026-03-24T16:12:18.767Z</time>
      </trkpt>
      <trkpt lat="49.36562" lon="1.41159">
        <ele>45</ele>
        <time>2026-03-24T16:12:23.195Z</time>
      </trkpt>
      <trkpt lat="49.36564" lon="1.41167">
        <ele>45</ele>
        <time>2026-03-24T16:12:27.321Z</time>
      </trkpt>
      <trkpt lat="49.36568" lon="1.41172">
        <ele>45</ele>
        <time>2026-03-24T16:12:31.780Z</time>
      </trkpt>
      <trkpt lat="49.36571" lon="1.41182">
        <ele>48</ele>
        <time>2026-03-24T16:12:35.768Z</time>
      </trkpt>
      <trkpt lat="49.36573" lon="1.4119">
        <ele>48</ele>
        <time>2026-03-24T16:12:40.299Z</time>
      </trkpt>
      <trkpt lat="49.36569" lon="1.41197">
        <ele>45</ele>
        <time>2026-03-24T16:12:44.768Z</time>
      </trkpt>
      <trkpt lat="49.36567" lon="1.41204">
        <ele>45</ele>
        <time>2026-03-24T16:12:49.181Z</time>
      </trkpt>
      <trkpt lat="49.36565" lon="1.41211">
        <ele>48</ele>
        <time>2026-03-24T16:12:53.562Z</time>
      </trkpt>
      <trkpt lat="49.3656" lon="1.41219">
        <ele>48</ele>
        <time>2026-03-24T16:12:57.994Z</time>
      </trkpt>
      <trkpt lat="49.36556" lon="1.41227">
        <ele>48</ele>
        <time>2026-03-24T16:13:02.432Z</time>
      </trkpt>
      <trkpt lat="49.36553" lon="1.41234">
        <ele>48</ele>
        <time>2026-03-24T16:13:06.767Z</time>
      </trkpt>
      <trkpt lat="49.3655" lon="1.41241">
        <ele>53</ele>
        <time>2026-03-24T16:13:11.255Z</time>
      </trkpt>
      <trkpt lat="49.36547" lon="1.41247">
        <ele>53</ele>
        <time>2026-03-24T16:13:15.262Z</time>
      </trkpt>
      <trkpt lat="49.36543" lon="1.41253">
        <ele>53</ele>
        <time>2026-03-24T16:13:19.655Z</time>
      </trkpt>
      <trkpt lat="49.3654" lon="1.4126">
        <ele>47</ele>
        <time>2026-03-24T16:13:23.931Z</time>
      </trkpt>
      <trkpt lat="49.36537" lon="1.41266">
        <ele>50</ele>
        <time>2026-03-24T16:13:28.342Z</time>
      </trkpt>
      <trkpt lat="49.36534" lon="1.41274">
        <ele>50</ele>
        <time>2026-03-24T16:13:32.758Z</time>
      </trkpt>
      <trkpt lat="49.36531" lon="1.4128">
        <ele>50</ele>
        <time>2026-03-24T16:13:36.773Z</time>
      </trkpt>
      <trkpt lat="49.36527" lon="1.41287">
        <ele>50</ele>
        <time>2026-03-24T16:13:41.251Z</time>
      </trkpt>
      <trkpt lat="49.36524" lon="1.41293">
        <ele>54</ele>
        <time>2026-03-24T16:13:45.632Z</time>
      </trkpt>
      <trkpt lat="49.3652" lon="1.413">
        <ele>54</ele>
        <time>2026-03-24T16:13:50.078Z</time>
      </trkpt>
      <trkpt lat="49.36517" lon="1.41306">
        <ele>54</ele>
        <time>2026-03-24T16:13:54.475Z</time>
      </trkpt>
      <trkpt lat="49.36513" lon="1.41313">
        <ele>48</ele>
        <time>2026-03-24T16:13:58.961Z</time>
      </trkpt>
      <trkpt lat="49.3651" lon="1.4132">
        <ele>53</ele>
        <time>2026-03-24T16:14:03.372Z</time>
      </trkpt>
      <trkpt lat="49.36506" lon="1.41327">
        <ele>53</ele>
        <time>2026-03-24T16:14:07.767Z</time>
      </trkpt>
      <trkpt lat="49.36503" lon="1.41333">
        <ele>53</ele>
        <time>2026-03-24T16:14:11.768Z</time>
      </trkpt>
      <trkpt lat="49.36499" lon="1.41339">
        <ele>53</ele>
        <time>2026-03-24T16:14:16.188Z</time>
      </trkpt>
      <trkpt lat="49.36495" lon="1.41345">
        <ele>53</ele>
        <time>2026-03-24T16:14:20.675Z</time>
      </trkpt>
      <trkpt lat="49.36491" lon="1.41351">
        <ele>58</ele>
        <time>2026-03-24T16:14:25.152Z</time>
      </trkpt>
      <trkpt lat="49.36486" lon="1.41356">
        <ele>58</ele>
        <time>2026-03-24T16:14:29.690Z</time>
      </trkpt>
      <trkpt lat="49.36483" lon="1.4136">
        <ele>55</ele>
        <time>2026-03-24T16:14:33.693Z</time>
      </trkpt>
      <trkpt lat="49.36478" lon="1.41364">
        <ele>55</ele>
        <time>2026-03-24T16:14:37.731Z</time>
      </trkpt>
      <trkpt lat="49.36474" lon="1.41368">
        <ele>55</ele>
        <time>2026-03-24T16:14:41.768Z</time>
      </trkpt>
      <trkpt lat="49.36469" lon="1.41371">
        <ele>55</ele>
        <time>2026-03-24T16:14:46.478Z</time>
      </trkpt>
      <trkpt lat="49.36466" lon="1.41376">
        <ele>59</ele>
        <time>2026-03-24T16:14:50.534Z</time>
      </trkpt>
      <trkpt lat="49.36462" lon="1.4138">
        <ele>59</ele>
        <time>2026-03-24T16:14:54.634Z</time>
      </trkpt>
      <trkpt lat="49.36458" lon="1.41384">
        <ele>52</ele>
        <time>2026-03-24T16:14:59.255Z</time>
      </trkpt>
      <trkpt lat="49.36454" lon="1.41387">
        <ele>52</ele>
        <time>2026-03-24T16:15:03.767Z</time>
      </trkpt>
      <trkpt lat="49.3645" lon="1.41391">
        <ele>52</ele>
        <time>2026-03-24T16:15:08.395Z</time>
      </trkpt>
      <trkpt lat="49.36447" lon="1.41395">
        <ele>52</ele>
        <time>2026-03-24T16:15:12.572Z</time>
      </trkpt>
      <trkpt lat="49.36442" lon="1.41399">
        <ele>52</ele>
        <time>2026-03-24T16:15:16.611Z</time>
      </trkpt>
      <trkpt lat="49.36438" lon="1.41402">
        <ele>52</ele>
        <time>2026-03-24T16:15:20.621Z</time>
      </trkpt>
      <trkpt lat="49.36433" lon="1.41406">
        <ele>56</ele>
        <time>2026-03-24T16:15:25.155Z</time>
      </trkpt>
      <trkpt lat="49.36428" lon="1.41409">
        <ele>50</ele>
        <time>2026-03-24T16:15:29.720Z</time>
      </trkpt>
      <trkpt lat="49.36425" lon="1.41413">
        <ele>50</ele>
        <time>2026-03-24T16:15:33.737Z</time>
      </trkpt>
      <trkpt lat="49.3642" lon="1.41417">
        <ele>50</ele>
        <time>2026-03-24T16:15:38.293Z</time>
      </trkpt>
      <trkpt lat="49.36416" lon="1.41423">
        <ele>50</ele>
        <time>2026-03-24T16:15:42.768Z</time>
      </trkpt>
      <trkpt lat="49.36412" lon="1.41427">
        <ele>50</ele>
        <time>2026-03-24T16:15:46.781Z</time>
      </trkpt>
      <trkpt lat="49.36408" lon="1.41432">
        <ele>56</ele>
        <time>2026-03-24T16:15:51.359Z</time>
      </trkpt>
      <trkpt lat="49.36403" lon="1.41434">
        <ele>56</ele>
        <time>2026-03-24T16:15:55.441Z</time>
      </trkpt>
      <trkpt lat="49.364" lon="1.41438">
        <ele>51</ele>
        <time>2026-03-24T16:15:59.514Z</time>
      </trkpt>
      <trkpt lat="49.36398" lon="1.41441">
        <ele>51</ele>
        <time>2026-03-24T16:16:03.595Z</time>
      </trkpt>
      <trkpt lat="49.36394" lon="1.4145">
        <ele>51</ele>
        <time>2026-03-24T16:16:07.719Z</time>
      </trkpt>
      <trkpt lat="49.36391" lon="1.41455">
        <ele>51</ele>
        <time>2026-03-24T16:16:11.773Z</time>
      </trkpt>
      <trkpt lat="49.36387" lon="1.41457">
        <ele>51</ele>
        <time>2026-03-24T16:16:15.768Z</time>
      </trkpt>
      <trkpt lat="49.36384" lon="1.41463">
        <ele>55</ele>
        <time>2026-03-24T16:16:19.941Z</time>
      </trkpt>
      <trkpt lat="49.3638" lon="1.41467">
        <ele>55</ele>
        <time>2026-03-24T16:16:23.997Z</time>
      </trkpt>
      <trkpt lat="49.36376" lon="1.41473">
        <ele>55</ele>
        <time>2026-03-24T16:16:28.573Z</time>
      </trkpt>
      <trkpt lat="49.36371" lon="1.41477">
        <ele>49</ele>
        <time>2026-03-24T16:16:32.612Z</time>
      </trkpt>
      <trkpt lat="49.36368" lon="1.41482">
        <ele>49</ele>
        <time>2026-03-24T16:16:36.711Z</time>
      </trkpt>
      <trkpt lat="49.36364" lon="1.41486">
        <ele>49</ele>
        <time>2026-03-24T16:16:40.763Z</time>
      </trkpt>
      <trkpt lat="49.3636" lon="1.4149">
        <ele>51</ele>
        <time>2026-03-24T16:16:44.768Z</time>
      </trkpt>
      <trkpt lat="49.36355" lon="1.41493">
        <ele>51</ele>
        <time>2026-03-24T16:16:48.768Z</time>
      </trkpt>
      <trkpt lat="49.36351" lon="1.41497">
        <ele>51</ele>
        <time>2026-03-24T16:16:53.315Z</time>
      </trkpt>
      <trkpt lat="49.36347" lon="1.41501">
        <ele>50</ele>
        <time>2026-03-24T16:16:57.768Z</time>
      </trkpt>
      <trkpt lat="49.36342" lon="1.41506">
        <ele>50</ele>
        <time>2026-03-24T16:17:02.400Z</time>
      </trkpt>
      <trkpt lat="49.36338" lon="1.4151">
        <ele>50</ele>
        <time>2026-03-24T16:17:06.418Z</time>
      </trkpt>
      <trkpt lat="49.36334" lon="1.41515">
        <ele>51</ele>
        <time>2026-03-24T16:17:10.972Z</time>
      </trkpt>
      <trkpt lat="49.3633" lon="1.4152">
        <ele>51</ele>
        <time>2026-03-24T16:17:15.538Z</time>
      </trkpt>
      <trkpt lat="49.36326" lon="1.41524">
        <ele>51</ele>
        <time>2026-03-24T16:17:19.768Z</time>
      </trkpt>
      <trkpt lat="49.36323" lon="1.41529">
        <ele>51</ele>
        <time>2026-03-24T16:17:24.158Z</time>
      </trkpt>
      <trkpt lat="49.3632" lon="1.41534">
        <ele>51</ele>
        <time>2026-03-24T16:17:28.182Z</time>
      </trkpt>
      <trkpt lat="49.36317" lon="1.41538">
        <ele>50</ele>
        <time>2026-03-24T16:17:32.301Z</time>
      </trkpt>
      <trkpt lat="49.36313" lon="1.41543">
        <ele>51</ele>
        <time>2026-03-24T16:17:36.338Z</time>
      </trkpt>
      <trkpt lat="49.3631" lon="1.41547">
        <ele>51</ele>
        <time>2026-03-24T16:17:40.431Z</time>
      </trkpt>
      <trkpt lat="49.36307" lon="1.41551">
        <ele>51</ele>
        <time>2026-03-24T16:17:44.514Z</time>
      </trkpt>
      <trkpt lat="49.36303" lon="1.41555">
        <ele>51</ele>
        <time>2026-03-24T16:17:48.661Z</time>
      </trkpt>
      <trkpt lat="49.36301" lon="1.4156">
        <ele>51</ele>
        <time>2026-03-24T16:17:52.767Z</time>
      </trkpt>
      <trkpt lat="49.36297" lon="1.41567">
        <ele>51</ele>
        <time>2026-03-24T16:17:57.439Z</time>
      </trkpt>
      <trkpt lat="49.36294" lon="1.41572">
        <ele>53</ele>
        <time>2026-03-24T16:18:01.480Z</time>
      </trkpt>
      <trkpt lat="49.36292" lon="1.41578">
        <ele>51</ele>
        <time>2026-03-24T16:18:05.514Z</time>
      </trkpt>
      <trkpt lat="49.36289" lon="1.41583">
        <ele>51</ele>
        <time>2026-03-24T16:18:09.535Z</time>
      </trkpt>
      <trkpt lat="49.36286" lon="1.41589">
        <ele>51</ele>
        <time>2026-03-24T16:18:13.630Z</time>
      </trkpt>
      <trkpt lat="49.36282" lon="1.41595">
        <ele>51</ele>
        <time>2026-03-24T16:18:18.151Z</time>
      </trkpt>
      <trkpt lat="49.3628" lon="1.416">
        <ele>52</ele>
        <time>2026-03-24T16:18:22.232Z</time>
      </trkpt>
      <trkpt lat="49.36276" lon="1.41606">
        <ele>52</ele>
        <time>2026-03-24T16:18:26.518Z</time>
      </trkpt>
      <trkpt lat="49.36274" lon="1.41611">
        <ele>52</ele>
        <time>2026-03-24T16:18:30.572Z</time>
      </trkpt>
      <trkpt lat="49.36271" lon="1.41617">
        <ele>52</ele>
        <time>2026-03-24T16:18:34.638Z</time>
      </trkpt>
      <trkpt lat="49.36269" lon="1.41623">
        <ele>52</ele>
        <time>2026-03-24T16:18:38.739Z</time>
      </trkpt>
      <trkpt lat="49.36267" lon="1.41628">
        <ele>53</ele>
        <time>2026-03-24T16:18:42.767Z</time>
      </trkpt>
      <trkpt lat="49.36264" lon="1.41634">
        <ele>53</ele>
        <time>2026-03-24T16:18:47.378Z</time>
      </trkpt>
      <trkpt lat="49.36261" lon="1.41639">
        <ele>48</ele>
        <time>2026-03-24T16:18:51.393Z</time>
      </trkpt>
      <trkpt lat="49.36258" lon="1.41645">
        <ele>48</ele>
        <time>2026-03-24T16:18:55.459Z</time>
      </trkpt>
      <trkpt lat="49.36255" lon="1.4165">
        <ele>48</ele>
        <time>2026-03-24T16:18:59.578Z</time>
      </trkpt>
      <trkpt lat="49.36252" lon="1.41655">
        <ele>49</ele>
        <time>2026-03-24T16:19:03.596Z</time>
      </trkpt>
      <trkpt lat="49.36249" lon="1.4166">
        <ele>49</ele>
        <time>2026-03-24T16:19:07.766Z</time>
      </trkpt>
      <trkpt lat="49.36246" lon="1.41665">
        <ele>49</ele>
        <time>2026-03-24T16:19:11.999Z</time>
      </trkpt>
      <trkpt lat="49.36243" lon="1.41671">
        <ele>49</ele>
        <time>2026-03-24T16:19:16.081Z</time>
      </trkpt>
      <trkpt lat="49.3624" lon="1.41677">
        <ele>49</ele>
        <time>2026-03-24T16:19:20.138Z</time>
      </trkpt>
      <trkpt lat="49.36237" lon="1.41682">
        <ele>53</ele>
        <time>2026-03-24T16:19:24.199Z</time>
      </trkpt>
      <trkpt lat="49.36233" lon="1.41687">
        <ele>51</ele>
        <time>2026-03-24T16:19:28.313Z</time>
      </trkpt>
      <trkpt lat="49.3623" lon="1.41692">
        <ele>51</ele>
        <time>2026-03-24T16:19:32.430Z</time>
      </trkpt>
      <trkpt lat="49.36227" lon="1.41697">
        <ele>51</ele>
        <time>2026-03-24T16:19:36.512Z</time>
      </trkpt>
      <trkpt lat="49.36223" lon="1.41702">
        <ele>51</ele>
        <time>2026-03-24T16:19:41.094Z</time>
      </trkpt>
      <trkpt lat="49.3622" lon="1.41706">
        <ele>51</ele>
        <time>2026-03-24T16:19:45.132Z</time>
      </trkpt>
      <trkpt lat="49.36217" lon="1.41712">
        <ele>54</ele>
        <time>2026-03-24T16:19:49.595Z</time>
      </trkpt>
      <trkpt lat="49.36214" lon="1.41718">
        <ele>54</ele>
        <time>2026-03-24T16:19:53.695Z</time>
      </trkpt>
      <trkpt lat="49.36211" lon="1.41723">
        <ele>54</ele>
        <time>2026-03-24T16:19:57.772Z</time>
      </trkpt>
      <trkpt lat="49.36207" lon="1.41727">
        <ele>53</ele>
        <time>2026-03-24T16:20:01.766Z</time>
      </trkpt>
      <trkpt lat="49.36205" lon="1.41732">
        <ele>53</ele>
        <time>2026-03-24T16:20:05.892Z</time>
      </trkpt>
      <trkpt lat="49.36201" lon="1.41736">
        <ele>54</ele>
        <time>2026-03-24T16:20:09.929Z</time>
      </trkpt>
      <trkpt lat="49.36198" lon="1.41741">
        <ele>54</ele>
        <time>2026-03-24T16:20:14.073Z</time>
      </trkpt>
      <trkpt lat="49.36194" lon="1.41746">
        <ele>54</ele>
        <time>2026-03-24T16:20:18.189Z</time>
      </trkpt>
      <trkpt lat="49.36191" lon="1.41752">
        <ele>54</ele>
        <time>2026-03-24T16:20:22.763Z</time>
      </trkpt>
      <trkpt lat="49.36188" lon="1.41757">
        <ele>54</ele>
        <time>2026-03-24T16:20:26.766Z</time>
      </trkpt>
      <trkpt lat="49.36185" lon="1.41764">
        <ele>54</ele>
        <time>2026-03-24T16:20:31.392Z</time>
      </trkpt>
      <trkpt lat="49.36182" lon="1.41769">
        <ele>55</ele>
        <time>2026-03-24T16:20:35.412Z</time>
      </trkpt>
      <trkpt lat="49.3618" lon="1.41775">
        <ele>50</ele>
        <time>2026-03-24T16:20:39.512Z</time>
      </trkpt>
      <trkpt lat="49.36177" lon="1.41781">
        <ele>50</ele>
        <time>2026-03-24T16:20:43.599Z</time>
      </trkpt>
      <trkpt lat="49.36174" lon="1.41787">
        <ele>50</ele>
        <time>2026-03-24T16:20:47.618Z</time>
      </trkpt>
      <trkpt lat="49.36171" lon="1.41795">
        <ele>51</ele>
        <time>2026-03-24T16:20:51.673Z</time>
      </trkpt>
      <trkpt lat="49.36169" lon="1.418">
        <ele>51</ele>
        <time>2026-03-24T16:20:55.720Z</time>
      </trkpt>
      <trkpt lat="49.36167" lon="1.41807">
        <ele>51</ele>
        <time>2026-03-24T16:20:59.740Z</time>
      </trkpt>
      <trkpt lat="49.36165" lon="1.41813">
        <ele>51</ele>
        <time>2026-03-24T16:21:03.767Z</time>
      </trkpt>
      <trkpt lat="49.36163" lon="1.4182">
        <ele>51</ele>
        <time>2026-03-24T16:21:08.458Z</time>
      </trkpt>
      <trkpt lat="49.36161" lon="1.41826">
        <ele>51</ele>
        <time>2026-03-24T16:21:12.479Z</time>
      </trkpt>
      <trkpt lat="49.36159" lon="1.41832">
        <ele>51</ele>
        <time>2026-03-24T16:21:16.424Z</time>
      </trkpt>
      <trkpt lat="49.36157" lon="1.41839">
        <ele>51</ele>
        <time>2026-03-24T16:21:20.638Z</time>
      </trkpt>
      <trkpt lat="49.36155" lon="1.41845">
        <ele>51</ele>
        <time>2026-03-24T16:21:24.674Z</time>
      </trkpt>
      <trkpt lat="49.36152" lon="1.41853">
        <ele>48</ele>
        <time>2026-03-24T16:21:29.218Z</time>
      </trkpt>
      <trkpt lat="49.3615" lon="1.41859">
        <ele>48</ele>
        <time>2026-03-24T16:21:33.254Z</time>
      </trkpt>
      <trkpt lat="49.36148" lon="1.41866">
        <ele>48</ele>
        <time>2026-03-24T16:21:37.338Z</time>
      </trkpt>
      <trkpt lat="49.36146" lon="1.41872">
        <ele>48</ele>
        <time>2026-03-24T16:21:41.510Z</time>
      </trkpt>
      <trkpt lat="49.36145" lon="1.41879">
        <ele>49</ele>
        <time>2026-03-24T16:21:45.670Z</time>
      </trkpt>
      <trkpt lat="49.36143" lon="1.41885">
        <ele>49</ele>
        <time>2026-03-24T16:21:49.718Z</time>
      </trkpt>
      <trkpt lat="49.36141" lon="1.41891">
        <ele>49</ele>
        <time>2026-03-24T16:21:54.114Z</time>
      </trkpt>
      <trkpt lat="49.36139" lon="1.41898">
        <ele>49</ele>
        <time>2026-03-24T16:21:58.653Z</time>
      </trkpt>
      <trkpt lat="49.36137" lon="1.41906">
        <ele>49</ele>
        <time>2026-03-24T16:22:02.739Z</time>
      </trkpt>
      <trkpt lat="49.36135" lon="1.41912">
        <ele>49</ele>
        <time>2026-03-24T16:22:06.767Z</time>
      </trkpt>
      <trkpt lat="49.36132" lon="1.41921">
        <ele>49</ele>
        <time>2026-03-24T16:22:11.500Z</time>
      </trkpt>
      <trkpt lat="49.3613" lon="1.41927">
        <ele>49</ele>
        <time>2026-03-24T16:22:15.579Z</time>
      </trkpt>
      <trkpt lat="49.36128" lon="1.41933">
        <ele>49</ele>
        <time>2026-03-24T16:22:19.650Z</time>
      </trkpt>
      <trkpt lat="49.36126" lon="1.41939">
        <ele>49</ele>
        <time>2026-03-24T16:22:23.714Z</time>
      </trkpt>
      <trkpt lat="49.36124" lon="1.41944">
        <ele>48</ele>
        <time>2026-03-24T16:22:27.752Z</time>
      </trkpt>
      <trkpt lat="49.36121" lon="1.4195">
        <ele>48</ele>
        <time>2026-03-24T16:22:32.290Z</time>
      </trkpt>
      <trkpt lat="49.36119" lon="1.41957">
        <ele>48</ele>
        <time>2026-03-24T16:22:36.766Z</time>
      </trkpt>
      <trkpt lat="49.36116" lon="1.41962">
        <ele>49</ele>
        <time>2026-03-24T16:22:40.976Z</time>
      </trkpt>
      <trkpt lat="49.36112" lon="1.41967">
        <ele>49</ele>
        <time>2026-03-24T16:22:45.138Z</time>
      </trkpt>
      <trkpt lat="49.36108" lon="1.4197">
        <ele>49</ele>
        <time>2026-03-24T16:22:49.231Z</time>
      </trkpt>
      <trkpt lat="49.36103" lon="1.41972">
        <ele>49</ele>
        <time>2026-03-24T16:22:53.359Z</time>
      </trkpt>
      <trkpt lat="49.36098" lon="1.41971">
        <ele>49</ele>
        <time>2026-03-24T16:22:57.430Z</time>
      </trkpt>
      <trkpt lat="49.36093" lon="1.41969">
        <ele>50</ele>
        <time>2026-03-24T16:23:01.529Z</time>
      </trkpt>
      <trkpt lat="49.36089" lon="1.41966">
        <ele>50</ele>
        <time>2026-03-24T16:23:05.767Z</time>
      </trkpt>
      <trkpt lat="49.36088" lon="1.41963">
        <ele>50</ele>
        <time>2026-03-24T16:23:10.766Z</time>
      </trkpt>
      <trkpt lat="49.36088" lon="1.41962">
        <ele>50</ele>
        <time>2026-03-24T16:23:15.218Z</time>
      </trkpt>
      <trkpt lat="49.36083" lon="1.41962">
        <ele>50</ele>
        <time>2026-03-24T16:23:19.223Z</time>
      </trkpt>
      <trkpt lat="49.36077" lon="1.41961">
        <ele>50</ele>
        <time>2026-03-24T16:23:23.675Z</time>
      </trkpt>
      <trkpt lat="49.36072" lon="1.41956">
        <ele>48</ele>
        <time>2026-03-24T16:23:28.277Z</time>
      </trkpt>
      <trkpt lat="49.36067" lon="1.41954">
        <ele>48</ele>
        <time>2026-03-24T16:23:32.331Z</time>
      </trkpt>
      <trkpt lat="49.36063" lon="1.41951">
        <ele>48</ele>
        <time>2026-03-24T16:23:36.352Z</time>
      </trkpt>
      <trkpt lat="49.36059" lon="1.41949">
        <ele>48</ele>
        <time>2026-03-24T16:23:40.354Z</time>
      </trkpt>
      <trkpt lat="49.36054" lon="1.41944">
        <ele>48</ele>
        <time>2026-03-24T16:23:44.436Z</time>
      </trkpt>
      <trkpt lat="49.36051" lon="1.4194">
        <ele>48</ele>
        <time>2026-03-24T16:23:48.490Z</time>
      </trkpt>
      <trkpt lat="49.36047" lon="1.41935">
        <ele>48</ele>
        <time>2026-03-24T16:23:52.558Z</time>
      </trkpt>
      <trkpt lat="49.36044" lon="1.4193">
        <ele>47</ele>
        <time>2026-03-24T16:23:56.638Z</time>
      </trkpt>
      <trkpt lat="49.36041" lon="1.41926">
        <ele>48</ele>
        <time>2026-03-24T16:24:00.714Z</time>
      </trkpt>
      <trkpt lat="49.36037" lon="1.41923">
        <ele>48</ele>
        <time>2026-03-24T16:24:04.735Z</time>
      </trkpt>
      <trkpt lat="49.36033" lon="1.41919">
        <ele>48</ele>
        <time>2026-03-24T16:24:08.767Z</time>
      </trkpt>
      <trkpt lat="49.36029" lon="1.41915">
        <ele>48</ele>
        <time>2026-03-24T16:24:13.034Z</time>
      </trkpt>
      <trkpt lat="49.36027" lon="1.41912">
        <ele>48</ele>
        <time>2026-03-24T16:24:17.767Z</time>
      </trkpt>
      <trkpt lat="49.36023" lon="1.41909">
        <ele>48</ele>
        <time>2026-03-24T16:24:22.159Z</time>
      </trkpt>
      <trkpt lat="49.36018" lon="1.41907">
        <ele>48</ele>
        <time>2026-03-24T16:24:26.713Z</time>
      </trkpt>
      <trkpt lat="49.36013" lon="1.41904">
        <ele>48</ele>
        <time>2026-03-24T16:24:31.279Z</time>
      </trkpt>
      <trkpt lat="49.36008" lon="1.41899">
        <ele>48</ele>
        <time>2026-03-24T16:24:35.766Z</time>
      </trkpt>
      <trkpt lat="49.36004" lon="1.41896">
        <ele>48</ele>
        <time>2026-03-24T16:24:39.767Z</time>
      </trkpt>
      <trkpt lat="49.35999" lon="1.41891">
        <ele>48</ele>
        <time>2026-03-24T16:24:44.399Z</time>
      </trkpt>
      <trkpt lat="49.35995" lon="1.41888">
        <ele>48</ele>
        <time>2026-03-24T16:24:48.530Z</time>
      </trkpt>
      <trkpt lat="49.35991" lon="1.41884">
        <ele>48</ele>
        <time>2026-03-24T16:24:52.630Z</time>
      </trkpt>
      <trkpt lat="49.35986" lon="1.41882">
        <ele>47</ele>
        <time>2026-03-24T16:24:56.773Z</time>
      </trkpt>
      <trkpt lat="49.35982" lon="1.41879">
        <ele>47</ele>
        <time>2026-03-24T16:25:01.031Z</time>
      </trkpt>
      <trkpt lat="49.3598" lon="1.41875">
        <ele>47</ele>
        <time>2026-03-24T16:25:05.767Z</time>
      </trkpt>
      <trkpt lat="49.35981" lon="1.41875">
        <ele>47</ele>
        <time>2026-03-24T16:25:14.767Z</time>
      </trkpt>
      <trkpt lat="49.3598" lon="1.41875">
        <ele>48</ele>
        <time>2026-03-24T16:25:19.241Z</time>
      </trkpt>
      <trkpt lat="49.35979" lon="1.41872">
        <ele>48</ele>
        <time>2026-03-24T16:25:23.559Z</time>
      </trkpt>
      <trkpt lat="49.35976" lon="1.41863">
        <ele>48</ele>
        <time>2026-03-24T16:25:27.767Z</time>
      </trkpt>
      <trkpt lat="49.35975" lon="1.41856">
        <ele>48</ele>
        <time>2026-03-24T16:25:32.095Z</time>
      </trkpt>
      <trkpt lat="49.35973" lon="1.41849">
        <ele>48</ele>
        <time>2026-03-24T16:25:36.398Z</time>
      </trkpt>
      <trkpt lat="49.35972" lon="1.41842">
        <ele>48</ele>
        <time>2026-03-24T16:25:40.766Z</time>
      </trkpt>
      <trkpt lat="49.35972" lon="1.41836">
        <ele>48</ele>
        <time>2026-03-24T16:25:45.259Z</time>
      </trkpt>
      <trkpt lat="49.35971" lon="1.41828">
        <ele>48</ele>
        <time>2026-03-24T16:25:49.542Z</time>
      </trkpt>
      <trkpt lat="49.3597" lon="1.41822">
        <ele>48</ele>
        <time>2026-03-24T16:25:53.768Z</time>
      </trkpt>
      <trkpt lat="49.35968" lon="1.41818">
        <ele>48</ele>
        <time>2026-03-24T16:25:57.767Z</time>
      </trkpt>
      <trkpt lat="49.35967" lon="1.41818">
        <ele>48</ele>
        <time>2026-03-24T16:26:02.236Z</time>
      </trkpt>
      <trkpt lat="49.35963" lon="1.41819">
        <ele>48</ele>
        <time>2026-03-24T16:26:06.638Z</time>
      </trkpt>
      <trkpt lat="49.35957" lon="1.41815">
        <ele>49</ele>
        <time>2026-03-24T16:26:10.766Z</time>
      </trkpt>
      <trkpt lat="49.35949" lon="1.41782">
        <ele>50</ele>
        <time>2026-03-24T16:26:56.767Z</time>
      </trkpt>
      <trkpt lat="49.35952" lon="1.41777">
        <ele>50</ele>
        <time>2026-03-24T16:27:00.767Z</time>
      </trkpt>
      <trkpt lat="49.35957" lon="1.4177">
        <ele>50</ele>
        <time>2026-03-24T16:27:05.767Z</time>
      </trkpt>
      <trkpt lat="49.35959" lon="1.41762">
        <ele>49</ele>
        <time>2026-03-24T16:27:10.767Z</time>
      </trkpt>
      <trkpt lat="49.35956" lon="1.41756">
        <ele>49</ele>
        <time>2026-03-24T16:27:15.767Z</time>
      </trkpt>
      <trkpt lat="49.35954" lon="1.41759">
        <ele>49</ele>
        <time>2026-03-24T16:27:20.215Z</time>
      </trkpt>
      <trkpt lat="49.35953" lon="1.41749">
        <ele>49</ele>
        <time>2026-03-24T16:27:24.653Z</time>
      </trkpt>
      <trkpt lat="49.35953" lon="1.41738">
        <ele>49</ele>
        <time>2026-03-24T16:27:29.111Z</time>
      </trkpt>
      <trkpt lat="49.3595" lon="1.4173">
        <ele>49</ele>
        <time>2026-03-24T16:27:33.677Z</time>
      </trkpt>
      <trkpt lat="49.35949" lon="1.41722">
        <ele>49</ele>
        <time>2026-03-24T16:27:38.074Z</time>
      </trkpt>
      <trkpt lat="49.35948" lon="1.41714">
        <ele>49</ele>
        <time>2026-03-24T16:27:42.112Z</time>
      </trkpt>
      <trkpt lat="49.35947" lon="1.41708">
        <ele>48</ele>
        <time>2026-03-24T16:27:46.210Z</time>
      </trkpt>
      <trkpt lat="49.35946" lon="1.41701">
        <ele>48</ele>
        <time>2026-03-24T16:27:50.314Z</time>
      </trkpt>
      <trkpt lat="49.35945" lon="1.41695">
        <ele>48</ele>
        <time>2026-03-24T16:27:54.378Z</time>
      </trkpt>
      <trkpt lat="49.35945" lon="1.41687">
        <ele>48</ele>
        <time>2026-03-24T16:27:58.933Z</time>
      </trkpt>
      <trkpt lat="49.35945" lon="1.41678">
        <ele>47</ele>
        <time>2026-03-24T16:28:03.511Z</time>
      </trkpt>
      <trkpt lat="49.35944" lon="1.41671">
        <ele>47</ele>
        <time>2026-03-24T16:28:08.076Z</time>
      </trkpt>
      <trkpt lat="49.35943" lon="1.41662">
        <ele>47</ele>
        <time>2026-03-24T16:28:12.632Z</time>
      </trkpt>
      <trkpt lat="49.35942" lon="1.41654">
        <ele>47</ele>
        <time>2026-03-24T16:28:17.231Z</time>
      </trkpt>
      <trkpt lat="49.35941" lon="1.41647">
        <ele>47</ele>
        <time>2026-03-24T16:28:21.312Z</time>
      </trkpt>
      <trkpt lat="49.3594" lon="1.4164">
        <ele>47</ele>
        <time>2026-03-24T16:28:25.355Z</time>
      </trkpt>
      <trkpt lat="49.35939" lon="1.41633">
        <ele>47</ele>
        <time>2026-03-24T16:28:29.401Z</time>
      </trkpt>
      <trkpt lat="49.35943" lon="1.41627">
        <ele>47</ele>
        <time>2026-03-24T16:28:33.860Z</time>
      </trkpt>
      <trkpt lat="49.35948" lon="1.41623">
        <ele>48</ele>
        <time>2026-03-24T16:28:38.354Z</time>
      </trkpt>
      <trkpt lat="49.35953" lon="1.4162">
        <ele>48</ele>
        <time>2026-03-24T16:28:42.359Z</time>
      </trkpt>
      <trkpt lat="49.35954" lon="1.41621">
        <ele>48</ele>
        <time>2026-03-24T16:28:46.411Z</time>
      </trkpt>
      <trkpt lat="49.35959" lon="1.41618">
        <ele>46</ele>
        <time>2026-03-24T16:28:50.445Z</time>
      </trkpt>
      <trkpt lat="49.35961" lon="1.41618">
        <ele>46</ele>
        <time>2026-03-24T16:28:54.767Z</time>
      </trkpt>
      <trkpt lat="49.35966" lon="1.41615">
        <ele>46</ele>
        <time>2026-03-24T16:28:59.426Z</time>
      </trkpt>
    </trkseg>
  </trk>
</gpx>